[[{"header":{"parameterUnit":"m.s-1","parameterCategory":1,"la1":30.6,"la2":29.2853,"lo1":-89.7004,"lo2":-87.6739,"dy":0.0162,"dx":0.0183,"nx":112,"ny":82,"refTime":"2023-08-02T00:00:00:Z","depth":0,"parameterNumber":2,"parameterNumberName":"U-component_of_WINDS"},"data":[0.0,0.0,0.0,0.0,0.0,0.0,0.0,0.0,0.0,0.0,0.0,0.0,0.0,0.0,0.0,0.0,0.0,0.0,0.0,0.0,0.0,0.0,0.0,0.0,0.0,0.0,0.0,0.0,0.0,0.0,0.0,0.0,0.0,0.0,0.0,0.0,0.0,0.0,0.0,0.0,0.0,0.0,0.0,0.0,0.0,0.0,0.0,0.0,0.0,0.0,0.0,0.0,0.0,0.0,0.0,0.0,0.0,0.0,0.0,0.0,0.0,0.0,0.0,0.0,0.0,0.0,0.0,0.0,0.0,0.0,0.0,0.0,0.0,0.0,0.0,0.0,0.0,0.0,0.0,0.0,0.0,0.0,0.0,0.0,0.0,0.0,0.0,0.0,0.0,0.0,-1.4569,-1.4569,-1.4569,-1.4569,-1.4569,-1.4569,-1.4569,-1.4569,0.0,0.0,0.0,0.0,0.0,0.0,0.0,0.0,0.0,0.0,0.0,0.0,0.0,0.0,0.0,0.0,0.0,0.0,0.0,0.0,0.0,0.0,0.0,0.0,0.0,0.0,0.0,0.0,0.0,0.0,0.0,0.0,0.0,0.0,0.0,0.0,0.0,0.0,0.0,0.0,0.0,0.0,0.0,0.0,0.0,0.0,0.0,0.0,0.0,0.0,0.0,0.0,0.0,0.0,0.0,0.0,0.0,0.0,0.0,0.0,0.0,0.0,0.0,0.0,0.0,0.0,0.0,0.0,0.0,0.0,0.0,0.0,0.0,0.0,0.0,0.0,0.0,0.0,0.0,0.0,0.0,0.0,0.0,0.0,0.0,0.0,0.0,0.0,0.0,0.0,0.0,0.0,0.0,0.0,0.0,0.0,0.0,0.0,0.0,0.0,0.0,0.0,0.0,0.0,-1.4569,-1.4569,-1.4569,-1.4569,-1.4569,-1.4569,-1.4569,-1.4569,0.0,0.0,0.0,0.0,0.0,0.0,0.0,0.0,0.0,0.0,0.0,0.0,0.0,0.0,0.0,0.0,0.0,0.0,0.0,0.0,0.0,0.0,0.0,0.0,0.0,0.0,0.0,0.0,0.0,0.0,0.0,0.0,0.0,0.0,0.0,0.0,0.0,0.0,0.0,0.0,0.0,0.0,0.0,0.0,0.0,0.0,0.0,0.0,0.0,0.0,0.0,0.0,0.0,0.0,0.0,0.0,0.0,0.0,0.0,0.0,0.0,0.0,0.0,0.0,0.0,0.0,0.0,0.0,0.0,0.0,0.0,0.0,0.0,0.0,0.0,0.0,0.0,0.0,0.0,0.0,0.0,0.0,0.0,0.0,0.0,0.0,0.0,0.0,0.0,0.0,0.0,0.0,0.0,0.0,0.0,0.0,0.0,0.0,0.0,0.0,0.0,0.0,0.0,-1.4569,-1.4569,-1.4569,-1.4569,-1.4569,-1.4569,-1.4569,-1.4569,-1.4569,-1.4569,0.0,0.0,0.0,0.0,0.0,0.0,0.0,0.0,0.0,0.0,0.0,0.0,0.0,0.0,0.0,0.0,0.0,0.0,0.0,0.0,0.0,0.0,0.0,0.0,0.0,0.0,0.0,0.0,0.0,0.0,0.0,0.0,0.0,0.0,0.0,0.0,0.0,0.0,0.0,0.0,0.0,0.0,0.0,0.0,0.0,0.0,0.0,0.0,0.0,0.0,0.0,0.0,0.0,0.0,0.0,0.0,0.0,0.0,0.0,0.0,0.0,0.0,0.0,0.0,0.0,0.0,0.0,0.0,0.0,0.0,0.0,0.0,0.0,0.0,0.0,0.0,0.0,0.0,0.0,0.0,0.0,0.0,0.0,0.0,0.0,0.0,0.0,0.0,0.0,0.0,0.0,0.0,0.0,0.0,0.0,0.0,0.0,0.0,0.0,0.0,0.0,0.0,-1.4569,-1.4569,-1.4569,-1.4569,-1.4569,-1.4569,-1.4569,-1.4569,-1.4569,-1.4569,0.0,0.0,0.0,0.0,0.0,0.0,0.0,0.0,0.0,0.0,0.0,0.0,0.0,0.0,0.0,0.0,0.0,0.0,0.0,0.0,0.0,0.0,0.0,0.0,0.0,0.0,0.0,0.0,0.0,0.0,0.0,0.0,0.0,0.0,0.0,0.0,0.0,0.0,0.0,0.0,0.0,0.0,0.0,0.0,0.0,0.0,0.0,0.0,0.0,0.0,0.0,0.0,0.0,0.0,0.0,0.0,0.0,0.0,0.0,0.0,0.0,0.0,0.0,0.0,0.0,0.0,0.0,0.0,0.0,0.0,0.0,0.0,0.0,0.0,0.0,0.0,0.0,0.0,0.0,0.0,0.0,0.0,0.0,0.0,0.0,0.0,0.0,0.0,0.0,0.0,0.0,0.0,0.0,0.0,0.0,0.0,0.0,0.0,0.0,0.0,0.0,0.0,-1.4569,-1.4569,-1.4569,-1.4569,-1.4569,-1.4569,-1.4569,-1.4569,-1.4569,-1.4569,0.0,0.0,0.0,0.0,0.0,0.0,0.0,0.0,0.0,0.0,0.0,0.0,0.0,0.0,0.0,0.0,0.0,0.0,0.0,0.0,0.0,0.0,0.0,0.0,0.0,0.0,0.0,0.0,0.0,0.0,0.0,0.0,0.0,0.0,0.0,0.0,0.0,0.0,0.0,0.0,0.0,0.0,0.0,0.0,0.0,0.0,0.0,0.0,0.0,0.0,0.0,0.0,0.0,0.0,0.0,0.0,0.0,0.0,0.0,0.0,0.0,0.0,0.0,0.0,0.0,0.0,0.0,0.0,0.0,0.0,0.0,0.0,0.0,0.0,0.0,0.0,0.0,0.0,0.0,0.0,0.0,0.0,0.0,0.0,0.0,0.0,0.0,0.0,0.0,0.0,0.0,0.0,0.0,0.0,0.0,0.0,0.0,0.0,0.0,0.0,0.0,0.0,-1.4569,-1.4569,-1.4569,-1.4569,-1.4569,-1.4569,-1.4569,-1.4569,-1.4569,0.0,0.0,0.0,0.0,0.0,0.0,0.0,0.0,0.0,0.0,0.0,0.0,0.0,0.0,0.0,0.0,0.0,0.0,0.0,0.0,0.0,0.0,0.0,0.0,0.0,0.0,0.0,0.0,0.0,0.0,0.0,0.0,0.0,0.0,0.0,0.0,0.0,0.0,0.0,0.0,0.0,0.0,0.0,0.0,0.0,0.0,0.0,0.0,0.0,0.0,0.0,0.0,0.0,0.0,0.0,0.0,0.0,0.0,0.0,0.0,0.0,0.0,0.0,0.0,0.0,0.0,0.0,0.0,0.0,0.0,0.0,0.0,0.0,0.0,0.0,0.0,0.0,0.0,0.0,0.0,0.0,0.0,0.0,0.0,0.0,0.0,0.0,0.0,0.0,0.0,0.0,0.0,0.0,0.0,0.0,0.0,0.0,0.0,0.0,0.0,0.0,0.0,-1.4425,-1.4569,-1.4569,-1.4569,-1.4569,-1.4569,-1.4569,-1.4569,-1.4569,-1.4569,0.0,0.0,0.0,0.0,0.0,0.0,0.0,0.0,0.0,0.0,0.0,0.0,0.0,0.0,0.0,0.0,0.0,0.0,0.0,0.0,0.0,0.0,0.0,0.0,0.0,0.0,0.0,0.0,0.0,0.0,0.0,0.0,0.0,0.0,0.0,0.0,0.0,0.0,0.0,0.0,0.0,0.0,0.0,0.0,0.0,0.0,0.0,0.0,0.0,0.0,0.0,0.0,0.0,0.0,0.0,0.0,0.0,0.0,0.0,0.0,0.0,0.0,0.0,0.0,0.0,0.0,0.0,0.0,0.0,0.0,0.0,0.0,0.0,0.0,0.0,0.0,0.0,0.0,0.0,0.0,0.0,0.0,0.0,0.0,0.0,0.0,0.0,0.0,0.0,0.0,0.0,0.0,0.0,0.0,0.0,0.0,0.0,0.0,0.0,0.0,0.0,0.0,-1.4569,-1.4569,-1.4569,-1.4569,-1.4569,-1.4569,-1.4569,-1.4569,-1.4569,0.0,0.0,0.0,0.0,0.0,0.0,0.0,0.0,0.0,0.0,0.0,0.0,0.0,0.0,0.0,0.0,0.0,0.0,0.0,0.0,0.0,0.0,0.0,0.0,0.0,0.0,0.0,0.0,0.0,0.0,0.0,0.0,0.0,0.0,0.0,0.0,0.0,0.0,0.0,0.0,0.0,0.0,0.0,0.0,0.0,0.0,0.0,0.0,0.0,0.0,0.0,0.0,0.0,0.0,0.0,0.0,0.0,0.0,0.0,0.0,0.0,0.0,0.0,0.0,0.0,0.0,0.0,0.0,0.0,0.0,0.0,0.0,0.0,0.0,0.0,0.0,0.0,0.0,0.0,0.0,0.0,0.0,0.0,0.0,0.0,0.0,0.0,0.0,0.0,0.0,0.0,0.0,0.0,0.0,0.0,0.0,0.0,0.0,0.0,0.0,0.0,0.0,0.0,-1.4425,-1.4569,-1.4569,-1.4569,-1.4569,-1.4569,-1.4569,-1.4569,-1.4569,-1.4569,0.0,0.0,0.0,0.0,0.0,0.0,0.0,0.0,0.0,0.0,0.0,0.0,0.0,0.0,0.0,0.0,0.0,0.0,0.0,0.0,0.0,0.0,0.0,0.0,0.0,0.0,0.0,0.0,0.0,0.0,0.0,0.0,0.0,0.0,0.0,0.0,0.0,0.0,0.0,0.0,0.0,0.0,0.0,0.0,0.0,0.0,0.0,0.0,0.0,0.0,0.0,0.0,0.0,0.0,0.0,0.0,0.0,0.0,0.0,0.0,0.0,0.0,0.0,0.0,0.0,0.0,0.0,0.0,0.0,0.0,0.0,0.0,0.0,0.0,0.0,0.0,0.0,0.0,0.0,0.0,0.0,0.0,0.0,0.0,0.0,0.0,0.0,0.0,0.0,0.0,0.0,0.0,0.0,0.0,0.0,0.0,0.0,0.0,0.0,0.0,0.0,0.0,-1.4497,-1.4696,-1.4855,-1.4855,-1.4975,-1.5054,-1.5054,-1.5054,-1.4998,-1.4863,0.0,0.0,0.0,0.0,0.0,0.0,0.0,0.0,0.0,0.0,0.0,0.0,0.0,0.0,0.0,0.0,0.0,0.0,0.0,0.0,0.0,0.0,0.0,0.0,0.0,0.0,0.0,0.0,0.0,0.0,0.0,0.0,0.0,0.0,0.0,0.0,0.0,0.0,0.0,0.0,0.0,0.0,0.0,0.0,0.0,0.0,0.0,0.0,0.0,0.0,0.0,0.0,0.0,0.0,0.0,0.0,0.0,0.0,0.0,0.0,0.0,0.0,0.0,0.0,0.0,0.0,0.0,0.0,0.0,0.0,0.0,0.0,0.0,0.0,0.0,0.0,0.0,0.0,0.0,0.0,0.0,0.0,0.0,0.0,0.0,0.0,0.0,0.0,0.0,0.0,0.0,0.0,0.0,0.0,0.0,0.0,0.0,0.0,0.0,0.0,0.0,0.0,-1.4664,-1.5022,-1.5229,-1.5229,-1.5499,-1.5674,-1.5674,-1.5674,-1.5547,-1.5253,0.0,0.0,0.0,0.0,0.0,0.0,0.0,0.0,0.0,0.0,0.0,0.0,0.0,0.0,0.0,0.0,0.0,0.0,0.0,0.0,0.0,0.0,0.0,0.0,0.0,0.0,0.0,0.0,0.0,0.0,0.0,0.0,0.0,0.0,0.0,0.0,0.0,0.0,0.0,0.0,0.0,0.0,0.0,0.0,0.0,0.0,0.0,0.0,0.0,0.0,0.0,0.0,0.0,0.0,0.0,0.0,0.0,0.0,0.0,0.0,-0.8703,-0.8703,0.0,0.0,0.0,0.0,0.0,0.0,0.0,0.0,0.0,0.0,0.0,0.0,0.0,0.0,0.0,0.0,0.0,0.0,0.0,0.0,0.0,0.0,0.0,0.0,0.0,0.0,0.0,0.0,0.0,0.0,0.0,0.0,0.0,0.0,0.0,0.0,0.0,0.0,0.0,0.0,-1.5451,-1.5523,-1.557,-1.557,-1.5634,-1.5674,-1.5674,-1.5674,-1.5642,-1.5578,-1.6841,0.0,0.0,0.0,0.0,0.0,0.0,0.0,0.0,0.0,0.0,0.0,0.0,0.0,0.0,0.0,0.0,0.0,0.0,0.0,0.0,0.0,0.0,0.0,0.0,0.0,0.0,0.0,0.0,0.0,0.0,0.0,0.0,0.0,0.0,0.0,0.0,0.0,0.0,0.0,0.0,0.0,0.0,0.0,0.0,0.0,0.0,0.0,0.0,0.0,0.0,0.0,0.0,0.0,0.0,0.0,0.0,0.0,0.0,0.0,-0.8789,-0.8703,0.0,0.0,0.0,0.0,0.0,0.0,0.0,0.0,0.0,0.0,0.0,0.0,0.0,0.0,0.0,0.0,0.0,0.0,0.0,0.0,0.0,0.0,0.0,0.0,0.0,0.0,0.0,0.0,0.0,0.0,0.0,0.0,0.0,0.0,0.0,0.0,0.0,0.0,0.0,0.0,-1.5674,-1.5825,-1.5936,-1.5936,-1.6079,-1.6182,-1.6182,-1.6182,-1.6111,-1.5944,-1.6863,0.0,0.0,0.0,0.0,0.0,0.0,0.0,0.0,0.0,0.0,0.0,0.0,0.0,0.0,0.0,0.0,0.0,0.0,0.0,0.0,0.0,0.0,0.0,0.0,0.0,0.0,0.0,0.0,0.0,0.0,0.0,0.0,0.0,0.0,0.0,0.0,0.0,0.0,0.0,0.0,0.0,0.0,0.0,0.0,0.0,0.0,0.0,0.0,0.0,0.0,0.0,0.0,0.0,-0.8812,-0.8902,-0.9077,-0.9115,-0.9223,-0.9365,-0.9053,-0.8878,-0.8807,-0.8961,0.0,0.0,0.0,0.0,0.0,0.0,0.0,0.0,0.0,0.0,0.0,0.0,0.0,0.0,0.0,0.0,0.0,0.0,0.0,0.0,0.0,0.0,-1.2792,-1.2786,-1.3677,-1.4366,-1.3992,0.0,0.0,0.0,0.0,0.0,0.0,0.0,0.0,0.0,0.0,0.0,-1.5952,-1.6214,-1.6412,-1.6476,-1.6738,-1.6889,-1.6833,-1.6826,-1.6683,-1.6317,-1.6652,-1.6629,0.0,0.0,0.0,0.0,0.0,0.0,0.0,0.0,0.0,0.0,0.0,0.0,0.0,0.0,0.0,0.0,0.0,0.0,0.0,0.0,0.0,0.0,0.0,0.0,0.0,0.0,0.0,0.0,0.0,0.0,0.0,0.0,-1.1248,-1.0635,0.0,0.0,0.0,0.0,0.0,0.0,0.0,0.0,0.0,0.0,0.0,0.0,0.0,-0.8874,-0.9237,-0.9067,-0.9067,-0.9242,-0.9242,-0.9256,-0.9289,-0.9478,-0.9494,-0.9611,-0.9734,0.0,-0.9323,-1.0124,0.0,0.0,0.0,0.0,0.0,0.0,0.0,0.0,0.0,0.0,0.0,0.0,0.0,0.0,0.0,0.0,0.0,0.0,0.0,0.0,0.0,0.0,-1.5003,-1.5219,-1.5404,-1.5496,-1.541,-1.4612,-1.4142,-1.4858,-1.4973,-1.5088,0.0,0.0,0.0,0.0,0.0,0.0,-1.7024,-1.7111,-1.7247,-1.7533,-1.7604,-1.7517,-1.7231,-1.7207,-1.7048,-1.6683,-1.7423,-1.7479,-1.6595,-1.7421,0.0,0.0,0.0,0.0,0.0,0.0,0.0,0.0,0.0,0.0,0.0,0.0,0.0,0.0,0.0,0.0,0.0,0.0,0.0,0.0,0.0,0.0,0.0,0.0,0.0,0.0,0.0,0.0,0.0,-1.129,-1.0912,-1.1147,-1.0671,-1.03,0.0,0.0,0.0,0.0,0.0,0.0,0.0,0.0,0.0,-0.919,-0.9692,-0.9796,-0.9502,-0.953,-0.9649,-0.9856,-0.9856,-1.0255,-1.0886,-1.0989,-1.13,-1.1921,-1.2026,-1.1949,-1.1727,-1.1286,-1.0926,-1.0669,0.0,0.0,0.0,0.0,-1.1774,-1.157,-1.2374,-1.2533,-1.2454,-1.2454,0.0,0.0,0.0,0.0,0.0,0.0,0.0,-1.4314,-1.4889,-1.519,-1.5569,-1.623,-1.655,-1.6692,-1.6857,-1.6428,-1.6011,-1.5771,-1.6069,-1.6335,-1.6246,-1.6692,0.0,0.0,0.0,-1.7374,-1.7533,-1.7556,-1.7612,-1.7755,-1.7771,-1.7715,-1.7572,-1.7556,-1.7485,-1.7326,-1.7462,-1.7448,-1.704,-1.7163,-1.7131,0.0,0.0,0.0,0.0,0.0,0.0,0.0,0.0,0.0,0.0,0.0,0.0,0.0,0.0,0.0,0.0,0.0,0.0,0.0,0.0,0.0,0.0,0.0,0.0,0.0,0.0,0.0,0.0,-1.1134,-1.0861,-1.164,-1.1075,-1.0813,0.0,0.0,0.0,0.0,0.0,0.0,-0.9492,-1.005,-1.0275,-0.9976,-1.08,-1.1006,-1.0646,-1.0552,-1.0657,-1.0788,-1.0615,-1.0992,-1.1838,-1.2269,-1.2851,-1.36,-1.3944,-1.4068,-1.4019,-1.2898,-1.2279,-1.2192,-1.3139,-1.3187,-1.2837,-1.3264,-1.3214,-1.2953,-1.3607,-1.3784,-1.3634,-1.3634,-1.4042,-1.4416,-1.3701,0.0,0.0,0.0,0.0,-1.5382,-1.5987,-1.5989,-1.6095,-1.6977,-1.7375,-1.7585,-1.8025,-1.812,-1.7866,-1.681,-1.704,-1.7397,-1.7134,-1.751,0.0,-1.7612,-1.7692,-1.7803,-1.7898,-1.7906,-1.7946,-1.8033,-1.8041,-1.8001,-1.7914,-1.7906,-1.7866,-1.7779,-1.754,-1.7405,-1.7405,-1.7064,-1.6873,-1.6873,0.0,0.0,0.0,0.0,0.0,0.0,0.0,0.0,0.0,0.0,0.0,0.0,0.0,0.0,0.0,0.0,0.0,0.0,0.0,0.0,0.0,0.0,0.0,0.0,0.0,0.0,0.0,0.0,0.0,-1.1491,-1.0275,0.0,0.0,0.0,0.0,-1.1885,-1.1146,-1.0692,-1.0912,-1.0119,-1.0318,-1.1612,-1.1728,-1.2282,-1.3501,-1.2524,-1.2113,-1.2261,-1.1333,-1.0972,-1.1263,-1.2537,-1.3127,-1.3342,-1.4572,-1.5081,-1.5102,-1.489,-1.434,-1.3705,-1.4526,-1.4423,-1.3777,-1.4589,-1.4856,-1.5021,-1.5913,-1.6184,-1.6184,-1.6184,-1.6272,-1.6272,-1.6199,-1.6213,0.0,0.0,-1.7018,-1.7018,-1.7288,-1.7303,-1.7396,-1.773,-1.7823,-1.8014,-1.8609,-1.905,-1.8978,-1.7898,-1.7723,-1.7747,-1.7747,0.0,-1.7771,-1.7771,-1.7771,-1.7898,-1.8232,-1.8271,-1.8398,-1.874,-1.8772,-1.8637,-1.8295,-1.8271,-1.8128,-1.7795,-1.7755,-1.7747,-1.7747,-1.7429,-1.7254,-1.7254,-1.6913,0.0,0.0,0.0,0.0,0.0,0.0,0.0,0.0,0.0,0.0,0.0,0.0,0.0,0.0,0.0,0.0,0.0,0.0,0.0,0.0,0.0,0.0,0.0,0.0,0.0,0.0,0.0,0.0,-1.2298,-1.1452,0.0,-1.2832,-1.2157,-1.1778,-1.2137,-1.2302,-1.2106,-1.1592,-1.1921,-1.2159,-1.2216,-1.2285,-1.2663,-1.3375,-1.3155,-1.3374,-1.4248,-1.3853,-1.4097,-1.4781,-1.5276,-1.5825,-1.6526,-1.7038,-1.7186,-1.7152,-1.7119,-1.6635,-1.6039,-1.7018,-1.7087,-1.6706,-1.7282,-1.7157,-1.6607,-1.7439,-1.7545,-1.7286,-1.7286,-1.7328,-1.7304,-1.7304,-1.745,-1.7706,-1.7801,-1.7998,-1.81,-1.7998,-1.8093,-1.832,-1.8624,-1.8655,-1.8781,-1.9375,-1.9598,-1.9574,-1.9193,-1.9113,-1.9113,-1.9113,-1.9113,-1.9113,-1.9113,-1.9113,-1.9161,-1.9288,-1.9304,-1.9352,-1.9479,-1.9304,-1.9129,-1.9002,-1.8772,-1.8589,-1.8454,-1.824,-1.8112,-1.8112,-1.7779,-1.7596,-1.7596,-1.7469,-1.7209,0.0,0.0,0.0,0.0,0.0,0.0,0.0,0.0,0.0,0.0,0.0,0.0,0.0,0.0,0.0,0.0,0.0,0.0,0.0,0.0,0.0,0.0,0.0,0.0,0.0,0.0,-1.2714,-1.33,-1.2746,-1.2765,-1.3863,-1.3563,-1.3348,-1.3626,-1.3899,-1.3752,-1.3205,-1.365,-1.3914,-1.389,-1.3584,-1.3941,-1.4892,-1.4375,-1.461,-1.5815,-1.5503,-1.5757,-1.6464,-1.6886,-1.7401,-1.8117,-1.8427,-1.8628,-1.8628,-1.8628,-1.8412,-1.8074,-1.8471,-1.8453,-1.8268,-1.8654,-1.8326,-1.775,-1.8225,-1.8233,-1.7963,-1.7963,-1.8008,-1.7977,-1.7977,-1.813,-1.8306,-1.8405,-1.861,-1.8807,-1.8602,-1.8708,-1.8943,-1.9247,-1.9269,-1.9399,-2.0004,-2.0119,-2.0218,-2.0218,-2.0027,-1.9868,-1.9868,-1.9868,-1.9868,-1.9868,-1.9868,-1.9868,-1.9868,-1.9868,-1.9868,-1.9868,-1.9669,-1.9534,-1.9534,-1.9312,-1.9129,-1.9018,-1.8788,-1.8605,-1.8486,-1.8136,-1.7946,-1.7946,-1.7834,-1.7565,-1.7173,0.0,0.0,0.0,0.0,0.0,0.0,0.0,0.0,0.0,0.0,0.0,0.0,0.0,0.0,0.0,0.0,0.0,0.0,0.0,0.0,0.0,0.0,0.0,-1.3996,-1.4004,-1.4128,-1.4457,-1.4044,-1.4186,-1.534,-1.5049,-1.5255,-1.6286,-1.5882,-1.5631,-1.5812,-1.5325,-1.5505,-1.6794,-1.5695,-1.6105,-1.8229,-1.6212,-1.5846,-1.7154,-1.611,-1.5719,-1.6074,-1.7147,-1.7687,-1.7687,-1.8855,-1.9279,-1.9279,-1.9279,-1.948,-1.9612,-1.8677,-1.8335,-1.8335,-1.8328,-1.8328,-1.8328,-1.8335,-1.8335,-1.8335,-1.8335,-1.8335,-1.8328,-1.8335,-1.8335,-1.8434,-1.8647,-1.8943,-1.9132,-1.9132,-1.9132,-1.9216,-1.9544,-1.962,-1.9813,-2.0341,-2.0719,-2.0925,-2.0925,-2.0369,-1.9892,-1.9892,-1.9892,-1.9892,-1.9892,-1.9892,0.0,-1.9892,-1.9892,-1.9892,-1.9892,-1.9884,-1.9884,-1.9884,-1.9868,-1.9733,-1.9407,-1.9383,-1.9225,-1.8875,-1.8518,-1.8327,-1.8319,-1.7969,-1.7787,-1.7787,0.0,0.0,0.0,0.0,0.0,0.0,0.0,0.0,0.0,0.0,0.0,0.0,0.0,0.0,0.0,0.0,0.0,0.0,0.0,0.0,0.0,0.0,-1.4333,-1.4333,-1.4531,-1.4801,-1.5123,-1.5278,-1.5511,-1.6082,-1.6422,-1.6402,-1.6016,-1.6908,-1.7253,-1.6538,-1.6322,-1.65,-1.7001,-1.5984,-1.6182,-1.775,-1.7231,-1.7486,-1.8719,-1.84,-1.8338,-1.8422,-1.8639,-1.8848,-1.8855,-1.9168,-1.9279,-1.9279,-1.9279,-1.9376,-1.9361,-1.9375,-1.9308,-1.9301,-1.9505,-1.9607,-1.9607,-1.9403,-1.9308,-1.9308,-1.9308,-1.9206,-1.9111,-1.9308,-1.9308,-1.9411,-1.9615,-1.9615,-1.9513,-1.9513,-1.9513,-1.9638,-1.9933,-2.0066,-2.0302,-2.0704,-2.0822,-2.0925,-2.0925,-2.0766,-2.0631,-2.0631,-2.0631,-2.0631,-2.0631,-2.0631,-2.0631,-2.0631,-2.0631,-2.0631,-2.0631,-2.04,-2.0249,-2.0249,-2.0011,-1.982,-1.9733,-1.9733,-1.9685,-1.9582,-1.9256,-1.8955,-1.8684,-1.8171,-1.7908,0.0,0.0,0.0,0.0,0.0,0.0,0.0,0.0,0.0,0.0,0.0,0.0,0.0,0.0,0.0,0.0,0.0,0.0,0.0,0.0,0.0,0.0,-1.4874,-1.4962,-1.5226,-1.5196,-1.5313,-1.5767,-1.6228,-1.6572,-1.6755,-1.7355,-1.7448,-1.6856,-1.7908,-1.8203,-1.7687,-1.7806,-1.7865,-1.8046,-1.6899,-1.6977,-1.8325,-1.7793,-1.822,-1.9279,-1.9279,-1.9279,-1.9279,-1.9279,-1.9279,-1.9279,-1.9279,-1.9279,-1.9279,-1.9279,-1.9279,0.0,0.0,0.0,0.0,0.0,-1.9983,-1.9879,-1.9879,-1.9879,-1.9879,-1.9879,-1.9783,-1.968,-1.9776,-1.9879,-1.9879,-2.0078,-2.0094,-1.999,-1.999,-1.999,-1.9983,-2.0189,-2.03,-2.0403,-2.0719,-2.0822,-2.0925,-2.0925,-2.0925,0.0,-2.0925,-2.0925,-2.0925,-2.0925,-2.0925,-2.0925,-2.0925,-2.0925,-2.0925,-2.0925,-2.0734,-2.0615,-2.0615,-2.0424,0.0,0.0,0.0,-2.0019,-1.9868,-1.9677,0.0,0.0,0.0,-1.858,-1.858,-1.8218,0.0,0.0,-1.7819,-1.7573,0.0,0.0,0.0,0.0,0.0,0.0,0.0,0.0,0.0,0.0,0.0,0.0,0.0,0.0,0.0,0.0,-1.5533,-1.576,-1.6389,-1.5994,-1.5848,-1.6411,-1.7047,-1.7435,-1.7435,-1.7991,-1.8357,-1.8357,-1.8657,-1.8847,-1.8847,0.0,0.0,0.0,0.0,-1.8325,-1.9272,-1.8325,-1.8338,-1.933,-1.933,-1.9345,-1.9381,-1.9381,-1.9381,-1.9381,-1.9381,-1.9381,-1.9381,-1.9381,-1.936,-1.9435,-1.9294,-1.9279,-1.9376,-1.9576,-1.968,-1.9783,-1.9983,0.0,0.0,-2.0078,-2.0078,-2.0086,-2.0189,-2.0189,-2.0189,-2.0189,-2.03,-2.0522,-2.0522,-2.03,-2.0189,-2.0411,-2.03,-2.0292,-2.0514,-2.0719,-2.0925,-2.0925,-2.0925,-2.0925,-2.0925,-2.0925,-2.0925,-2.0925,-2.0925,-2.0925,-2.0925,-2.0925,-2.0925,-2.0925,0.0,0.0,-2.0925,-2.0925,-2.079,-2.0472,-2.0456,-2.0289,-1.994,-1.9924,-1.9908,-1.9868,-1.9582,-1.9431,-1.9431,-1.9105,-1.8947,-1.8931,-1.8224,-1.7802,0.0,0.0,0.0,0.0,0.0,0.0,0.0,0.0,0.0,0.0,0.0,0.0,0.0,0.0,0.0,-1.6213,-1.6374,-1.6691,-1.7055,-1.704,-1.7004,-1.7128,-1.7721,-1.8116,-1.8116,-1.8467,-1.8694,-1.8694,-1.8994,-1.9184,-1.9184,-1.9242,-1.9279,-1.9279,-1.9063,-1.9063,-1.9279,-1.9063,-1.9194,-1.9667,0.0,0.0,-2.0055,-2.0055,-2.0055,-2.0055,-2.0055,-2.0055,-2.0055,-2.0055,-2.0001,-1.9948,-1.9479,-1.9279,-1.9376,-1.9576,-1.968,-1.9783,-1.9983,-2.0078,-2.0078,-2.0078,-2.0078,-2.0189,-2.0411,-2.0411,0.0,-2.0712,-2.0617,-2.0522,-2.0522,-2.0411,-2.0411,-2.0522,-2.0617,-2.0712,-2.0822,-2.0822,-2.0925,-2.0925,-2.0925,-2.0925,-2.0925,-2.0925,-2.0925,-2.0925,-2.0925,-2.0925,-2.0925,-2.0925,-2.0925,-2.0925,-2.0925,-2.0925,-2.0925,-2.0925,-2.0893,-2.0821,-2.0821,-2.0662,-2.0305,-2.0289,-2.0154,-1.9868,-1.9805,-1.9773,-1.9773,-1.9701,-1.9669,-1.9646,-1.8947,-1.8621,0.0,0.0,0.0,0.0,0.0,0.0,0.0,0.0,0.0,0.0,0.0,-1.5646,0.0,0.0,-1.647,-1.6769,-1.6941,-1.7268,-1.7728,-1.7955,-1.7999,-1.7838,-1.8247,-1.8547,-1.8547,-1.884,-1.903,-1.903,-1.9184,-1.9279,-1.9279,-1.9279,-1.9279,-1.9279,-1.9433,-1.952,-1.952,-1.9674,-1.9835,-1.9996,-1.9996,-2.0084,-2.0237,-2.0237,-2.0237,-2.0237,-2.0237,-2.0237,-2.023,-2.0347,-2.0569,-2.062,-2.0347,-1.9971,-1.968,-1.9998,-1.999,-1.9983,-2.0197,-2.0189,-2.0078,-2.0078,-2.0078,-2.0189,-2.0411,-2.0411,-2.0442,-2.1028,-2.0971,-2.0802,-2.1183,-2.1133,-2.1133,-2.1239,-2.1231,-2.1183,-2.1115,-2.1187,-2.1131,-2.0956,-2.0925,-2.0925,-2.0925,-2.0925,-2.0925,-2.0925,-2.0925,-2.0925,-2.0925,-2.0925,-2.0925,-2.0925,-2.0925,-2.0925,-2.0925,-2.0925,-2.0925,-2.0925,-2.0925,-2.0845,-2.0662,-2.0655,-2.0575,-2.04,-2.0218,-2.013,-2.013,-1.9955,-1.9868,-1.9852,-1.9511,-1.9257,0.0,0.0,0.0,0.0,0.0,0.0,0.0,0.0,-1.5844,-1.6107,-1.6253,-1.6342,-1.6581,-1.6603,-1.6838,-1.7426,-1.7574,-1.7728,-1.8313,-1.8621,-1.8716,-1.8511,-1.8723,-1.8884,-1.8884,-1.9118,-1.9279,-1.9279,-1.9279,-1.9279,-1.9279,-1.9279,-1.9301,-1.9367,-1.9623,-1.9798,-1.9857,-2.0106,-2.0267,-2.0333,-2.0333,-2.0362,-2.0428,-2.0428,-2.0428,-2.0538,-2.0531,-2.0531,-2.0538,-2.0861,-2.1152,-2.12,-2.1309,-2.1032,-2.0493,-2.0604,-2.0604,-2.0389,-2.0708,-2.0597,-2.0485,-2.0485,-2.0485,-2.0485,-2.0708,-2.0604,-2.0651,-2.136,-2.1325,-2.1274,-2.1886,-2.1858,-2.175,-2.1957,-2.185,-2.1671,-2.1502,-2.1544,-2.1465,-2.1179,-2.1068,-2.102,-2.102,-2.0964,-2.0925,-2.0925,-2.0925,-2.0925,-2.0925,-2.0925,-2.0925,-2.0925,-2.0925,-2.0925,-2.0925,-2.0925,-2.0925,-2.0925,-2.0925,-2.0925,-2.0925,-2.0925,-2.0925,-2.0925,-2.0639,-2.0496,-2.0496,-2.021,-2.0067,-2.0067,-2.0067,-1.9897,-1.8339,-1.7926,-1.7502,-1.7463,-1.6854,-1.648,0.0,0.0,-1.6357,-1.7139,-1.6851,-1.6588,-1.7371,-1.7499,-1.7643,-1.8007,-1.832,-1.8632,-1.8686,-1.8767,-1.8884,-1.914,-1.9199,-1.922,-1.922,-1.9257,-1.9279,-1.9279,-1.9279,-1.9279,-1.9279,-1.9279,-1.9411,-1.9696,-1.974,-1.9894,-2.0179,-2.0223,-2.0384,-2.0669,-2.0669,-2.0823,-2.1101,-2.1101,-2.1215,-2.1556,-2.1775,-2.1775,-2.1556,-2.2122,-2.205,-2.1544,-2.2096,-2.2079,-2.1731,-2.1525,-2.1425,-2.1417,-2.1739,-2.1838,-2.1838,-2.1838,-2.1838,-2.1838,-2.1846,-2.1838,-2.1846,-2.1894,-2.1902,-2.191,-2.1949,-2.1957,-2.1957,-2.1957,-2.1957,-2.1949,-2.191,-2.1902,-2.1886,-2.1846,-2.16,-2.1393,-2.1393,-2.1131,-2.0925,-2.0925,-2.0925,-2.0925,-2.0925,-2.0925,-2.0925,-2.0925,-2.0925,-2.0925,-2.0925,-2.0925,-2.0925,-2.0925,-2.0925,-2.0925,-2.0925,-2.0925,-2.0925,-2.0925,-2.0885,-2.0861,-2.0861,-2.0821,-2.0805,-2.0805,-2.0805,-2.0371,-1.9099,-1.8822,-1.8451,-1.7648,-1.704,-1.6791,-1.7321,-1.7141,-1.706,-1.7486,-1.7627,-1.769,-1.7931,-1.816,-1.8297,0.0,-1.8703,-1.8903,-1.9228,-1.917,-1.9221,-1.9457,-1.9376,-1.9279,-1.9279,-1.9279,-1.9279,-1.9279,-1.9279,-1.9279,-1.9279,-1.9455,-1.9623,-1.9762,-2.0128,-2.0384,-2.0523,-2.0706,-2.0874,-2.1006,-2.1006,-2.1079,-2.1211,-2.1211,-2.1325,-2.1668,-2.1782,-2.2002,-2.2237,-2.2464,-2.2484,-2.2456,-2.268,-2.2704,-2.2521,-2.2008,-2.175,-2.1642,-2.175,-2.1642,-2.1526,-2.1526,-2.1526,-2.1526,-2.175,-2.1634,-2.1573,-2.2103,-2.2158,-2.2096,-2.2521,-2.2577,-2.2577,-2.2577,-2.2577,-2.2521,-2.2307,-2.2267,-2.2204,-2.1997,-2.1838,-2.1743,-2.1743,-2.1457,-2.1227,-2.1227,-2.1052,-2.0925,-2.0925,-2.0925,-2.0925,-2.0925,-2.0925,-2.0925,-2.0925,-2.0925,-2.0925,-2.0925,-2.0925,-2.0925,-2.0925,-2.0925,-2.0925,-2.0925,-2.0925,-2.0925,-2.0925,-2.0925,-2.0925,-2.0925,-2.0925,-2.0562,-2.0536,-2.0165,-1.9758,-1.8506,-1.7899,-1.7571,-1.7675,-1.7666,-1.771,-1.8047,-1.8342,-1.8534,-1.8674,-1.8807,-1.8902,-1.8955,-1.9066,-1.9206,-1.9546,-1.948,-1.948,-1.9576,-1.9376,-1.9279,-1.9279,-1.9279,-1.9279,-1.9279,-1.9279,-1.9316,-1.9403,-1.963,-1.9842,-2.0025,-2.0479,-2.0764,-2.0859,-2.1094,-2.1211,-2.1211,-2.1211,-2.1211,-2.1211,-2.1325,-2.1554,-2.1896,-2.1896,-2.2116,-2.257,-2.257,-2.2683,-2.2901,-2.3014,-2.3014,-2.295,-2.2434,-2.2142,-2.2041,-2.2041,-2.1814,-2.1595,-2.1595,-2.1595,-2.1705,-2.1932,-2.1814,-2.1759,-2.2451,-2.2522,-2.2474,-2.2838,-2.3014,-2.3014,-2.3014,-2.3014,-2.2942,-2.2688,-2.2633,-2.2561,-2.2299,-2.2172,-2.21,-2.21,-2.1814,-2.1592,-2.1592,-2.129,-2.1028,-2.0933,-2.0925,-2.0925,-2.0925,-2.0925,-2.0925,-2.0925,-2.0925,-2.0925,-2.0925,-2.0925,-2.0925,-2.0925,-2.0925,-2.0925,-2.0925,-2.0925,-2.0925,-2.0925,-2.0925,-2.0925,-2.0925,-2.0925,-2.0822,-2.2938,-2.2473,-2.1632,-2.0624,-1.9791,-1.8963,-1.8378,-1.8108,-1.8131,-1.9099,-1.8964,-1.8874,-1.9692,-1.9437,-1.9272,-1.9504,-1.9668,-1.9569,-1.9376,-1.948,-1.9576,-1.9376,-1.9279,-1.9279,0.0,-1.9279,-1.9279,-1.9279,-1.9279,-1.9411,-1.9733,-1.9755,-2.0047,-2.0676,-2.0713,-2.0874,-2.1196,-2.1203,-2.1211,-2.1211,-2.1211,-2.1211,-2.1211,-2.1554,-2.201,-2.257,-2.223,-2.223,-2.257,-2.257,-2.257,-2.2683,-2.2901,-2.3014,-2.3014,-2.299,-2.2982,-2.2982,-2.2982,-2.2982,-2.2982,-2.2982,-2.2982,-2.2982,-2.2982,-2.2982,-2.2982,-2.2998,-2.2998,-2.2998,-2.3014,-2.3014,-2.3014,-2.3014,-2.3014,-2.3014,-2.3006,-2.2998,-2.2998,-2.2982,-2.2704,-2.2466,-2.2466,-2.218,-2.1941,-2.1941,-2.1655,-2.1306,-2.0964,-2.0925,-2.0925,-2.0925,-2.0925,-2.0925,-2.0925,-2.0925,-2.0925,-2.0925,-2.0925,-2.0925,-2.0925,-2.0925,-2.0925,-2.0925,-2.0925,-2.0925,-2.0925,-2.0925,-2.0925,-2.0925,-2.0925,-2.0925,-2.2473,-2.1671,-2.0801,-2.0137,-1.925,-1.8653,-1.8656,-1.8743,-1.8988,-1.9328,-1.9636,-1.9787,-1.9706,-1.9798,-1.9713,-1.942,-1.9612,-1.968,-1.9576,-1.968,-1.968,-1.9576,-1.9376,0.0,0.0,0.0,0.0,-1.9279,-1.9279,-1.9418,-1.9747,-1.9967,-2.0274,-2.0713,-2.0933,-2.1101,-2.1211,-2.1211,-2.1211,-2.1211,-2.1439,-2.1554,-2.1554,-2.1668,-2.1896,-2.223,-2.2116,-2.2343,-2.257,-2.2788,-2.2909,-2.2901,-2.3014,-2.3014,-2.3014,-2.3014,-2.3014,-2.3014,-2.3014,-2.3014,-2.3014,-2.3014,-2.3014,-2.3014,-2.3014,-2.3014,-2.3014,-2.3014,-2.3014,-2.3014,-2.3014,-2.3014,-2.3014,-2.3014,-2.3014,-2.3014,-2.3014,-2.3014,-2.3014,-2.3014,-2.2919,-2.2839,-2.2839,-2.2545,-2.2227,-2.1989,-2.1671,-2.1322,-2.0964,-2.0925,-2.0925,-2.0925,-2.0925,-2.0925,-2.0925,-2.0925,-2.0925,-2.0925,-2.0925,-2.0925,-2.0925,-2.0925,-2.0925,-2.0925,-2.0925,-2.0925,-2.0925,-2.0925,-2.0925,-2.0925,-2.0925,-2.0925,-2.2508,-2.2116,-2.158,-2.028,-1.972,-1.947,-1.9124,-1.9201,-1.9447,-1.9685,-2.0091,-2.0332,-2.0062,-2.0153,-2.0094,-1.9791,-1.9783,-1.9783,-1.968,-1.968,-1.968,-1.9583,-1.9376,-1.9279,0.0,0.0,0.0,-1.9279,-1.9389,-1.9594,-1.9916,-2.0237,-2.0559,-2.0889,-2.1101,-2.1211,-2.1211,-2.1211,-2.1211,-2.1211,-2.1554,-2.1668,-2.1668,-2.1554,-2.1774,-2.2108,-2.2002,-2.223,-2.257,-2.2796,-2.2901,-2.3014,-2.3014,-2.3014,-2.3014,-2.3014,-2.3014,-2.3014,-2.3014,-2.3014,-2.3014,-2.3014,-2.3014,-2.3014,-2.3014,-2.3014,-2.3014,-2.3014,-2.3014,-2.3014,-2.3014,-2.3014,-2.3014,-2.3014,-2.3014,-2.3014,-2.3014,-2.3014,-2.3014,-2.3014,-2.3014,-2.3014,-2.3014,-2.2823,-2.2553,-2.2204,-2.1965,-2.1648,-2.1171,-2.0996,-2.0925,-2.0925,-2.0925,-2.0925,-2.0925,-2.0925,-2.0925,-2.0925,-2.0925,-2.0925,-2.0925,-2.0925,-2.0925,-2.0925,-2.0925,-2.0925,-2.0925,-2.0925,-2.0925,-2.0925,-2.0925,-2.0925,-2.3335,-2.382,-2.382,-2.1141,-2.106,-2.1266,-1.9845,-1.9478,-1.9582,-2.0257,-2.0408,-2.0527,0.0,0.0,-2.0522,-2.0514,-2.03,-1.9983,-1.9783,-1.968,-1.9576,0.0,0.0,0.0,0.0,0.0,0.0,-1.9272,0.0,-1.9901,-2.0223,-2.0545,-2.0874,-2.1196,-2.1211,-2.1211,-2.1211,-2.1211,-2.1211,-2.1211,-2.1554,-2.1782,-2.1782,-2.1439,-2.1546,-2.2116,-2.1774,-2.201,-2.257,-2.257,-2.2796,-2.3014,-2.3014,-2.3014,-2.3014,-2.3014,-2.3014,-2.3014,-2.3014,-2.3014,-2.3014,-2.3014,-2.3014,-2.3014,-2.3014,-2.3014,-2.3014,-2.3014,-2.3014,-2.3014,-2.3014,-2.3014,-2.3014,-2.3014,-2.3014,-2.3014,-2.3014,-2.3014,-2.3014,-2.3014,-2.3014,-2.3014,-2.3014,-2.3014,-2.2903,-2.2569,-2.2498,-2.2235,-2.1536,-2.1155,-2.0941,-2.0925,-2.0925,-2.0925,-2.0925,-2.0925,-2.0925,-2.0925,-2.0925,-2.0925,-2.0925,-2.0925,-2.0925,-2.0925,-2.0925,-2.0925,-2.0925,-2.0925,-2.0925,-2.0925,-2.0925,-2.0925,-2.4063,-2.382,-2.328,-2.2561,-2.1498,-2.0624,-2.0467,-2.0115,-1.986,-2.0305,-2.0607,-2.0711,0.0,0.0,0.0,-2.0197,-2.03,0.0,-2.0086,-1.9983,0.0,-1.9576,0.0,-1.9376,-1.9576,-1.9376,0.0,0.0,-1.9677,-1.9901,-2.0223,-2.0545,-2.0874,-2.1196,-2.1211,-2.1325,-2.1554,-2.1774,-2.1888,-2.1888,-2.2002,-2.2116,-2.2351,-2.2002,-2.1995,-2.2116,-2.2002,-2.2116,-2.223,-2.2456,-2.2796,-2.3014,-2.3014,-2.3014,-2.3014,-2.3014,-2.3014,-2.3014,-2.3014,-2.3014,-2.3014,-2.3014,-2.3014,-2.3014,-2.3014,-2.3014,-2.3014,-2.3014,-2.3014,-2.3014,-2.3014,-2.3014,-2.3014,-2.3014,-2.3014,-2.3014,-2.3014,-2.3014,-2.3014,-2.3014,-2.3014,-2.3014,-2.3014,-2.3014,-2.2982,-2.2895,-2.2656,-2.2235,-2.1536,-2.137,-2.1211,-2.0948,-2.0925,-2.0925,-2.0925,-2.0925,-2.0925,-2.0925,-2.0925,-2.0925,-2.0925,-2.0925,-2.0925,-2.0925,-2.0925,-2.0925,-2.0925,-2.0925,-2.0925,-2.0925,-2.0925,-2.0925,-2.3882,-2.3454,-2.3008,-2.257,-2.1686,-2.1031,-2.1587,-2.1139,-2.0679,-2.1204,-2.0958,-2.0632,-2.0688,-2.0594,-2.0437,0.0,0.0,0.0,-2.03,-2.0086,-1.9879,0.0,-1.9583,0.0,-1.948,-1.948,-1.9583,0.0,-1.9916,-2.0047,-2.023,-2.0684,-2.102,-2.1203,-2.1211,-2.1325,-2.1668,-2.2116,-2.223,-2.2116,-2.223,-2.2343,-2.2343,-2.223,-2.2116,-2.2116,-2.223,-2.2343,-2.2343,-2.2683,-2.2909,-2.3014,-2.3014,-2.3014,-2.3014,-2.3014,-2.3014,-2.3014,-2.3014,-2.3014,-2.3014,-2.3014,-2.3014,-2.3014,-2.3014,-2.3014,-2.3014,-2.3014,-2.3014,-2.3014,-2.3014,-2.3014,-2.3014,-2.3014,-2.3014,-2.3014,-2.3014,-2.3014,-2.3014,-2.3014,-2.3014,-2.3014,-2.3014,-2.3014,-2.3014,-2.3014,-2.2847,-2.2521,-2.1973,-2.1767,-2.1544,-2.1195,-2.1155,-2.1091,-2.0933,-2.0925,-2.0925,-2.0925,-2.0925,-2.0925,-2.0925,-2.0925,-2.0925,-2.0925,-2.0925,-2.0925,-2.0925,-2.0925,-2.0925,-2.0925,-2.0925,-2.0925,-2.3411,-2.3183,-2.2921,-2.205,-2.1695,-2.1707,-2.2435,-2.1872,-2.142,-2.2036,-2.1321,-2.0616,-2.0726,-2.0527,-2.044,-2.0798,0.0,-2.0467,-2.0514,-2.0094,-1.968,-1.9783,-1.9783,-1.9576,-1.948,-1.9576,-1.9776,-1.9776,-2.0079,-2.0339,-2.023,-2.0852,-2.1325,-2.1325,-2.1325,-2.1439,-2.1782,-2.2343,-2.2456,-2.223,-2.2456,-2.2456,-2.223,-2.223,-2.223,-2.223,-2.2456,-2.257,-2.257,-2.2901,-2.3014,-2.3014,-2.3014,-2.3014,-2.3014,-2.3014,-2.3014,-2.3014,-2.3014,-2.3014,-2.3014,-2.3014,-2.3014,-2.3014,-2.3014,-2.3014,-2.3014,-2.3014,-2.3014,-2.3014,-2.3014,-2.3014,-2.3014,-2.3014,-2.3014,-2.3014,-2.3014,-2.3014,-2.3014,-2.3014,-2.3014,-2.3014,-2.3014,-2.3014,-2.3014,-2.3014,-2.3014,-2.2903,-2.2593,-2.2251,-2.1894,-2.1552,-2.1481,-2.133,-2.102,-2.0948,-2.0925,-2.0925,-2.0925,-2.0925,-2.0925,-2.0925,-2.0925,-2.0925,-2.0925,-2.0925,-2.0925,-2.0925,-2.0925,-2.0925,-2.0925,-2.0925,-2.4047,-2.3724,-2.3096,-2.2921,-2.1676,-2.0642,-2.1093,-2.101,0.0,0.0,-2.0768,-2.0937,-2.0231,-1.9995,-2.0075,-2.0424,-2.0287,-2.0288,-2.0783,-2.0197,-1.9887,0.0,-1.999,-1.9783,-1.9983,-1.9983,0.0,0.0,-2.0605,-2.0775,-2.055,-2.1189,-2.1668,-2.1668,-2.1774,-2.2116,-2.2456,-2.2796,-2.2901,-2.2788,-2.2683,-2.2683,-2.2788,-2.257,-2.2456,-2.257,-2.257,0.0,-2.257,-2.2683,-2.2796,-2.3014,-2.3014,-2.3014,-2.3014,-2.3014,-2.3014,-2.3014,-2.3014,-2.3014,-2.3014,-2.3014,-2.3014,-2.3014,-2.3014,-2.3014,-2.3014,-2.3014,-2.3014,-2.3014,-2.3014,-2.3014,-2.3014,-2.3014,-2.3014,-2.3014,-2.3014,-2.3014,-2.3014,-2.3014,-2.3014,-2.3014,-2.3014,-2.3014,-2.3014,-2.3014,-2.3014,-2.299,-2.2934,-2.2617,-2.2259,-2.1902,-2.1616,-2.1425,-2.1362,-2.1091,-2.0925,-2.0925,-2.0925,-2.0925,-2.0925,-2.0925,-2.0925,-2.0925,-2.0925,-2.0925,-2.0925,-2.0925,-2.0925,-2.0925,-2.0925,-2.0925,-2.3834,-2.3295,-2.2482,-2.3008,-2.2031,-2.1167,-2.1568,0.0,0.0,0.0,-2.0487,-2.023,-1.9925,-1.9725,0.0,-2.0313,-2.0292,-2.0419,-2.0869,-2.03,-2.0094,-2.0418,-2.0197,-1.9879,-1.9879,-2.0094,-2.0292,-2.0086,-2.0712,-2.0985,-2.0659,-2.1302,-2.1782,-2.1888,-2.223,-2.2456,-2.257,-2.2909,-2.3014,-2.3014,-2.2909,-2.2901,-2.3014,-2.2909,-2.2796,-2.2796,-2.2796,-2.2796,-2.2796,-2.2796,-2.2901,-2.3014,-2.3014,-2.3014,-2.3014,-2.3014,-2.3014,-2.3014,-2.3014,-2.3014,-2.3014,-2.3014,-2.3014,-2.3014,-2.3014,-2.3014,-2.3014,-2.3014,-2.3014,-2.3014,-2.3014,-2.3014,-2.3014,-2.3014,-2.3014,-2.3014,-2.3014,-2.3014,-2.3014,-2.3014,-2.3014,-2.3014,-2.3014,-2.3014,-2.3014,-2.3014,-2.3014,-2.3014,-2.3014,-2.2863,-2.2625,-2.2275,-2.2084,-2.1918,-2.1735,-2.1393,-2.1195,-2.1195,-2.102,-2.0925,-2.0925,-2.0925,-2.0925,-2.0925,-2.0925,-2.0925,-2.0925,-2.0925,-2.0925,-2.0925,-2.0925,-2.0925,-2.3546,-2.2906,-2.2017,-2.2639,-2.2129,-2.1419,-2.1552,-2.1164,0.0,-2.0899,-2.0182,-1.9612,-1.9694,-1.9431,-1.9455,0.0,-2.0134,-2.0308,-2.0758,-2.0349,-2.0197,0.0,-2.03,0.0,-1.9887,-2.0308,0.0,-2.0189,-2.0818,-2.1162,-2.0978,-2.1384,-2.1896,-2.223,-2.2456,-2.2683,-2.2683,-2.2901,-2.3014,-2.3014,-2.3014,-2.3014,-2.3014,-2.3014,-2.3014,-2.3014,-2.3014,-2.3014,-2.3014,-2.3014,-2.3014,-2.3014,-2.3014,-2.3014,-2.3014,-2.3014,-2.3014,-2.3014,-2.3014,-2.3014,-2.3014,-2.3014,-2.3014,-2.3014,-2.3014,-2.3014,-2.3014,-2.3014,-2.3014,-2.3014,-2.3014,-2.3014,-2.3014,-2.3014,-2.3014,-2.3014,-2.3014,-2.3014,-2.3014,-2.3014,-2.3014,-2.3014,-2.3014,-2.3014,-2.3014,-2.3014,-2.3014,-2.3014,-2.3014,-2.3014,-2.2911,-2.2633,-2.2529,-2.237,-2.2092,-2.1759,-2.156,-2.156,-2.1298,-2.1107,-2.1036,-2.1036,-2.0996,-2.0925,-2.0925,-2.0925,-2.0925,-2.0925,-2.0925,-2.0925,-2.0925,-2.0925,-2.3639,-2.3102,-2.2255,-2.1947,-2.115,-2.0175,-1.932,0.0,-2.0135,-1.9184,-1.9704,-1.9962,-1.91,-1.8899,-1.901,-1.9399,0.0,-1.9558,-2.0292,-2.0005,-1.999,-2.0822,0.0,0.0,-2.0418,-2.0719,-2.0719,-2.0514,-2.1031,-2.158,-2.1986,-2.1744,-2.201,-2.257,-2.257,-2.2683,-2.3014,-2.3014,-2.3014,-2.3014,-2.3014,-2.3014,-2.3014,-2.3014,-2.3014,-2.3014,-2.3014,-2.3014,0.0,-2.3014,-2.3014,-2.3014,-2.3014,-2.3014,-2.3014,-2.3014,-2.3014,-2.3014,-2.3014,-2.3014,-2.3014,-2.3014,-2.3014,-2.3014,-2.3014,-2.3014,-2.3014,-2.3014,-2.3014,-2.3014,-2.3014,-2.3014,-2.3014,-2.3014,-2.3014,-2.3014,-2.3014,-2.3014,-2.3014,-2.3014,-2.3014,-2.3014,-2.3014,-2.3014,-2.3014,-2.3014,-2.3014,-2.3014,-2.3014,-2.3014,-2.3006,-2.2974,-2.268,-2.2474,-2.2442,-2.2116,-2.191,-2.191,-2.1878,-2.1727,-2.1417,-2.1401,-2.125,-2.0925,-2.0925,-2.0925,-2.0925,-2.0925,-2.0925,-2.0925,-2.0925,-2.0925,-2.22,-2.1802,-2.124,-2.1401,-2.0625,-2.0073,-2.0477,0.0,-1.9455,-1.9629,-1.9546,-1.9271,-1.8827,-1.8827,-1.8947,0.0,0.0,0.0,-2.0345,-2.0296,-2.0411,-2.0822,-2.0617,0.0,0.0,0.0,-2.0988,-2.109,-2.137,-2.172,-2.2418,-2.2343,-2.2456,-2.2796,-2.2796,-2.2901,-2.3014,-2.3014,-2.3014,-2.3014,-2.3014,-2.3014,-2.3014,-2.3014,-2.3014,-2.3014,-2.3014,-2.3014,0.0,-2.3014,-2.3014,-2.3014,-2.3014,-2.3014,-2.3014,-2.3014,-2.3014,-2.3014,-2.3014,-2.3014,-2.3014,-2.3014,-2.3014,-2.3014,-2.3014,-2.3014,-2.3014,-2.3014,-2.3014,-2.3014,-2.3014,-2.3014,-2.3014,-2.3014,-2.3014,-2.3014,-2.3014,-2.3014,-2.3014,-2.3014,-2.3014,-2.3014,-2.3014,-2.3014,-2.3014,-2.3014,-2.3014,-2.3014,-2.3014,-2.3014,-2.3014,-2.3014,-2.2887,-2.2807,-2.2807,-2.2474,-2.2275,-2.2275,-2.2077,-2.1902,-2.1759,-2.1759,-2.1687,-2.1544,-2.1544,-2.1544,-2.1544,-2.1544,-2.1544,-2.1544,-2.1544,-2.1433,-2.1242,-2.1,-2.0652,-2.0634,-2.0131,-1.9946,0.0,0.0,-1.9096,-2.0076,-1.9546,-1.8827,-1.8827,-1.8827,-1.8915,0.0,0.0,-1.9858,-2.0202,-2.0436,-2.0617,-2.0822,0.0,-2.0617,0.0,-2.0822,-2.1107,-2.1579,-2.1626,-2.1939,-2.2644,-2.2683,-2.2796,-2.3014,-2.3014,-2.3014,-2.3014,-2.3014,-2.3014,-2.3014,-2.3014,-2.3014,-2.3014,-2.3014,-2.3014,-2.3014,-2.3014,-2.3014,0.0,-2.3014,-2.3014,-2.3014,-2.3014,-2.3014,-2.3014,-2.3014,-2.3014,-2.3014,-2.3014,-2.3014,-2.3014,-2.3014,-2.3014,-2.3014,-2.3014,-2.3014,-2.3014,-2.3014,-2.3014,-2.3014,-2.3014,-2.3014,-2.3014,-2.3014,-2.3014,-2.3014,-2.3014,-2.3014,-2.3014,-2.3014,-2.3014,-2.3014,-2.3014,-2.3014,-2.3014,-2.3014,-2.3014,-2.3014,-2.3014,-2.3014,-2.3014,-2.3014,-2.3014,-2.3014,-2.3014,-2.2784,-2.2641,-2.2641,-2.241,-2.222,-2.2116,-2.2116,-2.2061,-2.1957,-2.1957,-2.1957,-2.1957,-2.1957,-2.1957,-2.1957,-2.1957,-2.183,-2.1322,-2.1191,-2.0895,-1.9551,-1.9427,-1.9701,0.0,0.0,-1.9096,-2.0076,-1.9546,-1.8827,-1.8827,-1.8827,-1.8827,-1.8835,0.0,0.0,-1.9868,-2.0279,-2.0617,0.0,0.0,-2.0925,-2.0925,-2.0925,-2.1211,-2.191,-2.1957,0.0,-2.2982,-2.3014,-2.3014,-2.3014,-2.3014,-2.3014,-2.3014,-2.3014,-2.3014,-2.3014,-2.3014,-2.3014,-2.3014,-2.3014,-2.3014,-2.3014,-2.3014,-2.3014,0.0,-2.3014,-2.3014,-2.3014,-2.3014,-2.3014,-2.3014,-2.3014,-2.3014,-2.3014,-2.3014,-2.3014,-2.3014,-2.3014,-2.3014,-2.3014,-2.3014,-2.3014,-2.3014,-2.3014,-2.3014,-2.3014,-2.3014,-2.3014,-2.3014,-2.3014,-2.3014,-2.3014,-2.3014,-2.3014,-2.3014,-2.3014,-2.3014,-2.3014,-2.3014,-2.3014,-2.3014,-2.3014,-2.3014,-2.3014,-2.3014,-2.3014,-2.3014,-2.3014,-2.3014,-2.3014,-2.3014,-2.3014,-2.3006,-2.3006,-2.3006,-2.2847,-2.2498,-2.2482,-2.2315,-2.1965,-2.1957,-2.1957,-2.1957,-2.1957,-2.1957,-2.1957,-2.1957,-2.1957,-2.0947,-2.0742,-2.0524,-1.988,-1.9542,-1.9566,-2.0506,0.0,-1.9096,-2.0076,-1.9546,-1.8827,-1.8827,-1.8827,-1.8827,-1.8827,-1.932,0.0,0.0,0.0,0.0,-2.0925,-2.0925,-2.0925,0.0,0.0,-2.1115,-2.1576,-2.183,-2.2164,-2.2625,-2.2887,-2.3014,-2.3014,-2.3014,-2.3014,-2.3014,-2.3014,-2.3014,-2.3014,-2.3014,-2.3014,-2.3014,-2.3014,-2.3014,-2.3014,-2.3014,-2.3014,-2.3014,-2.3014,-2.3014,-2.3014,-2.3014,-2.3014,-2.3014,-2.3014,-2.3014,-2.3014,-2.3014,-2.3014,-2.3014,-2.3014,-2.3014,-2.3014,-2.3014,-2.3014,-2.3014,-2.3014,-2.3014,-2.3014,-2.3014,-2.3014,-2.3014,-2.3014,-2.3014,-2.3014,-2.3014,-2.3014,-2.3014,-2.3014,-2.3014,-2.3014,-2.3014,-2.3014,-2.3014,-2.3014,-2.3014,-2.3014,-2.3014,-2.3014,-2.3014,-2.3014,-2.3792,-2.3896,-2.3127,-2.3014,-2.3014,-2.3014,-2.3014,-2.2966,-2.2855,-2.2847,-2.2791,-2.2688,-2.268,-2.268,-2.268,-2.268,-2.268,-2.2672,-2.2434,-2.2743,0.0,-2.0459,-2.0371,-1.9897,-1.9419,0.0,0.0,-1.98,-1.9096,-2.0076,-1.9546,-1.8827,-1.8827,-1.8827,-1.8827,-1.8827,-1.9407,0.0,0.0,0.0,0.0,-2.0925,0.0,0.0,0.0,-2.0925,-2.1068,-2.132,-2.1648,-2.1981,-2.2458,-2.2696,-2.2879,-2.3014,-2.3014,-2.3014,-2.3014,-2.3014,-2.3014,-2.3014,-2.3014,-2.3014,-2.3014,-2.3014,-2.3014,-2.3014,-2.3014,-2.3014,0.0,-2.3014,-2.3014,-2.3014,-2.3014,-2.3014,-2.3014,-2.3014,-2.3014,-2.3014,-2.3014,-2.3014,-2.3014,-2.3014,-2.3014,-2.3014,-2.3014,-2.3014,-2.3014,-2.3014,-2.3014,-2.3014,-2.3014,-2.3014,-2.3014,-2.3014,-2.3014,-2.3014,-2.3014,-2.3014,-2.3014,-2.3014,-2.3014,-2.3014,-2.3014,-2.3014,-2.3014,-2.3014,-2.3014,-2.3014,-2.3014,-2.3014,-2.3127,-2.368,-2.4334,-2.4667,-2.4317,-2.4317,-2.4317,-2.4317,-2.4317,-2.4317,-2.4317,-2.4317,-2.4317,-2.4317,-2.4317,-2.4317,-2.4317,-2.4317,-2.4317,-2.4317,-2.4082,-2.4401,0.0,-2.0459,-2.0304,-1.9529,-1.925,0.0,-2.0268,-1.9558,0.0,-1.9985,-1.9446,-1.8827,-1.8827,-1.8827,-1.8827,-1.8827,-1.9407,0.0,0.0,-2.048,0.0,0.0,-2.0925,0.0,-2.0925,-2.0925,-2.106,-2.1385,-2.1441,-2.1735,-2.2378,-2.2458,-2.2633,-2.2966,-2.3006,-2.3014,-2.3014,-2.3014,-2.3014,-2.3014,-2.3014,-2.3014,-2.3014,-2.3014,-2.3014,0.0,-2.3014,-2.3014,-2.3014,-2.3014,-2.3014,-2.3014,-2.3014,-2.3014,-2.3014,-2.3014,-2.3014,-2.3014,-2.3014,-2.3014,-2.3014,-2.3014,-2.3014,-2.3014,-2.3014,-2.3014,-2.3014,-2.3014,-2.3014,-2.3014,-2.3014,-2.3014,-2.3014,-2.3014,-2.3014,-2.3014,-2.3014,-2.3014,-2.3014,-2.3014,-2.3014,-2.3014,-2.3014,-2.3014,-2.3014,-2.3014,-2.3127,-2.3127,-2.3127,-2.3231,-2.3672,-2.4778,-2.5,-2.5423,-2.649,-2.6599,-2.6481,-2.6481,-2.6481,-2.6481,-2.6481,-2.6481,-2.6481,-2.6481,-2.6481,-2.6481,-2.6481,-2.6481,-2.6481,-2.6481,-2.6481,-2.659,-2.0779,0.0,-2.0381,-1.9972,-1.9454,-1.9222,0.0,0.0,-1.8827,-1.9096,-1.9004,-1.8827,-1.8827,-1.8827,-1.8827,-1.8827,0.0,-1.9868,-1.9868,0.0,0.0,-2.0925,-2.0925,-2.0925,-2.0925,-2.0925,-2.0956,-2.1044,-2.1298,-2.152,-2.1687,-2.2196,-2.2529,-2.2609,-2.2871,-2.3014,-2.3014,-2.3014,-2.3014,-2.3014,-2.3014,-2.3014,-2.3014,-2.3014,-2.3014,-2.3014,-2.3014,-2.3014,-2.3014,-2.3014,-2.3014,-2.3014,-2.3014,-2.3014,-2.3014,-2.3014,-2.3014,-2.3014,-2.3014,-2.3014,-2.3014,-2.3014,-2.3014,-2.3014,-2.3014,-2.3014,-2.3014,-2.3014,-2.3014,-2.3014,-2.3014,-2.3014,-2.3014,-2.3014,-2.3014,-2.3014,-2.3014,-2.3014,-2.3014,-2.3014,-2.3014,-2.3014,-2.3014,-2.3014,-2.3014,-2.3014,-2.3792,-2.4342,-2.4342,-2.5194,-2.5836,-2.6054,-2.6924,-2.7473,-2.7785,-2.7023,-2.6481,-2.6481,-2.6481,-2.6481,-2.6481,-2.6481,-2.6481,-2.6481,-2.6481,-2.6481,-2.6481,-2.6481,-2.6481,-2.6481,-2.6481,-2.6915,-2.0294,-2.0216,-2.0488,-2.0505,-1.9859,-1.9333,-2.0131,0.0,0.0,-1.8827,0.0,-1.8827,-1.8827,-1.8827,-1.8827,-1.8827,-1.9407,0.0,0.0,0.0,-2.0925,-2.0925,-2.0925,-2.0925,0.0,-2.0925,-2.0925,-2.0925,-2.1099,-2.1282,-2.1441,-2.1806,-2.2084,-2.2235,-2.2585,-2.2855,-2.3014,-2.3014,-2.3014,-2.3014,-2.3014,-2.3014,-2.3014,-2.3014,-2.3014,-2.3014,-2.3014,-2.3014,-2.3014,-2.3014,-2.3014,-2.3014,-2.3014,-2.3014,-2.3014,-2.3014,-2.3014,-2.3014,-2.3014,-2.3014,-2.3014,-2.3014,-2.3014,-2.3014,-2.3014,-2.3014,-2.3014,-2.3014,-2.3014,-2.3014,-2.3014,-2.3014,-2.3014,-2.3014,-2.3014,-2.3014,-2.3014,-2.3014,-2.3014,-2.3014,-2.3014,-2.3014,-2.3014,-2.3014,-2.3239,-2.3792,-2.4342,-2.5,-2.5525,-2.6164,-2.6698,-2.7248,-2.7785,-2.8445,-2.8996,-2.8455,-2.8126,-2.8126,-2.8126,-2.8126,-2.8126,-2.8126,-2.8126,-2.8126,-2.8126,-2.8126,-2.8126,-2.8126,-2.8126,-2.8126,-2.8126,-2.8455,-1.9737,-1.9863,-2.0497,-2.0771,-1.9904,-1.9256,-2.0551,0.0,0.0,0.0,0.0,0.0,0.0,-1.8827,0.0,0.0,0.0,0.0,-2.0829,-2.0925,-2.0925,-2.0925,-2.0925,0.0,-2.0925,-2.0925,-2.0925,-2.0925,-2.0925,-2.1052,-2.1354,-2.1417,-2.1584,-2.187,-2.222,-2.2545,-2.2855,-2.2966,-2.3014,-2.3014,-2.3014,-2.3014,-2.3014,-2.3014,-2.3014,-2.3014,0.0,0.0,-2.3014,-2.3014,-2.3014,-2.3014,-2.3014,-2.3014,-2.3014,-2.3014,-2.3014,-2.3014,-2.3014,-2.3014,-2.3014,-2.3014,-2.3014,-2.3014,-2.3014,-2.3014,-2.3014,-2.3014,-2.3014,-2.3014,-2.3014,-2.3014,-2.3014,-2.3014,-2.3014,-2.3014,-2.3014,-2.3014,-2.3014,-2.3014,-2.3014,-2.3014,-2.3014,-2.3127,-2.3568,-2.4676,-2.5101,-2.5634,-2.6599,-2.6924,-2.7356,-2.8339,-2.8445,-2.889,-2.9879,-2.9994,-2.9994,-2.9994,-2.9994,-2.9994,-2.9994,-2.9994,-2.9994,-2.9994,-2.9994,-2.9994,-2.9994,-2.9994,-2.9994,-2.9994,-2.9994,-2.9994,-1.9737,-1.9592,-1.9879,-1.9539,-1.8751,-1.8464,-2.0009,0.0,0.0,0.0,0.0,0.0,0.0,-1.8827,-1.8931,0.0,0.0,-2.0456,0.0,0.0,-2.0925,-2.0925,0.0,-2.0925,-2.0925,-2.0925,-2.0925,-2.0925,-2.0925,-2.0941,-2.0996,-2.129,-2.1473,-2.1528,-2.1862,-2.2061,-2.2124,-2.272,-2.3014,-2.3014,-2.3014,-2.3014,-2.3014,-2.3014,-2.3014,-2.3014,0.0,-2.3014,-2.3014,-2.3014,-2.3014,-2.3014,-2.3014,-2.3014,-2.3014,-2.3014,-2.3014,-2.3014,-2.3014,-2.3014,-2.3014,-2.3014,-2.3014,-2.3014,-2.3014,-2.3014,-2.3014,-2.3014,-2.3014,-2.3014,-2.3014,-2.3014,-2.3014,-2.3014,-2.3014,-2.3014,-2.3014,-2.3014,-2.3014,-2.3014,-2.3014,-2.3014,-2.3014,-2.3904,-2.4565,-2.4778,-2.6391,-2.7795,-2.7902,-2.8784,-2.9554,-2.9669,-2.9774,-2.9774,-2.9994,-2.9994,-2.9994,-2.9994,-2.9994,-2.9994,-2.9994,-2.9994,-2.9994,-2.9994,-2.9994,-2.9994,-2.9994,-2.9994,-2.9994,-2.9994,-2.9994,-2.9994,-1.9737,-1.9878,-2.0216,-1.8786,-1.8264,-1.8451,-1.9949,-1.9538,0.0,0.0,0.0,0.0,0.0,0.0,-1.9002,-1.955,0.0,-2.0519,-2.0869,-2.0925,-2.0925,0.0,0.0,-2.0925,-2.0925,-2.0925,-2.0925,-2.0925,-2.0925,-2.0925,-2.0925,-2.1076,-2.1163,-2.1163,-2.1497,-2.1687,-2.1687,-2.2188,-2.2442,-2.2442,-2.2442,-2.2442,-2.2442,-2.2442,-2.2442,-2.2442,0.0,-2.2442,-2.2442,-2.2442,-2.2442,-2.2442,-2.2442,-2.2442,-2.2466,-2.2656,-2.2855,-2.3014,-2.3014,-2.3014,-2.3014,-2.3014,-2.3014,-2.3014,-2.3014,-2.3014,-2.3014,-2.3014,-2.3014,-2.3014,-2.3014,-2.3014,-2.3014,-2.3014,-2.3014,-2.3014,-2.3014,-2.3014,-2.3014,-2.3014,-2.3014,-2.3239,-2.3896,-2.4445,-2.5212,-2.64,-2.758,-2.8445,-2.9112,-2.9659,-2.9994,-2.9994,-2.9994,-2.9994,-2.9994,-2.9994,-2.9994,-2.9994,-2.9994,-2.9994,-2.9994,-2.9994,-2.9994,-2.9994,-2.9994,-2.9994,-2.9994,-2.9994,-2.9994,-2.9994,-2.9994,-2.9994,-1.985,-2.0349,-2.0775,-1.849,-1.8274,-1.8832,-1.972,-1.9363,-1.8827,0.0,0.0,0.0,0.0,-1.8962,0.0,-1.9892,-2.0289,-2.0615,-2.0885,-2.0925,-2.0925,-2.0925,-2.0925,-2.0925,-2.0925,-2.0925,-2.0925,-2.0925,-2.0925,-2.0925,-2.0925,-2.0925,-2.0925,-2.0925,-2.1187,-2.133,-2.133,-2.1584,-2.1798,-2.1957,-2.1957,-2.1957,-2.1957,-2.1957,-2.1957,-2.1957,-2.1957,-2.1957,-2.1957,-2.1957,-2.1957,-2.1957,-2.1957,-2.1957,-2.2005,-2.2355,-2.2656,-2.2903,-2.2982,-2.3014,-2.3014,-2.3014,-2.3014,-2.3014,-2.3014,-2.3014,-2.3014,-2.3014,-2.3014,-2.3014,-2.3014,-2.3014,-2.3014,-2.3014,-2.3014,-2.3014,-2.3014,-2.3014,-2.3014,-2.3014,-2.3239,-2.368,-2.4667,-2.5212,-2.6182,-2.7902,-2.8445,-2.8996,-2.9879,-2.9994,-2.9994,-2.9994,-2.9994,-2.9994,-2.9994,-2.9994,-2.9994,-2.9994,-2.9994,-2.9994,-2.9994,-2.9994,-2.9994,-2.9994,-2.9994,-2.9994,-2.9994,-2.9994,-2.9994,-2.9994,-2.9994,-2.9994,-2.0127,-2.0684,-2.1099,-1.8861,-1.8985,-1.9449,-1.9015,-1.8827,0.0,-1.8827,0.0,0.0,0.0,-1.9352,-1.9916,-2.0289,-2.0655,-2.0893,-2.0917,0.0,-2.0925,-2.0925,-2.0925,-2.0925,-2.0925,-2.0925,-2.0925,-2.0925,-2.0925,-2.0925,-2.0925,-2.0925,-2.0925,-2.0925,-2.0948,-2.0964,-2.0964,-2.098,-2.1322,-2.1957,-2.1957,-2.1957,-2.1957,-2.1957,-2.1957,-2.1957,-2.1957,-2.1957,-2.1957,-2.1957,-2.1957,-2.1957,-2.1957,-2.1957,-2.2005,-2.2355,-2.2506,-2.2569,-2.2903,-2.3014,-2.3014,-2.3014,-2.3014,-2.3014,-2.3014,-2.3014,-2.3014,-2.3014,-2.3014,-2.3014,-2.3014,-2.3014,-2.3014,-2.3014,-2.3014,-2.3014,-2.3014,-2.3014,-2.3014,-2.3014,-2.3896,-2.4667,-2.4787,-2.6499,-2.8009,-2.8223,-2.9112,-2.9889,-2.9994,-2.9994,-2.9994,-2.9994,-2.9994,-2.9994,-2.9994,-2.9994,-2.9994,-2.9994,-2.9994,-2.9994,-2.9994,-2.9994,-2.9994,-2.9994,-2.9994,-2.9994,-2.9994,-2.9994,-2.9994,-2.9994,-2.9994,-2.9994,-2.0003,-2.0329,-2.0567,-1.8725,-1.9166,0.0,0.0,-1.8827,-1.8827,-1.8827,-1.8827,0.0,0.0,0.0,-1.9979,-2.0337,-2.0694,-2.0925,-2.0925,-2.0925,-2.0925,-2.0925,-2.0925,-2.0925,-2.0925,-2.0925,-2.0925,-2.0925,-2.0925,-2.0925,-2.0925,-2.0925,-2.0925,-2.0925,-2.0925,-2.0925,-2.0925,-2.0925,-2.1052,-2.1314,-2.1314,-2.1314,-2.1314,-2.1314,-2.1314,-2.1314,-2.1314,-2.1314,-2.1314,-2.1314,-2.1314,-2.1314,-2.1314,-2.1449,-2.1655,-2.1791,-2.1973,-2.2212,-2.2561,-2.2688,-2.272,-2.2942,-2.3014,-2.3014,-2.3014,-2.3014,-2.3014,-2.3014,-2.3014,-2.3014,-2.3014,-2.3014,-2.3014,-2.3014,-2.3014,-2.3014,-2.3014,-2.3014,-2.3239,-2.4008,-2.4454,-2.5212,-2.6717,-2.758,-2.8445,-2.9217,-2.9669,-2.9994,-2.9994,-2.9994,-2.9994,-2.9994,-2.9994,-2.9994,-2.9994,-2.9994,-2.9994,-2.9994,-2.9994,-2.9994,-2.9994,-2.9994,-2.9994,-2.9994,-2.9994,-2.9994,-2.9994,-2.9994,-2.9994,-2.9994,-2.9994,-2.9994,-2.0161,-2.0421,-2.0594,-1.9221,0.0,0.0,-1.9455,-1.9004,-1.8827,-1.8827,-1.8915,-1.9105,-1.9463,0.0,0.0,0.0,-2.0766,-2.0925,-2.0925,-2.0925,-2.0925,-2.0925,-2.0925,-2.0925,-2.0925,-2.0925,-2.0925,-2.0925,-2.0925,-2.1019,-2.1428,-2.1121,-2.1019,-2.142,-2.1428,-2.1224,-2.0925,-2.1224,-2.1224,-2.0925,-2.0925,-2.0925,-2.0925,-2.0925,-2.0925,-2.0925,-2.0925,-2.0925,-2.0925,-2.0925,-2.0925,-2.0925,-2.0925,-2.1068,-2.1298,-2.1409,-2.16,-2.1846,-2.2196,-2.2394,-2.2529,-2.2768,-2.2919,-2.3014,-2.3014,-2.3014,-2.3014,-2.3014,-2.3014,-2.3127,-2.3456,-2.3239,-2.3014,-2.3014,-2.3014,-2.3014,-2.3014,-2.3344,-2.3784,-2.4667,-2.5432,-2.64,-2.7902,-2.8552,-2.9006,-2.9879,-2.9994,-2.9994,-2.9994,-2.9994,-2.9994,-2.9994,-2.9994,-2.9994,-2.9994,-2.9994,-2.9994,-2.9994,-2.9994,-2.9994,-2.9994,-2.9994,-2.9994,-2.9994,-2.9994,-2.9994,-2.9994,-2.9994,-2.9994,-2.9994,-2.9994,-2.9994,-2.0596,-2.0977,-2.1417,0.0,0.0,0.0,-2.0339,-1.9538,-1.8827,-1.8827,-1.9121,-1.9471,-1.9805,-2.0154,0.0,-2.0861,-2.0925,-2.0925,-2.0925,-2.0925,-2.0925,-2.0917,-2.0925,-2.0925,-2.0917,-2.0925,-2.0925,-2.0925,-2.0925,-2.142,-2.2426,-2.1522,-2.142,-2.2526,-2.2526,-2.203,-2.0917,-2.203,-2.203,-2.0917,-2.0917,-2.0925,-2.0925,-2.0925,-2.0925,-2.0925,-2.0925,-2.0925,-2.0925,-2.0925,-2.0925,-2.0925,-2.0925,-2.0925,-2.0964,-2.1314,-2.1449,-2.1489,-2.183,-2.218,-2.2474,-2.2482,-2.272,-2.3014,-2.3014,-2.3014,-2.3014,-2.3014,-2.3014,-2.3344,-2.4454,-2.3896,-2.3014,-2.3014,-2.3014,-2.3014,-2.3014,-2.4008,-2.4778,-2.4778,-2.6608,-2.8223,-2.8223,-2.9217,-2.9994,-2.9994,-2.9994,-2.9994,-2.9994,-2.9994,-2.9994,-2.9994,-2.9994,-2.9994,-2.9994,-2.9994,-2.9994,-2.9994,-2.9994,-2.9994,-2.9994,-2.9994,-2.9994,-2.9994,-2.9994,-2.9994,-2.9994,-2.9994,-2.9994,-2.9994,-2.9994,-2.9994,-2.152,-2.1068,0.0,-2.0309,0.0,0.0,0.0,-1.9538,0.0,0.0,-1.9121,-1.9471,-1.9805,-2.0154,0.0,-2.0861,-2.0925,-2.0925,-2.0925,-2.0925,-2.1224,-2.1928,-2.1326,-2.1224,-2.192,-2.1326,-2.0925,-2.0925,-2.1623,-2.2123,-2.2526,-2.2911,-2.3302,-2.3601,-2.3601,-2.3502,-2.3194,-2.3502,-2.3502,-2.3194,-2.3194,-2.2409,-2.0925,-2.0925,-2.0925,-2.0925,-2.0925,-2.0925,-2.0925,-2.0925,-2.0925,-2.0925,-2.0925,-2.0925,-2.0933,-2.1044,-2.1084,-2.1131,-2.1481,-2.1671,-2.1798,-2.2037,-2.2355,-2.2649,-2.2649,-2.2815,-2.3014,-2.3014,-2.3568,-2.4342,-2.4676,-2.5093,-2.5507,-2.5507,-2.5507,-2.5507,-2.5507,-2.5726,-2.6282,-2.7041,-2.7688,-2.8445,-2.9333,-2.9774,-2.9994,-2.9994,-2.9994,-2.9994,-2.9994,-2.9994,-2.9994,-2.9994,-2.9994,-2.9994,-2.9994,-2.9994,-2.9994,-2.9994,-2.9994,-2.9994,-2.9994,-2.9994,-2.9994,-2.9994,-2.9994,-2.9994,-2.9994,-2.9994,-2.9994,-2.9994,-2.9994,-2.9994,-2.2133,-2.1588,0.0,-2.1309,-2.1141,-2.0791,-2.0439,0.0,0.0,0.0,-1.9225,-1.963,-1.9828,-2.0265,0.0,-2.0885,-2.0925,-2.0925,-2.0925,-2.0925,-2.1326,-2.2325,-2.1928,-2.1827,-2.2426,-2.1928,-2.1522,-2.1522,-2.2123,-2.282,-2.3719,-2.3998,-2.4285,-2.4688,-2.4688,-2.4492,-2.4088,-2.4492,-2.4492,-2.4088,-2.4088,-2.3393,-2.2106,-2.1717,-2.1522,-2.1522,-2.1121,-2.0925,-2.0925,-2.0925,-2.0925,-2.0925,-2.0925,-2.0925,-2.0925,-2.0925,-2.0925,-2.0948,-2.1171,-2.133,-2.1481,-2.1687,-2.1997,-2.2299,-2.2442,-2.2633,-2.2943,-2.3528,-2.4231,-2.5,-2.5972,-2.6608,-2.7023,-2.659,-2.6481,-2.6481,-2.6481,-2.6806,-2.7356,-2.8116,-2.8562,-2.9112,-2.9879,-2.9994,-2.9994,-2.9994,-2.9994,-2.9994,-2.9994,-2.9994,-2.9994,-2.9994,-2.9994,-2.9994,-2.9994,-2.9994,-2.9994,-2.9994,-2.9994,-2.9994,-2.9994,-2.9994,-2.9994,-2.9994,-2.9994,-2.9994,-2.9994,-2.9994,-2.9994,-2.9994,-2.9994,-2.9994,-2.2547,-2.251,0.0,-2.2998,-2.2394,0.0,-2.061,-2.0439,-2.0175,-1.9228,0.0,-1.9973,-2.0095,-2.0564,-2.1019,-2.0925,-2.1019,-2.1019,-2.0917,-2.1019,-2.142,-2.2526,-2.2627,-2.2728,-2.282,-2.2719,-2.2627,-2.2627,-2.2719,-2.361,-2.5596,-2.4884,-2.4884,-2.579,-2.5887,-2.5392,-2.4384,-2.5392,-2.5392,-2.4384,-2.4384,-2.4384,-2.4384,-2.3211,-2.2627,-2.2627,-2.1522,-2.1019,-2.1019,-2.0917,-2.0925,-2.0925,-2.0925,-2.0925,-2.0925,-2.0925,-2.0925,-2.0925,-2.0925,-2.1131,-2.1401,-2.1401,-2.1738,-2.218,-2.24,-2.263,-2.3047,-2.4471,-2.4922,-2.548,-2.763,-2.8193,-2.8116,-2.7032,-2.6816,-2.6816,-2.6816,-2.7688,-2.8339,-2.8339,-2.9227,-2.9994,-2.9994,-2.9994,-2.9994,-2.9994,-2.9994,-2.9994,-2.9994,-2.9994,-2.9994,-2.9994,-2.9994,-2.9994,-2.9994,-2.9994,-2.9994,-2.9994,-2.9994,-2.9994,-2.9994,-2.9994,-2.9994,-2.9994,-2.9994,-2.9994,-2.9994,-2.9994,-2.9994,-2.9994,-2.9994,-2.9994,-2.3795,-2.3497,0.0,0.0,-2.2394,-2.1606,-2.1427,-2.1427,-2.1239,-2.0533,-2.0123,-2.0232,-2.1293,-2.192,-2.1928,-2.1019,-2.1623,-2.1827,-2.1019,-2.1623,-2.2518,-2.3601,-2.38,-2.4097,-2.4903,-2.4205,-2.38,-2.38,-2.4501,-2.5197,-2.5693,-2.6274,-2.6764,-2.6965,-2.6965,-2.687,-2.6562,-2.686,-2.686,-2.6562,-2.6562,-2.6562,-2.6562,-2.459,-2.38,-2.3701,-2.2619,-2.2123,-2.2123,-2.1224,-2.0925,-2.0925,-2.0925,-2.0925,-2.0925,-2.0925,-2.0925,-2.0925,-2.0925,-2.0972,-2.1036,-2.1036,-2.177,-2.2787,-2.2871,-2.3616,-2.4615,-2.4906,-2.6005,-2.7094,-2.7629,-2.863,-2.9554,-2.9333,-2.9227,-2.9227,-2.9227,-2.9448,-2.9659,-2.9659,-2.9774,-2.9994,-2.9994,-2.9994,-2.9994,-2.9994,-2.9994,-2.9994,-2.9994,-2.9994,-2.9994,-2.9994,-2.9994,-2.9994,-2.9994,-2.9994,-2.9994,-2.9994,-2.9994,-2.9994,-2.9994,-2.9994,-2.9994,-2.9994,-2.9994,-2.9994,-2.9994,-2.9994,-2.9994,-2.9994,-2.9994,-2.9994,-2.4245,0.0,0.0,-2.3724,0.0,-2.2394,-2.2394,-2.205,-2.1805,-2.219,-2.1388,-2.0782,-2.1653,-2.215,-2.2526,-2.2409,-2.2518,-2.2526,-2.2409,-2.2518,-2.312,-2.4698,-2.4894,-2.5089,-2.5693,-2.5187,-2.4894,-2.4894,-2.5392,-2.5887,-2.6476,-2.6965,-2.7262,-2.7262,-2.7262,-2.7262,-2.7262,-2.7262,-2.7262,-2.7262,-2.7262,-2.7262,-2.7251,-2.5577,-2.459,-2.4088,-2.3502,-2.3311,-2.3211,-2.271,-2.2114,-2.1725,-2.2215,-2.2114,-2.1623,-2.1623,-2.1623,-2.1623,-2.1623,-2.1623,-2.1725,-2.2316,-2.2941,-2.3529,-2.3715,-2.4329,-2.5051,-2.576,-2.6596,-2.7398,-2.7921,-2.889,-2.9663,-2.9663,-2.9829,-2.9994,-2.9994,-2.9994,-2.9994,-2.9994,-2.9994,-2.9994,-2.9994,-2.9994,-2.9994,-2.9994,-2.9994,-2.9994,-2.9994,-2.9994,-2.9994,-2.9994,-2.9994,-2.9994,-2.9994,-2.9994,-2.9994,-2.9994,-2.9994,-2.9994,-2.9994,-2.9994,-2.9994,-2.9994,-2.9994,-2.9994,-2.9994,-2.9994,-2.9994,-2.9994,-2.9994,-2.9994,-2.4436,0.0,-2.454,-2.454,-2.381,0.0,-2.328,-2.258,-2.2232,-2.3475,-2.2371,-2.15,-2.2039,-2.2441,-2.3111,-2.3989,-2.3511,-2.3311,-2.3989,-2.3511,-2.3719,-2.5499,-2.5887,-2.5984,-2.5984,-2.5984,-2.5984,-2.5984,-2.5984,-2.638,-2.7262,-2.7262,-2.7262,-2.7262,-2.7262,-2.7262,-2.7262,-2.7262,-2.7262,-2.7262,-2.7262,-2.7262,-2.7262,-2.638,-2.5489,-2.4679,-2.4492,-2.4393,-2.4393,-2.4187,-2.3601,-2.282,-2.3791,-2.3601,-2.282,-2.282,-2.282,-2.282,-2.282,-2.282,-2.292,-2.3791,-2.4196,-2.4458,-2.4692,-2.4894,-2.5371,-2.6631,-2.6989,-2.725,-2.8184,-2.8835,-2.9187,-2.9187,-2.9477,-2.9798,-2.9963,-2.9994,-2.9994,-2.9994,-2.9994,-2.9994,-2.9994,-2.9994,-2.9994,-2.9994,-2.9994,-2.9994,-2.9994,-2.9994,-2.9994,-2.9994,-2.9994,-2.9994,-2.9994,-2.9994,-2.9994,-2.9994,-2.9994,-2.9994,-2.9994,-2.9994,-2.9994,-2.9994,-2.9994,-2.9994,-2.9994,-2.9994,-2.9994,-2.9994,-2.9994,-2.9994,0.0,0.0,-2.454,0.0,-2.381,-2.328,0.0,0.0,-2.294,0.0,-2.218,-2.1961,-2.4117,-2.4175,-2.389,-2.4088,-2.4796,-2.4992,-2.4196,-2.4796,-2.5392,-2.5693,-2.6476,-2.7061,-2.7061,-2.7061,-2.7061,-2.7061,-2.7061,-2.7167,-2.7262,-2.7262,-2.7262,-2.7262,-2.7262,-2.7262,-2.7262,-2.7262,-2.7262,-2.7262,-2.7262,-2.7262,-2.7262,-2.7156,-2.6965,-2.686,-2.5887,-2.5499,-2.5392,-2.4492,-2.3998,-2.389,-2.4088,-2.3989,-2.3899,-2.3899,-2.3899,-2.3899,-2.3899,-2.3899,-2.3899,-2.4088,-2.4698,-2.5499,-2.5557,-2.617,-2.6962,-2.7225,-2.7513,-2.7811,-2.7919,-2.8359,-2.8711,-2.8711,-2.8752,-2.9021,-2.9818,-2.9994,-2.9994,-2.9994,-2.9994,-2.9994,-2.9994,-2.9994,-2.9994,-2.9994,-2.9994,-2.9994,-2.9994,-2.9994,-2.9994,-2.9994,-2.9994,-2.9994,-2.9994,-2.9994,-2.9994,-2.9994,-2.9994,-2.9994,-2.9994,-2.9994,-2.9994,-2.9994,-2.9994,-2.9994,-2.9994,-2.9994,-2.9994,-2.9994,-2.9994,-2.9994,-2.454,-2.454,-2.454,0.0,-2.381,-2.3367,-2.4272,-2.3724,-2.328,-2.382,-2.3236,-2.3047,-2.4413,-2.425,-2.4309,-2.5635,-2.5781,-2.579,-2.5868,-2.5781,-2.5887,-2.6572,-2.6965,-2.7262,-2.7262,-2.7262,-2.7262,-2.7262,-2.7262,-2.7262,-2.7262,-2.7262,-2.7262,-2.7262,-2.7262,-2.7262,-2.7262,-2.7262,-2.7262,-2.7262,-2.7262,-2.7262,-2.7262,-2.7262,-2.7262,-2.7251,-2.6774,-2.6572,-2.6572,-2.6071,-2.5577,-2.5089,-2.5674,-2.5577,-2.4992,-2.4992,-2.4992,-2.4992,-2.4992,-2.4992,-2.5089,-2.5674,-2.6177,-2.6572,-2.6572,-2.6965,-2.7262,-2.7262,-2.7396,-2.7552,-2.7552,-2.7883,-2.8224,-2.8224,-2.8421,-2.8721,-2.9135,-2.9425,-2.9684,-2.9942,-2.9994,-2.9994,-2.9994,-2.9994,-2.9994,-2.9994,-2.9994,-2.9994,-2.9994,-2.9994,-2.9994,-2.9994,-2.9994,-2.9994,-2.9994,-2.9994,-2.9994,-2.9994,-2.9994,-2.9994,-2.9994,-2.9994,-2.9994,-2.9994,-2.9994,-2.9994,-2.9994,-2.9994,-2.9994,-2.9994,-2.9994,-2.9994,0.0,0.0,-2.454,-2.454,-2.3993,-2.3637,0.0,0.0,-2.3637,0.0,-2.3994,-2.3711,-2.4524,-2.4294,-2.4689,-2.6989,-2.6668,-2.638,-2.7156,-2.6572,-2.638,-2.7156,-2.7262,-2.7262,-2.7262,-2.7262,-2.7262,-2.7262,-2.7262,-2.7262,-2.7262,-2.7262,-2.7262,-2.7262,-2.7262,-2.7262,-2.7262,-2.7262,-2.7262,-2.7262,-2.7262,-2.7262,-2.7262,-2.7262,-2.7262,-2.7262,-2.7262,-2.7262,-2.7262,-2.7262,-2.687,-2.6187,-2.6965,-2.6774,-2.6081,-2.6081,-2.6081,-2.6081,-2.6081,-2.6081,-2.6284,-2.7061,-2.7262,-2.7262,-2.7262,-2.7262,-2.7262,-2.7262,-2.7262,-2.7262,-2.7262,-2.751,-2.7759,-2.7759,-2.8017,-2.8328,-2.8566,-2.8887,-2.9228,-2.958,-2.9735,-2.9818,-2.9818,-2.9922,-2.9994,-2.9994,-2.9994,-2.9994,-2.9994,-2.9994,-2.9994,-2.9994,-2.9994,-2.9994,-2.9994,-2.9994,-2.9994,-2.9994,-2.9994,-2.9994,-2.9994,-2.9994,-2.9994,-2.9994,-2.9994,-2.9994,-2.9994,-2.9994,-2.9994,-2.9994,-2.9994,-2.9994,0.0,-2.454,0.0,-2.454,-2.4454,0.0,0.0,0.0,-2.4454,-2.4454,-2.3754,-2.3535,-2.4907,-2.5045,-2.547,-2.7084,-2.7262,-2.7262,-2.7262,-2.7262,-2.7262,-2.7262,-2.7262,-2.7262,-2.7262,-2.7262,-2.7262,-2.7262,-2.7262,-2.7262,-2.7262,-2.7262,-2.7262,-2.7262,-2.7262,-2.7262,-2.7262,-2.7262,-2.7262,-2.7262,-2.7262,-2.7262,-2.7262,-2.7262,-2.7262,-2.7262,-2.7262,-2.7262,-2.7262,-2.7262,-2.7262,-2.7251,-2.7262,-2.7262,-2.7262,-2.7262,-2.7262,-2.7262,-2.7262,-2.7262,-2.7262,-2.7262,-2.7262,-2.7262,-2.7262,-2.7262,-2.7262,-2.7262,-2.7262,-2.7262,-2.7262,-2.7282,-2.7293,-2.7293,-2.7314,-2.7562,-2.8431,-2.8628,-2.8659,-2.868,-2.9042,-2.9342,-2.9342,-2.9704,-2.9994,-2.9994,-2.9994,-2.9994,-2.9994,-2.9994,-2.9994,-2.9994,-2.9994,-2.9994,-2.9994,-2.9994,-2.9994,-2.9994,-2.9994,-2.9994,-2.9994,-2.9994,-2.9994,-2.9994,-2.9994,-2.9994,-2.9994,-2.9994,-2.9994,-2.9994,-2.9994,-2.9994,0.0,0.0,0.0,-2.454,-2.454,-2.454,-2.454,-2.454,-2.454,-2.454,-2.4272,-2.4222,-2.5052,-2.4656,-2.4822,-2.6599,-2.6817,-2.692,-2.722,-2.7262,-2.7262,-2.7262,-2.7262,-2.7262,-2.7262,-2.7262,-2.7262,-2.7262,-2.7262,-2.7262,-2.7262,-2.7262,-2.7262,-2.7262,-2.7262,-2.7262,-2.7262,-2.7262,-2.7262,-2.7262,-2.7262,-2.7262,-2.7262,-2.7262,-2.7262,-2.7262,-2.7262,-2.7262,-2.7262,-2.7262,-2.7262,-2.7262,-2.7262,-2.7262,-2.7262,-2.7262,-2.7262,-2.7262,-2.7262,-2.7262,-2.7262,-2.7262,-2.7262,-2.7262,-2.7262,-2.7262,-2.7262,-2.7262,-2.7262,-2.7262,-2.7262,-2.7262,-2.7262,-2.7262,-2.7262,-2.7345,-2.7676,-2.7966,-2.8255,-2.8556,-2.8752,-2.8856,-2.8856,-2.9001,-2.9208,-2.9508,-2.9549,-2.9653,-2.9953,-2.9994,-2.9994,-2.9994,-2.9994,-2.9994,-2.9994,-2.9994,-2.9994,-2.9994,-2.9994,-2.9994,-2.9994,-2.9994,-2.9994,-2.9994,-2.9994,-2.9994,-2.9994,-2.9994,-2.9994,-2.9994,-2.9994,-2.9994,-2.454,0.0,0.0,0.0,-2.454,-2.454,-2.454,-2.454,-2.454,-2.454,-2.454,-2.4633,-2.4943,-2.4449,-2.4545,-2.6094,-2.6465,-2.6672,-2.6982,-2.7158,-2.7262,-2.7262,-2.7262,-2.7262,-2.7262,-2.7262,-2.7262,-2.7262,-2.7262,0.0,-2.7262,-2.7262,-2.7262,-2.7262,-2.7262,-2.7262,-2.7262,-2.7262,-2.7262,-2.7262,-2.7262,-2.7262,-2.7262,-2.7262,-2.7262,-2.7262,-2.7262,-2.7262,-2.7262,-2.7262,-2.7262,-2.7262,-2.7262,-2.7262,-2.7262,-2.7262,-2.7262,-2.7262,-2.7262,-2.7262,-2.7262,-2.7262,-2.7262,-2.7262,-2.7262,-2.7262,-2.7262,-2.7262,-2.7262,-2.7262,-2.7262,-2.7262,-2.7262,-2.7262,-2.7262,-2.7262,-2.7262,-2.7489,-2.779,-2.81,-2.8276,-2.838,-2.838,-2.8514,-2.8721,-2.9032,-2.9208,-2.9415,-2.9725,-2.9901,-2.9994,-2.9994,-2.9994,-2.9994,-2.9994,-2.9994,-2.9994,-2.9994,-2.9994,-2.9994,-2.9994,-2.9994,-2.9994,-2.9994,-2.9994,-2.9994,-2.9994,-2.9994,-2.9994,-2.9994,-2.9994,-2.9994,0.0,0.0,0.0,0.0,0.0,0.0,-2.454,0.0,-2.454,-2.454,-2.454,-2.454,-2.454,-2.454,-2.483,-2.5699,-2.6227,-2.6527,-2.6548,-2.6941,-2.7241,-2.7241,-2.7251,-2.7262,-2.7262,-2.7262,-2.7262,-2.7262,-2.7262,-2.7262,-2.7262,-2.7262,-2.7262,-2.7262,-2.7262,-2.7262,-2.7262,-2.7262,-2.7262,-2.7262,-2.7262,-2.7262,-2.7262,-2.7262,-2.7262,-2.7262,-2.7262,-2.7262,-2.7262,-2.7262,-2.7262,-2.7262,-2.7262,-2.7262,-2.7262,-2.7262,-2.7262,-2.7262,-2.7262,-2.7262,-2.7262,-2.7262,-2.7262,-2.7262,-2.7262,-2.7262,-2.7262,-2.7262,-2.7262,-2.7262,-2.7262,-2.7262,-2.7262,-2.7262,-2.7262,-2.7262,-2.7262,-2.7262,-2.7262,-2.7262,-2.7614,-2.7903,-2.7903,-2.8276,-2.8576,-2.8587,-2.898,-2.927,-2.928,-2.9684,-2.9973,-2.9973,-2.9984,-2.9994,-2.9994,-2.9994,-2.9994,-2.9994,-2.9994,-2.9994,-2.9994,-2.9994,-2.9994,-2.9994,-2.9994,-2.9994,-2.9994,-2.9994,-2.9994,-2.9994,-2.9994,-2.9994,-2.454,0.0,0.0,0.0,0.0,0.0,-2.454,0.0,-2.454,-2.454,-2.454,-2.454,-2.454,-2.454,-2.4623,-2.4871,-2.5295,-2.5709,-2.603,-2.6465,-2.6755,-2.6755,-2.7055,-2.7262,-2.7262,-2.7262,-2.7262,0.0,-2.7262,-2.7262,-2.7262,-2.7262,-2.7262,-2.7262,-2.7262,-2.7262,-2.7262,-2.7262,-2.7262,-2.7262,-2.7262,-2.7262,-2.7262,-2.7262,-2.7262,-2.7262,-2.7262,-2.7262,-2.7262,-2.7262,-2.7262,-2.7262,-2.7262,-2.7262,-2.7262,-2.7262,-2.7262,-2.7262,-2.7262,-2.7262,-2.7262,-2.7262,-2.7262,-2.7262,-2.7262,-2.7262,-2.7262,-2.7262,-2.7262,-2.7262,-2.7262,-2.7262,-2.7262,-2.7262,-2.7262,-2.7262,-2.7262,-2.7262,-2.7262,-2.7262,-2.7355,-2.7438,-2.7438,-2.7552,-2.7748,-2.8059,-2.8224,-2.8421,-2.8763,-2.9208,-2.9497,-2.9497,-2.9798,-2.9994,-2.9994,-2.9994,-2.9994,-2.9994,-2.9994,-2.9994,-2.9994,-2.9994,-2.9994,-2.9994,-2.9994,-2.9994,-2.9994,-2.9994,-2.9994,-2.9994,-2.9994,-2.9994,-2.454,-2.454,-2.454,-2.454,0.0,0.0,-2.454,-2.454,-2.454,0.0,-2.454,-2.454,-2.454,-2.454,-2.454,-2.454,-2.4767,-2.5099,-2.5544,-2.5999,-2.6279,-2.6279,-2.6517,-2.6755,-2.6951,-2.6972,-2.7055,-2.7251,-2.7262,-2.7262,-2.7262,-2.7262,-2.7262,-2.7262,-2.7262,-2.7262,-2.7262,-2.7262,-2.7262,-2.7262,-2.7262,-2.7262,-2.7262,-2.7262,-2.7262,-2.7262,-2.7262,-2.7262,-2.7262,-2.7262,-2.7262,-2.7262,-2.7262,-2.7262,-2.7262,-2.7262,-2.7262,-2.7262,-2.7262,-2.7262,-2.7262,-2.7262,-2.7262,-2.7262,-2.7262,-2.7262,-2.7262,-2.7262,-2.7262,-2.7262,-2.7262,-2.7262,-2.7262,-2.7262,-2.7262,-2.7262,-2.7262,-2.7262,-2.7262,-2.7262,-2.7262,-2.7262,-2.7262,-2.7262,-2.7345,-2.7603,-2.78,-2.8028,-2.8297,-2.8731,-2.9021,-2.9021,-2.9435,-2.9704,-2.9704,-2.988,-2.9994,-2.9994,-2.9994,-2.9994,-2.9994,-2.9994,-2.9994,-2.9994,-2.9808,-2.9611,-2.9415,-2.9611,-2.9611,-2.9415,-2.9415,-2.9415,-2.454,-2.454,-2.454,-2.454,-2.454,0.0,-2.454,-2.454,-2.454,0.0,-2.454,-2.454,-2.454,-2.454,-2.454,-2.454,-2.454,-2.4685,-2.5099,-2.5533,-2.5802,-2.5802,-2.5844,-2.6041,-2.6455,-2.6496,-2.6682,-2.7148,-2.7231,-2.7262,-2.7262,-2.7262,-2.7262,-2.7262,-2.7262,-2.7262,-2.7262,-2.7262,-2.7262,-2.7262,-2.7262,-2.7262,-2.7262,-2.7262,-2.7262,-2.7262,-2.7262,-2.7262,-2.7262,-2.7262,-2.7262,-2.7262,-2.7262,-2.7262,-2.7262,-2.7262,-2.7262,-2.7262,-2.7262,-2.7262,-2.7262,-2.7262,-2.7262,-2.7262,-2.7262,-2.7262,-2.7262,-2.7262,-2.7262,-2.7262,-2.7262,-2.7262,-2.7262,-2.7262,-2.7262,-2.7262,-2.7262,-2.7262,-2.7262,-2.7262,-2.7262,-2.7262,-2.7262,-2.7262,-2.7262,-2.7262,-2.7593,-2.7852,-2.7852,-2.8255,-2.8535,-2.8535,-2.8949,-2.9249,-2.9301,-2.9684,-2.9942,-2.9994,-2.9994,-2.9994,-2.9994,-2.9994,-2.9973,-2.9922,-2.9466,-2.9001,-2.8535,-2.9001,-2.9021,-2.8618,-2.8618,-2.8618,-2.454,-2.454,-2.454,-2.454,-2.454,0.0,-2.454,-2.454,-2.454,0.0,-2.454,-2.454,-2.454,-2.454,-2.454,-2.454,-2.454,-2.4571,-2.4664,-2.5068,-2.5357,-2.5357,-2.5668,-2.5916,-2.6009,-2.6009,-2.6206,-2.6672,-2.7044,-2.7262,-2.7262,-2.7262,-2.7262,-2.7262,-2.7262,-2.7262,-2.7262,-2.7262,-2.7262,-2.7262,-2.7262,-2.7262,-2.7262,-2.7262,-2.7262,-2.7262,-2.7262,-2.7262,-2.7262,-2.7262,-2.7262,-2.7262,-2.7262,-2.7262,-2.7262,-2.7262,-2.7262,-2.7262,-2.7262,-2.7262,-2.7262,-2.7262,-2.7262,-2.7262,-2.7262,-2.7262,-2.7262,-2.7262,-2.7262,-2.7262,-2.7262,-2.7262,-2.7262,-2.7262,-2.7262,-2.7262,-2.7262,-2.7262,-2.7262,-2.7262,-2.7262,-2.7262,-2.7262,-2.7262,-2.7262,-2.7262,-2.7334,-2.7386,-2.7386,-2.7779,-2.8059,-2.8059,-2.8473,-2.8897,-2.927,-2.9384,-2.9601,-2.9973,-2.9994,-2.9994,-2.9994,-2.9994,-2.9818,-2.9446,-2.899,-2.8524,-2.8059,-2.8524,-2.87,-2.8618,-2.8618,-2.8618,-2.454,-2.454,-2.454,-2.454,-2.454,0.0,0.0,-2.454,-2.454,-2.454,-2.454,-2.454,-2.454,-2.454,-2.454,-2.454,-2.454,-2.454,-2.454,-2.4736,-2.4892,-2.4892,-2.5078,-2.5306,-2.5533,-2.5554,-2.5844,-2.6517,-2.6786,-2.7013,-2.7251,-2.7262,-2.7262,-2.7262,-2.7262,-2.7262,-2.7262,-2.7262,-2.7262,-2.7262,-2.7262,-2.7262,-2.7262,-2.7262,-2.7262,-2.7262,-2.7262,-2.7262,-2.7262,-2.7262,-2.7262,-2.7262,-2.7262,-2.7262,-2.7262,-2.7262,-2.7262,-2.7262,-2.7262,-2.7262,-2.7262,-2.7262,-2.7262,-2.7262,-2.7262,-2.7262,-2.7262,-2.7262,-2.7262,-2.7262,-2.7262,-2.7262,-2.7262,-2.7262,-2.7262,-2.7262,-2.7262,-2.7262,-2.7262,-2.7262,-2.7262,-2.7262,-2.7262,-2.7262,-2.7262,-2.7262,-2.7262,-2.7262,-2.7262,-2.7458,-2.7593,-2.7593,-2.7997,-2.8359,-2.8597,-2.9042,-2.9404,-2.9642,-2.987,-2.9994,-2.9994,-2.9994,-2.9673,-2.897,-2.8504,-2.8048,-2.7593,-2.7821,-2.7935,-2.7935,-2.7935,-2.7935,-2.4625,-2.454,-2.454,-2.454,-2.454,-2.454,0.0,0.0,0.0,-2.454,-2.454,-2.454,-2.454,0.0,0.0,-2.4426,0.0,0.0,0.0,-2.4488,0.0,-2.454,-2.454,-2.4685,-2.5068,-2.5181,-2.5533,-2.6258,-2.6392,-2.6641,-2.7107,-2.7127,-2.7169,-2.7262,-2.7262,-2.7262,-2.7262,-2.7262,-2.7262,-2.7262,-2.7262,-2.7262,-2.7262,-2.7262,-2.7262,-2.7262,-2.7262,-2.7262,-2.7262,-2.7262,-2.7262,-2.7262,-2.7262,-2.7262,-2.7262,-2.7262,-2.7262,-2.7262,-2.7262,-2.7262,-2.7262,-2.7262,-2.7262,-2.7262,-2.7262,-2.7262,-2.7262,-2.7262,-2.7262,-2.7262,-2.7262,-2.7262,-2.7262,-2.7262,-2.7262,-2.7262,-2.7262,-2.7262,-2.7262,-2.7262,-2.7262,-2.7262,-2.7262,-2.7262,-2.7262,-2.7262,-2.7262,-2.7262,-2.7262,-2.7262,-2.7262,-2.7262,-2.7583,-2.7831,-2.7914,-2.8607,-2.9073,-2.9166,-2.9611,-2.986,-2.986,-2.9777,-2.9332,-2.8493,-2.8028,-2.7624,-2.7262,-2.7262,-2.7262,-2.7262,-2.7262,-2.7262,-2.4615,-2.454,-2.454,-2.454,-2.454,-2.454,-2.454,0.0,-2.454,-2.454,0.0,-2.454,-2.454,0.0,0.0,0.0,0.0,0.0,-2.4012,-2.4291,-2.454,-2.454,-2.454,-2.456,-2.4526,-2.4995,-2.5275,-2.5378,-2.574,-2.6154,-2.662,-2.6641,-2.6837,-2.7251,-2.7262,-2.7262,-2.7262,-2.7262,-2.7262,-2.7262,-2.7262,-2.7262,-2.7262,-2.7262,-2.7262,-2.7262,-2.7262,-2.7262,-2.7262,-2.7262,-2.7262,-2.7262,-2.7262,-2.7262,-2.7262,-2.7262,-2.7262,-2.7262,-2.7262,-2.7262,-2.7262,-2.7262,-2.7262,-2.7262,-2.7262,-2.7262,-2.7262,-2.7262,-2.7262,-2.7262,-2.7262,-2.7262,-2.7262,-2.7262,-2.7262,-2.7262,-2.7262,-2.7262,-2.7262,-2.7262,-2.7262,-2.7262,-2.7262,-2.7262,-2.7262,-2.7262,-2.7262,-2.7262,-2.7262,-2.7262,-2.7262,-2.7262,-2.7303,-2.7489,-2.7883,-2.8017,-2.8255,-2.8659,-2.9125,-2.9384,-2.9384,-2.899,-2.8524,-2.8007,-2.7562,-2.7314,-2.7262,-2.7262,-2.7262,-2.7262,-2.7262,-2.7262,-2.4871,-2.4786,-2.4871,-2.454,-2.4615,-2.47,-2.454,-2.454,-2.454,-2.454,0.0,0.0,0.0,0.0,0.0,0.0,-2.4416,-2.4478,0.0,0.0,-2.454,-2.454,0.0,0.0,-2.454,-2.4716,-2.4943,-2.5213,-2.5399,-2.5699,-2.6144,-2.6423,-2.6662,-2.6848,-2.7117,-2.7262,-2.7262,-2.7262,-2.7262,-2.7262,-2.7262,-2.7262,-2.7262,-2.7262,-2.7262,-2.7262,-2.7262,-2.7262,-2.7262,-2.7262,-2.7262,-2.7262,-2.7262,-2.7262,-2.7262,-2.7262,-2.7262,-2.7262,-2.7262,-2.7262,-2.7262,-2.7262,-2.7262,-2.7262,-2.7262,-2.7262,-2.7262,-2.7262,-2.7262,-2.7262,-2.7262,-2.7262,-2.7262,-2.7262,-2.7262,-2.7262,-2.7262,-2.7262,-2.7262,-2.7262,-2.7262,-2.7262,-2.7262,-2.7262,-2.7262,-2.7262,-2.7262,-2.7262,-2.7262,-2.7262,-2.7262,-2.7262,-2.7262,-2.7334,-2.7521,-2.7769,-2.8007,-2.8204,-2.8897,-2.9187,-2.8918,-2.8711,-2.839,-2.7935,-2.7489,-2.7262,-2.7262,-2.7262,-2.7262,-2.7262,-2.7262,-2.7262,-2.5115,-2.5115,-2.5115,-2.47,-2.4786,-2.4861,-2.454,-2.454,-2.454,-2.454,-2.454,0.0,0.0,0.0,-2.4498,-2.4374,0.0,-2.4498,0.0,-2.4467,-2.454,-2.454,0.0,0.0,0.0,-2.454,-2.4674,-2.5016,-2.5047,-2.5233,-2.5678,-2.602,-2.631,-2.6558,-2.69,-2.7138,-2.7262,-2.7262,-2.7262,-2.7262,-2.7262,-2.7262,-2.7262,-2.7262,-2.7262,-2.7262,-2.7262,-2.7262,-2.7262,-2.7262,-2.7262,-2.7262,-2.7262,-2.7262,-2.7262,-2.7262,-2.7262,-2.7262,-2.7262,-2.7262,-2.7262,-2.7262,-2.7262,-2.7262,-2.7262,-2.7262,-2.7262,-2.7262,-2.7262,-2.7262,-2.7262,-2.7262,-2.7262,-2.7262,-2.7262,-2.7262,-2.7262,-2.7262,-2.7262,-2.7262,-2.7262,-2.7262,-2.7262,-2.7262,-2.7262,-2.7262,-2.7262,-2.7262,-2.7262,-2.7262,-2.7262,-2.7262,-2.7262,-2.7262,-2.7262,-2.7552,-2.779,-2.7914,-2.8669,-2.897,-2.8628,-2.8618,-2.839,-2.7935,-2.7489,-2.7262,-2.7262,-2.7262,-2.7262,-2.7262,-2.7262,-2.7262,-2.5285,-2.52,-2.5115,-2.4946,-2.4861,-2.4861,-2.454,-2.454,-2.454,-2.454,-2.454,-2.454,-2.454,-2.454,-2.4405,-2.3971,-2.426,0.0,0.0,-2.4271,-2.454,-2.454,-2.454,0.0,0.0,-2.454,-2.455,-2.456,-2.4475,-2.4767,-2.5223,-2.5264,-2.5668,-2.6548,-2.6579,-2.6806,-2.7251,-2.7262,-2.7262,-2.7262,-2.7262,-2.7262,-2.7262,-2.7262,-2.7262,-2.7262,-2.7262,-2.7262,-2.7262,-2.7262,-2.7262,-2.7262,-2.7262,-2.7262,-2.7262,-2.7262,-2.7262,-2.7262,-2.7262,-2.7262,-2.7262,-2.7262,-2.7262,-2.7262,-2.7262,-2.7262,-2.7262,-2.7262,-2.7262,-2.7262,-2.7262,-2.7262,-2.7262,-2.7262,-2.7262,-2.7262,-2.7262,-2.7262,-2.7262,-2.7262,-2.7262,-2.7262,-2.7262,-2.7262,-2.7262,-2.7262,-2.7262,-2.7262,-2.7262,-2.7262,-2.7262,-2.7262,-2.7262,-2.7262,-2.7262,-2.7272,-2.7469,-2.7893,-2.8369,-2.8628,-2.8618,-2.8618,-2.839,-2.7935,-2.7489,-2.7262,-2.7262,-2.7262,-2.7262,-2.7262,-2.7262,-2.7262,0.0,0.0,-2.5549,-2.52,0.0,-2.5031,-2.4786,-2.4615,-2.454,-2.454,-2.454,-2.454,-2.454,-2.454,-2.4498,-2.4343,-2.4447,-2.4488,0.0,-2.4447,-2.454,-2.454,-2.454,-2.454,0.0,0.0,-2.454,-2.454,-2.454,-2.4612,-2.4767,-2.5068,-2.5378,-2.5678,-2.6258,-2.6641,-2.6806,-2.7107,-2.7262,-2.7262,-2.7262,-2.7262,-2.7262,-2.7262,-2.7262,-2.7262,-2.7262,-2.7262,-2.7262,-2.7262,-2.7262,-2.7262,-2.7262,-2.7262,-2.7262,-2.7262,-2.7262,-2.7262,-2.7262,-2.7262,-2.7262,-2.7262,-2.7262,-2.7262,-2.7262,-2.7262,-2.7262,-2.7262,-2.7262,-2.7262,-2.7262,-2.7262,-2.7262,-2.7262,-2.7262,-2.7262,-2.7262,-2.7262,-2.7262,-2.7262,-2.7262,-2.7262,-2.7262,-2.7262,-2.7262,-2.7262,-2.7262,-2.7262,-2.7262,-2.7262,-2.7262,-2.7262,-2.7262,-2.7262,-2.7262,-2.7262,-2.7324,-2.7479,-2.8193,-2.8473,-2.8173,-2.8452,-2.839,-2.7935,-2.7489,-2.7262,-2.7262,-2.7262,-2.7262,-2.7262,-2.7262,-2.7262,-2.5738,-2.5822,0.0,-2.5464,-2.538,0.0,-2.5031,-2.4871,-2.4786,-2.4786,-2.4786,-2.4786,-2.4786,-2.47,-2.4615,-2.4615,-2.454,-2.454,0.0,-2.454,-2.454,-2.454,-2.454,-2.454,-2.454,-2.454,-2.454,-2.454,-2.454,-2.454,-2.454,-2.483,-2.5068,-2.5223,-2.5937,-2.6403,-2.6568,-2.7034,-2.7262,-2.7262,-2.7262,-2.7262,-2.7262,-2.7262,-2.7262,-2.7262,-2.7262,-2.7262,-2.7262,-2.7262,-2.7262,-2.7262,-2.7357,-2.7452,-2.7452,-2.7357,-2.7262,-2.7262,-2.7262,-2.7262,-2.7262,-2.7262,-2.7262,-2.7357,-2.7347,-2.7357,-2.7357,-2.7536,-2.7441,-2.7452,-2.7452,-2.7452,-2.7536,-2.7441,-2.7441,-2.7536,-2.7441,-2.7452,-2.7357,-2.7357,-2.7262,-2.7262,-2.7262,-2.7262,-2.7262,-2.7262,-2.7262,-2.7262,-2.7262,-2.7262,-2.7262,-2.7262,-2.7262,-2.7262,-2.7262,-2.7262,-2.7262,-2.7262,-2.811,-2.8483,-2.8183,-2.8452,-2.8556,-2.8421,-2.7655,-2.7334,-2.7489,-2.7334,-2.7262,-2.7262,-2.7262,-2.7262]},{"header":{"parameterUnit":"m.s-1","parameterCategory":1,"la1":30.6,"la2":29.2853,"lo1":-89.7004,"lo2":-87.6739,"dy":0.0162,"dx":0.0183,"nx":112,"ny":82,"refTime":"2023-08-02T00:00:00:Z","depth":0,"parameterNumber":3,"parameterNumberName":"V-component_of_WINDS"},"data":[0.0,0.0,0.0,0.0,0.0,0.0,0.0,0.0,0.0,0.0,0.0,0.0,0.0,0.0,0.0,0.0,0.0,0.0,0.0,0.0,0.0,0.0,0.0,0.0,0.0,0.0,0.0,0.0,0.0,0.0,0.0,0.0,0.0,0.0,0.0,0.0,0.0,0.0,0.0,0.0,0.0,0.0,0.0,0.0,0.0,0.0,0.0,0.0,0.0,0.0,0.0,0.0,0.0,0.0,0.0,0.0,0.0,0.0,0.0,0.0,0.0,0.0,0.0,0.0,0.0,0.0,0.0,0.0,0.0,0.0,0.0,0.0,0.0,0.0,0.0,0.0,0.0,0.0,0.0,0.0,0.0,0.0,0.0,0.0,0.0,0.0,0.0,0.0,0.0,0.0,-3.2916,-3.2916,-3.2916,-3.2916,-3.2916,-3.2916,-3.2916,-3.2916,0.0,0.0,0.0,0.0,0.0,0.0,0.0,0.0,0.0,0.0,0.0,0.0,0.0,0.0,0.0,0.0,0.0,0.0,0.0,0.0,0.0,0.0,0.0,0.0,0.0,0.0,0.0,0.0,0.0,0.0,0.0,0.0,0.0,0.0,0.0,0.0,0.0,0.0,0.0,0.0,0.0,0.0,0.0,0.0,0.0,0.0,0.0,0.0,0.0,0.0,0.0,0.0,0.0,0.0,0.0,0.0,0.0,0.0,0.0,0.0,0.0,0.0,0.0,0.0,0.0,0.0,0.0,0.0,0.0,0.0,0.0,0.0,0.0,0.0,0.0,0.0,0.0,0.0,0.0,0.0,0.0,0.0,0.0,0.0,0.0,0.0,0.0,0.0,0.0,0.0,0.0,0.0,0.0,0.0,0.0,0.0,0.0,0.0,0.0,0.0,0.0,0.0,0.0,0.0,-3.2916,-3.2916,-3.2916,-3.2916,-3.2916,-3.2916,-3.2916,-3.2916,0.0,0.0,0.0,0.0,0.0,0.0,0.0,0.0,0.0,0.0,0.0,0.0,0.0,0.0,0.0,0.0,0.0,0.0,0.0,0.0,0.0,0.0,0.0,0.0,0.0,0.0,0.0,0.0,0.0,0.0,0.0,0.0,0.0,0.0,0.0,0.0,0.0,0.0,0.0,0.0,0.0,0.0,0.0,0.0,0.0,0.0,0.0,0.0,0.0,0.0,0.0,0.0,0.0,0.0,0.0,0.0,0.0,0.0,0.0,0.0,0.0,0.0,0.0,0.0,0.0,0.0,0.0,0.0,0.0,0.0,0.0,0.0,0.0,0.0,0.0,0.0,0.0,0.0,0.0,0.0,0.0,0.0,0.0,0.0,0.0,0.0,0.0,0.0,0.0,0.0,0.0,0.0,0.0,0.0,0.0,0.0,0.0,0.0,0.0,0.0,0.0,0.0,0.0,-3.2916,-3.2916,-3.2916,-3.2916,-3.2916,-3.2916,-3.2916,-3.2916,-3.2916,-3.2916,0.0,0.0,0.0,0.0,0.0,0.0,0.0,0.0,0.0,0.0,0.0,0.0,0.0,0.0,0.0,0.0,0.0,0.0,0.0,0.0,0.0,0.0,0.0,0.0,0.0,0.0,0.0,0.0,0.0,0.0,0.0,0.0,0.0,0.0,0.0,0.0,0.0,0.0,0.0,0.0,0.0,0.0,0.0,0.0,0.0,0.0,0.0,0.0,0.0,0.0,0.0,0.0,0.0,0.0,0.0,0.0,0.0,0.0,0.0,0.0,0.0,0.0,0.0,0.0,0.0,0.0,0.0,0.0,0.0,0.0,0.0,0.0,0.0,0.0,0.0,0.0,0.0,0.0,0.0,0.0,0.0,0.0,0.0,0.0,0.0,0.0,0.0,0.0,0.0,0.0,0.0,0.0,0.0,0.0,0.0,0.0,0.0,0.0,0.0,0.0,0.0,0.0,-3.2916,-3.2916,-3.2916,-3.2916,-3.2916,-3.2916,-3.2916,-3.2916,-3.2916,-3.2916,0.0,0.0,0.0,0.0,0.0,0.0,0.0,0.0,0.0,0.0,0.0,0.0,0.0,0.0,0.0,0.0,0.0,0.0,0.0,0.0,0.0,0.0,0.0,0.0,0.0,0.0,0.0,0.0,0.0,0.0,0.0,0.0,0.0,0.0,0.0,0.0,0.0,0.0,0.0,0.0,0.0,0.0,0.0,0.0,0.0,0.0,0.0,0.0,0.0,0.0,0.0,0.0,0.0,0.0,0.0,0.0,0.0,0.0,0.0,0.0,0.0,0.0,0.0,0.0,0.0,0.0,0.0,0.0,0.0,0.0,0.0,0.0,0.0,0.0,0.0,0.0,0.0,0.0,0.0,0.0,0.0,0.0,0.0,0.0,0.0,0.0,0.0,0.0,0.0,0.0,0.0,0.0,0.0,0.0,0.0,0.0,0.0,0.0,0.0,0.0,0.0,0.0,-3.2916,-3.2916,-3.2916,-3.2916,-3.2916,-3.2916,-3.2916,-3.2916,-3.2916,-3.2916,0.0,0.0,0.0,0.0,0.0,0.0,0.0,0.0,0.0,0.0,0.0,0.0,0.0,0.0,0.0,0.0,0.0,0.0,0.0,0.0,0.0,0.0,0.0,0.0,0.0,0.0,0.0,0.0,0.0,0.0,0.0,0.0,0.0,0.0,0.0,0.0,0.0,0.0,0.0,0.0,0.0,0.0,0.0,0.0,0.0,0.0,0.0,0.0,0.0,0.0,0.0,0.0,0.0,0.0,0.0,0.0,0.0,0.0,0.0,0.0,0.0,0.0,0.0,0.0,0.0,0.0,0.0,0.0,0.0,0.0,0.0,0.0,0.0,0.0,0.0,0.0,0.0,0.0,0.0,0.0,0.0,0.0,0.0,0.0,0.0,0.0,0.0,0.0,0.0,0.0,0.0,0.0,0.0,0.0,0.0,0.0,0.0,0.0,0.0,0.0,0.0,0.0,-3.2916,-3.2916,-3.2916,-3.2916,-3.2916,-3.2916,-3.2916,-3.2916,-3.2916,0.0,0.0,0.0,0.0,0.0,0.0,0.0,0.0,0.0,0.0,0.0,0.0,0.0,0.0,0.0,0.0,0.0,0.0,0.0,0.0,0.0,0.0,0.0,0.0,0.0,0.0,0.0,0.0,0.0,0.0,0.0,0.0,0.0,0.0,0.0,0.0,0.0,0.0,0.0,0.0,0.0,0.0,0.0,0.0,0.0,0.0,0.0,0.0,0.0,0.0,0.0,0.0,0.0,0.0,0.0,0.0,0.0,0.0,0.0,0.0,0.0,0.0,0.0,0.0,0.0,0.0,0.0,0.0,0.0,0.0,0.0,0.0,0.0,0.0,0.0,0.0,0.0,0.0,0.0,0.0,0.0,0.0,0.0,0.0,0.0,0.0,0.0,0.0,0.0,0.0,0.0,0.0,0.0,0.0,0.0,0.0,0.0,0.0,0.0,0.0,0.0,0.0,-3.2979,-3.2916,-3.2916,-3.2916,-3.2916,-3.2916,-3.2916,-3.2916,-3.2916,-3.2916,0.0,0.0,0.0,0.0,0.0,0.0,0.0,0.0,0.0,0.0,0.0,0.0,0.0,0.0,0.0,0.0,0.0,0.0,0.0,0.0,0.0,0.0,0.0,0.0,0.0,0.0,0.0,0.0,0.0,0.0,0.0,0.0,0.0,0.0,0.0,0.0,0.0,0.0,0.0,0.0,0.0,0.0,0.0,0.0,0.0,0.0,0.0,0.0,0.0,0.0,0.0,0.0,0.0,0.0,0.0,0.0,0.0,0.0,0.0,0.0,0.0,0.0,0.0,0.0,0.0,0.0,0.0,0.0,0.0,0.0,0.0,0.0,0.0,0.0,0.0,0.0,0.0,0.0,0.0,0.0,0.0,0.0,0.0,0.0,0.0,0.0,0.0,0.0,0.0,0.0,0.0,0.0,0.0,0.0,0.0,0.0,0.0,0.0,0.0,0.0,0.0,0.0,-3.2916,-3.2916,-3.2916,-3.2916,-3.2916,-3.2916,-3.2916,-3.2916,-3.2916,0.0,0.0,0.0,0.0,0.0,0.0,0.0,0.0,0.0,0.0,0.0,0.0,0.0,0.0,0.0,0.0,0.0,0.0,0.0,0.0,0.0,0.0,0.0,0.0,0.0,0.0,0.0,0.0,0.0,0.0,0.0,0.0,0.0,0.0,0.0,0.0,0.0,0.0,0.0,0.0,0.0,0.0,0.0,0.0,0.0,0.0,0.0,0.0,0.0,0.0,0.0,0.0,0.0,0.0,0.0,0.0,0.0,0.0,0.0,0.0,0.0,0.0,0.0,0.0,0.0,0.0,0.0,0.0,0.0,0.0,0.0,0.0,0.0,0.0,0.0,0.0,0.0,0.0,0.0,0.0,0.0,0.0,0.0,0.0,0.0,0.0,0.0,0.0,0.0,0.0,0.0,0.0,0.0,0.0,0.0,0.0,0.0,0.0,0.0,0.0,0.0,0.0,0.0,-3.2979,-3.2916,-3.2916,-3.2916,-3.2916,-3.2916,-3.2916,-3.2916,-3.2916,-3.2916,0.0,0.0,0.0,0.0,0.0,0.0,0.0,0.0,0.0,0.0,0.0,0.0,0.0,0.0,0.0,0.0,0.0,0.0,0.0,0.0,0.0,0.0,0.0,0.0,0.0,0.0,0.0,0.0,0.0,0.0,0.0,0.0,0.0,0.0,0.0,0.0,0.0,0.0,0.0,0.0,0.0,0.0,0.0,0.0,0.0,0.0,0.0,0.0,0.0,0.0,0.0,0.0,0.0,0.0,0.0,0.0,0.0,0.0,0.0,0.0,0.0,0.0,0.0,0.0,0.0,0.0,0.0,0.0,0.0,0.0,0.0,0.0,0.0,0.0,0.0,0.0,0.0,0.0,0.0,0.0,0.0,0.0,0.0,0.0,0.0,0.0,0.0,0.0,0.0,0.0,0.0,0.0,0.0,0.0,0.0,0.0,0.0,0.0,0.0,0.0,0.0,0.0,-3.2948,-3.3202,-3.3366,-3.3366,-3.3633,-3.3812,-3.3812,-3.3812,-3.3687,-3.3384,0.0,0.0,0.0,0.0,0.0,0.0,0.0,0.0,0.0,0.0,0.0,0.0,0.0,0.0,0.0,0.0,0.0,0.0,0.0,0.0,0.0,0.0,0.0,0.0,0.0,0.0,0.0,0.0,0.0,0.0,0.0,0.0,0.0,0.0,0.0,0.0,0.0,0.0,0.0,0.0,0.0,0.0,0.0,0.0,0.0,0.0,0.0,0.0,0.0,0.0,0.0,0.0,0.0,0.0,0.0,0.0,0.0,0.0,0.0,0.0,0.0,0.0,0.0,0.0,0.0,0.0,0.0,0.0,0.0,0.0,0.0,0.0,0.0,0.0,0.0,0.0,0.0,0.0,0.0,0.0,0.0,0.0,0.0,0.0,0.0,0.0,0.0,0.0,0.0,0.0,0.0,0.0,0.0,0.0,0.0,0.0,0.0,0.0,0.0,0.0,0.0,0.0,-3.313,-3.374,-3.4204,-3.4204,-3.4811,-3.5204,-3.5204,-3.5204,-3.4918,-3.4258,0.0,0.0,0.0,0.0,0.0,0.0,0.0,0.0,0.0,0.0,0.0,0.0,0.0,0.0,0.0,0.0,0.0,0.0,0.0,0.0,0.0,0.0,0.0,0.0,0.0,0.0,0.0,0.0,0.0,0.0,0.0,0.0,0.0,0.0,0.0,0.0,0.0,0.0,0.0,0.0,0.0,0.0,0.0,0.0,0.0,0.0,0.0,0.0,0.0,0.0,0.0,0.0,0.0,0.0,0.0,0.0,0.0,0.0,0.0,0.0,-3.4908,-3.4908,0.0,0.0,0.0,0.0,0.0,0.0,0.0,0.0,0.0,0.0,0.0,0.0,0.0,0.0,0.0,0.0,0.0,0.0,0.0,0.0,0.0,0.0,0.0,0.0,0.0,0.0,0.0,0.0,0.0,0.0,0.0,0.0,0.0,0.0,0.0,0.0,0.0,0.0,0.0,0.0,-3.4704,-3.4865,-3.4972,-3.4972,-3.5114,-3.5204,-3.5204,-3.5204,-3.5132,-3.4989,-3.453,0.0,0.0,0.0,0.0,0.0,0.0,0.0,0.0,0.0,0.0,0.0,0.0,0.0,0.0,0.0,0.0,0.0,0.0,0.0,0.0,0.0,0.0,0.0,0.0,0.0,0.0,0.0,0.0,0.0,0.0,0.0,0.0,0.0,0.0,0.0,0.0,0.0,0.0,0.0,0.0,0.0,0.0,0.0,0.0,0.0,0.0,0.0,0.0,0.0,0.0,0.0,0.0,0.0,0.0,0.0,0.0,0.0,0.0,0.0,-3.5249,-3.4908,0.0,0.0,0.0,0.0,0.0,0.0,0.0,0.0,0.0,0.0,0.0,0.0,0.0,0.0,0.0,0.0,0.0,0.0,0.0,0.0,0.0,0.0,0.0,0.0,0.0,0.0,0.0,0.0,0.0,0.0,0.0,0.0,0.0,0.0,0.0,0.0,0.0,0.0,0.0,0.0,-3.5204,-3.5543,-3.5792,-3.5792,-3.6114,-3.6345,-3.6345,-3.6345,-3.6185,-3.581,-3.5754,0.0,0.0,0.0,0.0,0.0,0.0,0.0,0.0,0.0,0.0,0.0,0.0,0.0,0.0,0.0,0.0,0.0,0.0,0.0,0.0,0.0,0.0,0.0,0.0,0.0,0.0,0.0,0.0,0.0,0.0,0.0,0.0,0.0,0.0,0.0,0.0,0.0,0.0,0.0,0.0,0.0,0.0,0.0,0.0,0.0,0.0,0.0,0.0,0.0,0.0,0.0,0.0,0.0,-3.5344,-3.5704,-3.6405,-3.6557,-3.6992,-3.7561,-3.631,-3.5609,-3.5325,-3.5286,0.0,0.0,0.0,0.0,0.0,0.0,0.0,0.0,0.0,0.0,0.0,0.0,0.0,0.0,0.0,0.0,0.0,0.0,0.0,0.0,0.0,0.0,-3.5147,-3.5128,-3.5399,-3.5336,-3.399,0.0,0.0,0.0,0.0,0.0,0.0,0.0,0.0,0.0,0.0,0.0,-3.5828,-3.6417,-3.6863,-3.7006,-3.7594,-3.7933,-3.7809,-3.7791,-3.747,-3.6649,-3.7184,-3.6916,0.0,0.0,0.0,0.0,0.0,0.0,0.0,0.0,0.0,0.0,0.0,0.0,0.0,0.0,0.0,0.0,0.0,0.0,0.0,0.0,0.0,0.0,0.0,0.0,0.0,0.0,0.0,0.0,0.0,0.0,0.0,0.0,-3.1115,-3.1557,0.0,0.0,0.0,0.0,0.0,0.0,0.0,0.0,0.0,0.0,0.0,0.0,0.0,-3.559,-3.7049,-3.6367,-3.6367,-3.7068,-3.7068,-3.7125,-3.7258,-3.8016,-3.8435,-3.8546,-3.9039,0.0,-3.7048,-3.6817,0.0,0.0,0.0,0.0,0.0,0.0,0.0,0.0,0.0,0.0,0.0,0.0,0.0,0.0,0.0,0.0,0.0,0.0,0.0,0.0,0.0,0.0,-3.5346,-3.5211,-3.5216,-3.5218,-3.5021,-3.5277,-3.5447,-3.5217,-3.5274,-3.5331,0.0,0.0,0.0,0.0,0.0,0.0,-3.8237,-3.8433,-3.8736,-3.9379,-3.9539,-3.9343,-3.8701,-3.8647,-3.829,-3.747,-3.7152,-3.7061,-3.7273,-3.6938,0.0,0.0,0.0,0.0,0.0,0.0,0.0,0.0,0.0,0.0,0.0,0.0,0.0,0.0,0.0,0.0,0.0,0.0,0.0,0.0,0.0,0.0,0.0,0.0,0.0,0.0,0.0,0.0,0.0,-3.0809,-3.169,-3.2145,-3.2841,-3.343,0.0,0.0,0.0,0.0,0.0,0.0,0.0,0.0,0.0,-3.686,-3.6812,-3.7209,-3.8111,-3.8224,-3.8698,-3.9532,-3.9532,-3.9652,-3.9929,-4.0306,-4.0403,-4.0244,-4.06,-4.0338,-3.9589,-3.8721,-3.8418,-3.847,0.0,0.0,0.0,0.0,-3.7061,-3.6696,-3.6453,-3.6399,-3.6426,-3.6426,0.0,0.0,0.0,0.0,0.0,0.0,0.0,-3.7288,-3.7084,-3.7362,-3.7587,-3.7327,-3.7613,-3.7935,-3.7862,-3.8008,-3.7719,-3.627,-3.6737,-3.7345,-3.7363,-3.7935,0.0,0.0,0.0,-3.9022,-3.9379,-3.9432,-3.9557,-3.9878,-3.9914,-3.9789,-3.9468,-3.9432,-3.9272,-3.8915,-3.8318,-3.8067,-3.8272,-3.766,-3.7374,0.0,0.0,0.0,0.0,0.0,0.0,0.0,0.0,0.0,0.0,0.0,0.0,0.0,0.0,0.0,0.0,0.0,0.0,0.0,0.0,0.0,0.0,0.0,0.0,0.0,0.0,0.0,0.0,-3.1011,-3.1769,-3.2199,-3.3099,-3.378,0.0,0.0,0.0,0.0,0.0,0.0,-3.6703,-3.7181,-3.7687,-3.8231,-3.8616,-3.9024,-3.9387,-4.0079,-4.0839,-4.1713,-4.1798,-4.2124,-4.2686,-4.2787,-4.2698,-4.2486,-4.26,-4.2662,-4.2514,-4.0598,-3.985,-3.9877,-3.9555,-3.9127,-3.8646,-3.8522,-3.8106,-3.7618,-3.7386,-3.7363,-3.7459,-3.7459,-3.7308,-3.7312,-3.8162,0.0,0.0,0.0,0.0,-3.88,-3.8597,-3.9082,-3.9588,-3.9515,-3.996,-4.0444,-4.0485,-4.0699,-4.0128,-3.7755,-3.8272,-3.9075,-3.9171,-3.956,0.0,-4.0027,-3.9971,-3.9985,-4.0199,-4.0217,-4.0307,-4.0503,-4.0521,-4.0431,-4.0235,-4.0217,-4.0128,-3.9932,-3.9397,-3.9093,-3.9093,-3.8326,-3.7898,-3.7898,0.0,0.0,0.0,0.0,0.0,0.0,0.0,0.0,0.0,0.0,0.0,0.0,0.0,0.0,0.0,0.0,0.0,0.0,0.0,0.0,0.0,0.0,0.0,0.0,0.0,0.0,0.0,0.0,0.0,-3.1359,-3.1861,0.0,0.0,0.0,0.0,-3.6307,-3.6745,-3.7286,-3.8056,-3.8436,-3.9192,-4.0497,-4.0565,-4.0809,-4.1245,-4.1613,-4.2243,-4.3115,-4.3428,-4.4004,-4.4757,-4.5208,-4.5406,-4.5405,-4.5866,-4.6071,-4.5797,-4.2341,-4.1064,-4.126,-4.102,-4.1014,-4.1174,-4.0914,-4.0818,-4.0716,-4.0397,-4.031,-4.031,-4.031,-4.0274,-4.0274,-4.0346,-4.0382,0.0,0.0,-4.0092,-4.0092,-3.9998,-4.0034,-4.0249,-4.102,-4.1235,-4.1429,-4.2042,-4.2787,-4.2626,-4.0199,-3.9807,-3.986,-3.986,0.0,-3.9914,-3.9914,-3.9914,-4.0199,-4.0949,-4.1038,-4.1324,-4.2091,-4.2162,-4.1859,-4.1092,-4.1038,-4.0717,-3.9968,-3.9878,-3.986,-3.986,-3.9147,-3.8754,-3.8754,-3.7987,0.0,0.0,0.0,0.0,0.0,0.0,0.0,0.0,0.0,0.0,0.0,0.0,0.0,0.0,0.0,0.0,0.0,0.0,0.0,0.0,0.0,0.0,0.0,0.0,0.0,0.0,0.0,0.0,-3.356,-3.3981,0.0,-3.5257,-3.6073,-3.6794,-3.7355,-3.8431,-3.929,-3.9771,-4.0244,-4.1049,-4.2254,-4.2844,-4.3446,-4.409,-4.4767,-4.5151,-4.519,-4.5312,-4.5401,-4.5491,-4.5656,-4.5635,-4.5406,-4.5571,-4.5662,-4.557,-4.4308,-4.3907,-4.4066,-4.3761,-4.3377,-4.296,-4.2774,-4.2466,-4.2159,-4.1843,-4.1841,-4.1991,-4.1991,-4.2354,-4.2828,-4.2828,-4.319,-4.355,-4.3511,-4.3451,-4.343,-4.3451,-4.3412,-4.3422,-4.3611,-4.3683,-4.3714,-4.3775,-4.4018,-4.3964,-4.3108,-4.2929,-4.2929,-4.2929,-4.2929,-4.2929,-4.2929,-4.2929,-4.3036,-4.3322,-4.3358,-4.3465,-4.375,-4.3358,-4.2965,-4.268,-4.2162,-4.1752,-4.1448,-4.0967,-4.0681,-4.0681,-3.9932,-3.9521,-3.9521,-3.9236,-3.8881,0.0,0.0,0.0,0.0,0.0,0.0,0.0,0.0,0.0,0.0,0.0,0.0,0.0,0.0,0.0,0.0,0.0,0.0,0.0,0.0,0.0,0.0,0.0,0.0,0.0,0.0,-3.378,-3.5104,-3.5745,-3.6297,-3.6833,-3.7776,-3.8493,-3.8748,-4.008,-4.11,-4.1566,-4.2326,-4.3144,-4.4053,-4.4782,-4.5245,-4.5496,-4.6296,-4.6693,-4.6588,-4.6672,-4.6752,-4.6818,-4.6709,-4.6541,-4.6288,-4.6186,-4.6106,-4.6106,-4.6106,-4.615,-4.6179,-4.5432,-4.4827,-4.4375,-4.4214,-4.3971,-4.3658,-4.3462,-4.348,-4.3635,-4.3635,-4.4017,-4.4494,-4.4494,-4.4874,-4.5309,-4.5269,-4.5206,-4.5124,-4.5188,-4.5165,-4.5173,-4.5342,-4.5396,-4.5426,-4.5462,-4.5454,-4.541,-4.541,-4.4981,-4.4624,-4.4624,-4.4624,-4.4624,-4.4624,-4.4624,-4.4624,-4.4624,-4.4624,-4.4624,-4.4624,-4.4178,-4.3875,-4.3875,-4.3375,-4.2965,-4.2715,-4.2198,-4.1787,-4.152,-4.0735,-4.0307,-4.0307,-4.0057,-3.9685,-3.926,0.0,0.0,0.0,0.0,0.0,0.0,0.0,0.0,0.0,0.0,0.0,0.0,0.0,0.0,0.0,0.0,0.0,0.0,0.0,0.0,0.0,0.0,0.0,-3.4643,-3.4661,-3.4969,-3.5783,-3.6827,-3.7692,-3.8207,-3.9203,-4.0002,-4.0564,-4.1645,-4.2656,-4.3442,-4.4506,-4.5352,-4.5828,-4.6237,-4.6116,-4.5403,-4.61,-4.6681,-4.7131,-4.7457,-4.802,-4.8746,-4.8421,-4.8267,-4.8267,-4.7866,-4.7717,-4.7717,-4.7717,-4.7615,-4.7349,-4.5938,-4.5381,-4.5381,-4.5363,-4.5363,-4.5363,-4.5381,-4.5381,-4.5381,-4.5381,-4.5381,-4.5363,-4.5381,-4.5381,-4.5341,-4.5296,-4.5173,-4.5072,-4.5072,-4.5072,-4.527,-4.6043,-4.6223,-4.6396,-4.7062,-4.7088,-4.6998,-4.6998,-4.5749,-4.4678,-4.4678,-4.4678,-4.4678,-4.4678,-4.4678,0.0,-4.4678,-4.4678,-4.4678,-4.4678,-4.466,-4.466,-4.466,-4.4624,-4.4321,-4.359,-4.3536,-4.3179,-4.2394,-4.1591,-4.1163,-4.1145,-4.036,-3.995,-3.995,0.0,0.0,0.0,0.0,0.0,0.0,0.0,0.0,0.0,0.0,0.0,0.0,0.0,0.0,0.0,0.0,0.0,0.0,0.0,0.0,0.0,0.0,-3.5476,-3.5476,-3.5965,-3.6635,-3.7431,-3.8295,-3.9127,-3.9804,-4.1161,-4.2177,-4.2554,-4.3761,-4.4654,-4.5132,-4.5459,-4.5956,-4.6709,-4.7087,-4.733,-4.7474,-4.7665,-4.7717,-4.752,-4.7624,-4.7773,-4.7992,-4.7929,-4.7847,-4.7866,-4.7741,-4.7717,-4.7717,-4.7717,-4.7657,-4.7621,-4.7066,-4.6904,-4.6886,-4.6801,-4.6758,-4.6758,-4.6843,-4.6904,-4.6904,-4.6904,-4.6946,-4.7006,-4.6904,-4.6904,-4.6862,-4.6776,-4.6776,-4.6819,-4.6819,-4.6819,-4.683,-4.696,-4.6988,-4.6972,-4.7053,-4.7043,-4.6998,-4.6998,-4.6641,-4.6337,-4.6337,-4.6337,-4.6337,-4.6337,-4.6337,-4.6337,-4.6337,-4.6337,-4.6337,-4.6337,-4.582,-4.5481,-4.5481,-4.4946,-4.4517,-4.4321,-4.4321,-4.4214,-4.3982,-4.3251,-4.2573,-4.1966,-4.1296,-4.0942,0.0,0.0,0.0,0.0,0.0,0.0,0.0,0.0,0.0,0.0,0.0,0.0,0.0,0.0,0.0,0.0,0.0,0.0,0.0,0.0,0.0,0.0,-3.6816,-3.7033,-3.7685,-3.7612,-3.7902,-3.9025,-4.0166,-4.1017,-4.147,-4.2955,-4.4011,-4.42,-4.5173,-4.5918,-4.6077,-4.6387,-4.6846,-4.732,-4.7721,-4.7942,-4.805,-4.8229,-4.809,-4.7717,-4.7717,-4.7717,-4.7717,-4.7717,-4.7717,-4.7717,-4.7717,-4.7717,-4.7717,-4.7717,-4.7717,0.0,0.0,0.0,0.0,0.0,-4.7363,-4.7407,-4.7407,-4.7407,-4.7407,-4.7407,-4.7468,-4.7511,-4.745,-4.7407,-4.7407,-4.7302,-4.7338,-4.7381,-4.7381,-4.7381,-4.7363,-4.7276,-4.7249,-4.7205,-4.7088,-4.7043,-4.6998,-4.6998,-4.6998,0.0,-4.6998,-4.6998,-4.6998,-4.6998,-4.6998,-4.6998,-4.6998,-4.6998,-4.6998,-4.6998,-4.6569,-4.6302,-4.6302,-4.5873,0.0,0.0,0.0,-4.4963,-4.4624,-4.4196,0.0,0.0,0.0,-4.2226,-4.2226,-4.1403,0.0,0.0,-4.0021,-3.9703,0.0,0.0,0.0,0.0,0.0,0.0,0.0,0.0,0.0,0.0,0.0,0.0,0.0,0.0,0.0,0.0,-3.8445,-3.9007,-4.0564,-3.9586,-3.9224,-4.0619,-4.2194,-4.3154,-4.3154,-4.453,-4.5436,-4.5436,-4.6178,-4.6649,-4.6649,0.0,0.0,0.0,0.0,-4.805,-4.7699,-4.805,-4.8087,-4.7844,-4.7844,-4.788,-4.7971,-4.7971,-4.7971,-4.7971,-4.7971,-4.7971,-4.7971,-4.7971,-4.7916,-4.7802,-4.7753,-4.7717,-4.7657,-4.7554,-4.7511,-4.7468,-4.7363,0.0,0.0,-4.7302,-4.7302,-4.732,-4.7276,-4.7276,-4.7276,-4.7276,-4.7249,-4.7196,-4.7196,-4.7249,-4.7276,-4.7223,-4.7249,-4.7232,-4.7178,-4.7088,-4.6998,-4.6998,-4.6998,-4.6998,-4.6998,-4.6998,-4.6998,-4.6998,-4.6998,-4.6998,-4.6998,-4.6998,-4.6998,-4.6998,0.0,0.0,-4.6998,-4.6998,-4.6694,-4.598,-4.5945,-4.557,-4.4785,-4.4749,-4.4714,-4.4624,-4.3982,-4.3643,-4.3643,-4.2912,-4.2555,-4.2519,-4.0931,-4.0221,0.0,0.0,0.0,0.0,0.0,0.0,0.0,0.0,0.0,0.0,0.0,0.0,0.0,0.0,0.0,-3.9877,-4.0022,-4.0546,-4.2212,-4.2176,-4.2085,-4.2393,-4.386,-4.4838,-4.4838,-4.5707,-4.6269,-4.6269,-4.7011,-4.7482,-4.7482,-4.7627,-4.7717,-4.7717,-4.7783,-4.7783,-4.7717,-4.7783,-4.8109,-4.8677,0.0,0.0,-4.9637,-4.9637,-4.9637,-4.9637,-4.9637,-4.9637,-4.9637,-4.9637,-4.9195,-4.8457,-4.791,-4.7717,-4.7657,-4.7554,-4.7511,-4.7468,-4.7363,-4.7302,-4.7302,-4.7302,-4.7302,-4.7276,-4.7223,-4.7223,0.0,-4.707,-4.7133,-4.7196,-4.7196,-4.7223,-4.7223,-4.7196,-4.7133,-4.707,-4.7043,-4.7043,-4.6998,-4.6998,-4.6998,-4.6998,-4.6998,-4.6998,-4.6998,-4.6998,-4.6998,-4.6998,-4.6998,-4.6998,-4.6998,-4.6998,-4.6998,-4.6998,-4.6998,-4.6998,-4.6926,-4.6766,-4.6766,-4.6409,-4.5606,-4.557,-4.5267,-4.4624,-4.4482,-4.441,-4.441,-4.425,-4.4178,-4.4125,-4.2555,-4.1823,0.0,0.0,0.0,0.0,0.0,0.0,0.0,0.0,0.0,0.0,0.0,-3.8484,0.0,0.0,-4.0257,-4.1506,-4.1668,-4.221,-4.3878,-4.444,-4.4548,-4.415,-4.5164,-4.5906,-4.5906,-4.6631,-4.7102,-4.7102,-4.7482,-4.7717,-4.7717,-4.7717,-4.7717,-4.7717,-4.8098,-4.8315,-4.8315,-4.8695,-4.9094,-4.9492,-4.9492,-4.9709,-5.009,-5.009,-5.009,-5.009,-5.009,-5.009,-5.0071,-5.0045,-4.9658,-4.9172,-4.882,-4.8215,-4.7511,-4.7399,-4.7381,-4.7363,-4.7294,-4.7276,-4.7302,-4.7302,-4.7302,-4.7276,-4.7223,-4.7223,-4.7295,-4.7507,-4.766,-4.7841,-4.8143,-4.8314,-4.8314,-4.8268,-4.825,-4.8143,-4.7704,-4.7586,-4.7461,-4.7069,-4.6998,-4.6998,-4.6998,-4.6998,-4.6998,-4.6998,-4.6998,-4.6998,-4.6998,-4.6998,-4.6998,-4.6998,-4.6998,-4.6998,-4.6998,-4.6998,-4.6998,-4.6998,-4.6998,-4.6819,-4.6409,-4.6391,-4.6212,-4.582,-4.541,-4.5213,-4.5213,-4.4821,-4.4624,-4.4589,-4.3822,-4.3507,0.0,0.0,0.0,0.0,0.0,0.0,0.0,0.0,-3.8487,-3.9372,-3.9481,-3.9698,-4.0528,-4.0836,-4.1415,-4.2862,-4.3224,-4.3878,-4.5327,-4.6087,-4.6323,-4.5816,-4.6341,-4.6739,-4.6739,-4.7319,-4.7717,-4.7717,-4.7717,-4.7717,-4.7717,-4.7717,-4.7772,-4.7935,-4.8568,-4.9003,-4.9148,-4.9764,-5.0162,-5.0325,-5.0325,-5.0397,-5.056,-5.056,-5.056,-5.0516,-5.0498,-5.0498,-5.0516,-5.0362,-5.0135,-4.9944,-4.9898,-4.8954,-4.7698,-4.7671,-4.7671,-4.7743,-4.7626,-4.7653,-4.768,-4.768,-4.768,-4.768,-4.7626,-4.7671,-4.7779,-4.8258,-4.8465,-4.8637,-4.9156,-4.9383,-4.943,-4.9317,-4.9365,-4.9252,-4.8579,-4.8389,-4.8211,-4.7568,-4.7319,-4.7212,-4.7212,-4.7087,-4.6998,-4.6998,-4.6998,-4.6998,-4.6998,-4.6998,-4.6998,-4.6998,-4.6998,-4.6998,-4.6998,-4.6998,-4.6998,-4.6998,-4.6998,-4.6998,-4.6998,-4.6998,-4.6998,-4.6998,-4.6355,-4.6034,-4.6034,-4.5392,-4.5071,-4.5071,-4.5071,-4.4953,-3.5042,-3.5955,-3.69,-3.7026,-3.7414,-3.79,0.0,0.0,-3.9247,-3.9892,-4.0184,-4.0547,-4.1173,-4.1988,-4.2858,-4.3743,-4.4502,-4.526,-4.625,-4.645,-4.6739,-4.7373,-4.7518,-4.7572,-4.7572,-4.7663,-4.7717,-4.7717,-4.7717,-4.7717,-4.7717,-4.7717,-4.8043,-4.8749,-4.8858,-4.9238,-4.9945,-5.0053,-5.0452,-5.1158,-5.1158,-5.1538,-5.2226,-5.2226,-5.218,-5.204,-5.1928,-5.1928,-5.204,-5.1802,-5.1323,-5.0753,-5.0515,-4.9883,-4.9097,-4.9209,-4.9274,-4.9256,-4.9115,-4.9049,-4.9049,-4.9049,-4.9049,-4.9049,-4.9067,-4.9049,-4.9067,-4.9174,-4.9192,-4.921,-4.9299,-4.9317,-4.9317,-4.9317,-4.9317,-4.9299,-4.921,-4.9192,-4.9156,-4.9067,-4.8514,-4.805,-4.805,-4.7461,-4.6998,-4.6998,-4.6998,-4.6998,-4.6998,-4.6998,-4.6998,-4.6998,-4.6998,-4.6998,-4.6998,-4.6998,-4.6998,-4.6998,-4.6998,-4.6998,-4.6998,-4.6998,-4.6998,-4.6998,-4.6908,-4.6855,-4.6855,-4.6766,-4.673,-4.673,-4.673,-4.6025,-3.5545,-3.6156,-3.6806,-3.7845,-3.8272,-3.8617,-3.9365,-3.9657,-3.9947,-4.0699,-4.1276,-4.1929,-4.276,-4.3574,-4.4447,0.0,-4.5717,-4.6205,-4.7,-4.715,-4.7277,-4.756,-4.7657,-4.7717,-4.7717,-4.7717,-4.7717,-4.7717,-4.7717,-4.7717,-4.7717,-4.8152,-4.8568,-4.8912,-4.9818,-5.0452,-5.0796,-5.1249,-5.1665,-5.1991,-5.1991,-5.2172,-5.2498,-5.2498,-5.2452,-5.2311,-5.2264,-5.215,-5.2071,-5.1974,-5.171,-5.1339,-5.124,-5.0994,-5.0584,-4.9722,-4.943,-4.9478,-4.943,-4.9478,-4.9507,-4.9507,-4.9507,-4.9507,-4.943,-4.946,-4.9614,-4.9936,-5.0061,-5.0217,-5.0584,-5.0709,-5.0709,-5.0709,-5.0709,-5.0584,-5.0102,-5.0013,-4.987,-4.9406,-4.9049,-4.8835,-4.8835,-4.8193,-4.7676,-4.7676,-4.7283,-4.6998,-4.6998,-4.6998,-4.6998,-4.6998,-4.6998,-4.6998,-4.6998,-4.6998,-4.6998,-4.6998,-4.6998,-4.6998,-4.6998,-4.6998,-4.6998,-4.6998,-4.6998,-4.6998,-4.6998,-4.6998,-4.6998,-4.6998,-4.6998,-4.6731,-3.6112,-3.6566,-3.6965,-3.8368,-3.8827,-3.9233,-4.017,-4.0387,-4.073,-4.1755,-4.2436,-4.314,-4.3994,-4.4849,-4.5634,-4.6331,-4.6602,-4.6946,-4.7482,-4.7615,-4.7615,-4.7554,-4.7657,-4.7717,-4.7717,-4.7717,-4.7717,-4.7717,-4.7717,-4.7808,-4.8025,-4.8586,-4.9112,-4.9564,-5.0687,-5.1393,-5.1629,-5.2208,-5.2498,-5.2498,-5.2498,-5.2498,-5.2498,-5.2452,-5.2358,-5.2216,-5.2216,-5.2102,-5.1907,-5.1907,-5.1858,-5.174,-5.169,-5.169,-5.1547,-5.0388,-5.0026,-5.0092,-5.0092,-5.017,-5.0264,-5.0264,-5.0264,-5.0217,-5.014,-5.017,-5.0342,-5.0722,-5.0883,-5.1075,-5.1597,-5.169,-5.169,-5.169,-5.169,-5.153,-5.0959,-5.0834,-5.0673,-5.0084,-4.9799,-4.9638,-4.9638,-4.8996,-4.8496,-4.8496,-4.7818,-4.7229,-4.7015,-4.6998,-4.6998,-4.6998,-4.6998,-4.6998,-4.6998,-4.6998,-4.6998,-4.6998,-4.6998,-4.6998,-4.6998,-4.6998,-4.6998,-4.6998,-4.6998,-4.6998,-4.6998,-4.6998,-4.6998,-4.6998,-4.6998,-4.7043,-3.6887,-3.7401,-3.7848,-3.8384,-3.8842,-3.9535,-4.0798,-4.1153,-4.1697,-4.315,-4.3614,-4.393,-4.4489,-4.5515,-4.6242,-4.623,-4.6902,-4.7536,-4.7657,-4.7615,-4.7554,-4.7657,-4.7717,-4.7717,0.0,-4.7717,-4.7717,-4.7717,-4.7717,-4.8043,-4.884,-4.8894,-4.9619,-5.1176,-5.1267,-5.1665,-5.2462,-5.248,-5.2498,-5.2498,-5.2498,-5.2498,-5.2498,-5.2358,-5.2168,-5.1907,-5.2054,-5.2054,-5.1907,-5.1907,-5.1907,-5.1858,-5.174,-5.169,-5.169,-5.1637,-5.1619,-5.1619,-5.1619,-5.1619,-5.1619,-5.1619,-5.1619,-5.1619,-5.1619,-5.1619,-5.1619,-5.1654,-5.1654,-5.1654,-5.169,-5.169,-5.169,-5.169,-5.169,-5.169,-5.1672,-5.1654,-5.1654,-5.1619,-5.0994,-5.0459,-5.0459,-4.9817,-4.9281,-4.9281,-4.8639,-4.7854,-4.7087,-4.6998,-4.6998,-4.6998,-4.6998,-4.6998,-4.6998,-4.6998,-4.6998,-4.6998,-4.6998,-4.6998,-4.6998,-4.6998,-4.6998,-4.6998,-4.6998,-4.6998,-4.6998,-4.6998,-4.6998,-4.6998,-4.6998,-4.6998,-3.7401,-3.7916,-3.8511,-3.9521,-4.0134,-4.0694,-4.1658,-4.2346,-4.29,-4.3411,-4.4364,-4.5237,-4.5592,-4.636,-4.7011,-4.7175,-4.7349,-4.7511,-4.7554,-4.7511,-4.7511,-4.7554,-4.7657,0.0,0.0,0.0,0.0,-4.7717,-4.7717,-4.8061,-4.8876,-4.942,-5.018,-5.1267,-5.181,-5.2226,-5.2498,-5.2498,-5.2498,-5.2498,-5.2405,-5.2358,-5.2358,-5.2311,-5.2216,-5.2054,-5.2102,-5.2005,-5.1907,-5.179,-5.1758,-5.174,-5.169,-5.169,-5.169,-5.169,-5.169,-5.169,-5.169,-5.169,-5.169,-5.169,-5.169,-5.169,-5.169,-5.169,-5.169,-5.169,-5.169,-5.169,-5.169,-5.169,-5.169,-5.169,-5.169,-5.169,-5.169,-5.169,-5.169,-5.169,-5.1476,-5.1298,-5.1298,-5.0637,-4.9924,-4.9388,-4.8675,-4.789,-4.7087,-4.6998,-4.6998,-4.6998,-4.6998,-4.6998,-4.6998,-4.6998,-4.6998,-4.6998,-4.6998,-4.6998,-4.6998,-4.6998,-4.6998,-4.6998,-4.6998,-4.6998,-4.6998,-4.6998,-4.6998,-4.6998,-4.6998,-4.6998,-3.8402,-3.8696,-3.9132,-4.0455,-4.0883,-4.1283,-4.2454,-4.3126,-4.3679,-4.4214,-4.5124,-4.5936,-4.6416,-4.6908,-4.7338,-4.7486,-4.7468,-4.7468,-4.7511,-4.7511,-4.7511,-4.7572,-4.7657,-4.7717,0.0,0.0,0.0,-4.7717,-4.7989,-4.8496,-4.9293,-5.009,-5.0886,-5.1701,-5.2226,-5.2498,-5.2498,-5.2498,-5.2498,-5.2498,-5.2358,-5.2311,-5.2311,-5.2358,-5.2246,-5.2084,-5.215,-5.2054,-5.1907,-5.1808,-5.174,-5.169,-5.169,-5.169,-5.169,-5.169,-5.169,-5.169,-5.169,-5.169,-5.169,-5.169,-5.169,-5.169,-5.169,-5.169,-5.169,-5.169,-5.169,-5.169,-5.169,-5.169,-5.169,-5.169,-5.169,-5.169,-5.169,-5.169,-5.169,-5.169,-5.169,-5.169,-5.169,-5.1262,-5.0655,-4.987,-4.9335,-4.8621,-4.7551,-4.7158,-4.6998,-4.6998,-4.6998,-4.6998,-4.6998,-4.6998,-4.6998,-4.6998,-4.6998,-4.6998,-4.6998,-4.6998,-4.6998,-4.6998,-4.6998,-4.6998,-4.6998,-4.6998,-4.6998,-4.6998,-4.6998,-4.6998,-3.9615,-3.9644,-3.9644,-4.1047,-4.1111,-4.1291,-4.3048,-4.3494,-4.3982,-4.5499,-4.5838,-4.6105,0.0,0.0,-4.7196,-4.7178,-4.7249,-4.7363,-4.7468,-4.7511,-4.7554,0.0,0.0,0.0,0.0,0.0,0.0,-4.7699,0.0,-4.9257,-5.0053,-5.085,-5.1665,-5.2462,-5.2498,-5.2498,-5.2498,-5.2498,-5.2498,-5.2498,-5.2358,-5.2264,-5.2264,-5.2405,-5.234,-5.2102,-5.2246,-5.2168,-5.1907,-5.1907,-5.1808,-5.169,-5.169,-5.169,-5.169,-5.169,-5.169,-5.169,-5.169,-5.169,-5.169,-5.169,-5.169,-5.169,-5.169,-5.169,-5.169,-5.169,-5.169,-5.169,-5.169,-5.169,-5.169,-5.169,-5.169,-5.169,-5.169,-5.169,-5.169,-5.169,-5.169,-5.169,-5.169,-5.169,-5.144,-5.0691,-5.053,-4.9942,-4.8371,-4.7515,-4.7033,-4.6998,-4.6998,-4.6998,-4.6998,-4.6998,-4.6998,-4.6998,-4.6998,-4.6998,-4.6998,-4.6998,-4.6998,-4.6998,-4.6998,-4.6998,-4.6998,-4.6998,-4.6998,-4.6998,-4.6998,-4.6998,-3.9268,-3.9644,-3.9919,-4.0285,-4.0861,-4.1593,-4.2669,-4.3633,-4.4607,-4.5606,-4.6284,-4.6793,0.0,0.0,0.0,-4.7294,-4.7249,0.0,-4.732,-4.7363,0.0,-4.7554,0.0,-4.7657,-4.7554,-4.7657,0.0,0.0,-4.8399,-4.9257,-5.0053,-5.085,-5.1665,-5.2462,-5.2498,-5.2452,-5.2358,-5.2246,-5.2198,-5.2198,-5.215,-5.2102,-5.2023,-5.215,-5.2132,-5.2102,-5.215,-5.2102,-5.2054,-5.1956,-5.1808,-5.169,-5.169,-5.169,-5.169,-5.169,-5.169,-5.169,-5.169,-5.169,-5.169,-5.169,-5.169,-5.169,-5.169,-5.169,-5.169,-5.169,-5.169,-5.169,-5.169,-5.169,-5.169,-5.169,-5.169,-5.169,-5.169,-5.169,-5.169,-5.169,-5.169,-5.169,-5.169,-5.169,-5.1619,-5.1422,-5.0887,-4.9942,-4.8371,-4.7997,-4.764,-4.7051,-4.6998,-4.6998,-4.6998,-4.6998,-4.6998,-4.6998,-4.6998,-4.6998,-4.6998,-4.6998,-4.6998,-4.6998,-4.6998,-4.6998,-4.6998,-4.6998,-4.6998,-4.6998,-4.6998,-4.6998,-3.9356,-3.9817,-4.0053,-4.0302,-4.0784,-4.1499,-4.2596,-4.3581,-4.4599,-4.5733,-4.6255,-4.6614,-4.7017,-4.6802,-4.6722,0.0,0.0,0.0,-4.7249,-4.732,-4.7407,0.0,-4.7572,0.0,-4.7615,-4.7615,-4.7572,0.0,-4.8681,-4.9619,-5.0071,-5.1194,-5.2027,-5.248,-5.2498,-5.2452,-5.2311,-5.2102,-5.2054,-5.2102,-5.2054,-5.2005,-5.2005,-5.2054,-5.2102,-5.2102,-5.2054,-5.2005,-5.2005,-5.1858,-5.1758,-5.169,-5.169,-5.169,-5.169,-5.169,-5.169,-5.169,-5.169,-5.169,-5.169,-5.169,-5.169,-5.169,-5.169,-5.169,-5.169,-5.169,-5.169,-5.169,-5.169,-5.169,-5.169,-5.169,-5.169,-5.169,-5.169,-5.169,-5.169,-5.169,-5.169,-5.169,-5.169,-5.169,-5.169,-5.169,-5.1315,-5.0584,-4.9353,-4.8889,-4.8389,-4.7604,-4.7515,-4.7372,-4.7015,-4.6998,-4.6998,-4.6998,-4.6998,-4.6998,-4.6998,-4.6998,-4.6998,-4.6998,-4.6998,-4.6998,-4.6998,-4.6998,-4.6998,-4.6998,-4.6998,-4.6998,-3.9547,-3.9952,-4.0103,-4.0611,-4.0802,-4.1259,-4.2642,-4.3393,-4.4161,-4.5686,-4.5722,-4.5766,-4.6551,-4.6105,-4.5909,-4.6712,0.0,-4.7071,-4.7178,-4.7338,-4.7511,-4.7468,-4.7468,-4.7554,-4.7615,-4.7554,-4.745,-4.745,-4.9079,-5.0027,-5.0071,-5.1611,-5.2452,-5.2452,-5.2452,-5.2405,-5.2264,-5.2005,-5.1956,-5.2054,-5.1956,-5.1956,-5.2054,-5.2054,-5.2054,-5.2054,-5.1956,-5.1907,-5.1907,-5.174,-5.169,-5.169,-5.169,-5.169,-5.169,-5.169,-5.169,-5.169,-5.169,-5.169,-5.169,-5.169,-5.169,-5.169,-5.169,-5.169,-5.169,-5.169,-5.169,-5.169,-5.169,-5.169,-5.169,-5.169,-5.169,-5.169,-5.169,-5.169,-5.169,-5.169,-5.169,-5.169,-5.169,-5.169,-5.169,-5.169,-5.169,-5.144,-5.0744,-4.9977,-4.9174,-4.8407,-4.8247,-4.7907,-4.7212,-4.7051,-4.6998,-4.6998,-4.6998,-4.6998,-4.6998,-4.6998,-4.6998,-4.6998,-4.6998,-4.6998,-4.6998,-4.6998,-4.6998,-4.6998,-4.6998,-4.6998,-3.9049,-3.9679,-4.0003,-4.0103,-4.0767,-4.1628,-4.2538,-4.284,0.0,0.0,-4.4536,-4.4392,-4.4911,-4.491,-4.5088,-4.5873,-4.6105,-4.6382,-4.6954,-4.7294,-4.7425,0.0,-4.7381,-4.7468,-4.7363,-4.7363,0.0,0.0,-4.8839,-4.9848,-4.992,-5.1473,-5.2311,-5.2311,-5.2246,-5.2102,-5.1956,-5.1808,-5.174,-5.179,-5.1858,-5.1858,-5.179,-5.1907,-5.1956,-5.1907,-5.1907,0.0,-5.1907,-5.1858,-5.1808,-5.169,-5.169,-5.169,-5.169,-5.169,-5.169,-5.169,-5.169,-5.169,-5.169,-5.169,-5.169,-5.169,-5.169,-5.169,-5.169,-5.169,-5.169,-5.169,-5.169,-5.169,-5.169,-5.169,-5.169,-5.169,-5.169,-5.169,-5.169,-5.169,-5.169,-5.169,-5.169,-5.169,-5.169,-5.169,-5.169,-5.1637,-5.1512,-5.0798,-4.9995,-4.9192,-4.855,-4.8122,-4.7979,-4.7372,-4.6998,-4.6998,-4.6998,-4.6998,-4.6998,-4.6998,-4.6998,-4.6998,-4.6998,-4.6998,-4.6998,-4.6998,-4.6998,-4.6998,-4.6998,-4.6998,-3.8515,-3.9547,-4.0351,-4.0053,-4.0577,-4.1319,-4.2102,0.0,0.0,0.0,-4.3935,-4.3882,-4.4492,-4.4303,0.0,-4.5624,-4.5846,-4.6132,-4.6873,-4.7249,-4.7338,-4.7241,-4.7294,-4.7407,-4.7407,-4.7338,-4.7232,-4.732,-4.8794,-4.9739,-4.9875,-5.1427,-5.2264,-5.2198,-5.2054,-5.1956,-5.1907,-5.1758,-5.169,-5.169,-5.1758,-5.174,-5.169,-5.1758,-5.1808,-5.1808,-5.1808,-5.1808,-5.1808,-5.1808,-5.174,-5.169,-5.169,-5.169,-5.169,-5.169,-5.169,-5.169,-5.169,-5.169,-5.169,-5.169,-5.169,-5.169,-5.169,-5.169,-5.169,-5.169,-5.169,-5.169,-5.169,-5.169,-5.169,-5.169,-5.169,-5.169,-5.169,-5.169,-5.169,-5.169,-5.169,-5.169,-5.169,-5.169,-5.169,-5.169,-5.169,-5.169,-5.169,-5.1351,-5.0816,-5.0031,-4.9603,-4.9228,-4.8817,-4.805,-4.7604,-4.7604,-4.7212,-4.6998,-4.6998,-4.6998,-4.6998,-4.6998,-4.6998,-4.6998,-4.6998,-4.6998,-4.6998,-4.6998,-4.6998,-4.6998,-3.805,-3.9277,-4.034,-4.0218,-4.0546,-4.1145,-4.1846,-4.2219,0.0,-4.3328,-4.328,-4.3284,-4.3975,-4.3643,-4.3697,0.0,-4.5489,-4.5882,-4.6623,-4.708,-4.7294,0.0,-4.7249,0.0,-4.7425,-4.7267,0.0,-4.7276,-4.8749,-4.9855,-5.0335,-5.1625,-5.2216,-5.2054,-5.1956,-5.1858,-5.1858,-5.174,-5.169,-5.169,-5.169,-5.169,-5.169,-5.169,-5.169,-5.169,-5.169,-5.169,-5.169,-5.169,-5.169,-5.169,-5.169,-5.169,-5.169,-5.169,-5.169,-5.169,-5.169,-5.169,-5.169,-5.169,-5.169,-5.169,-5.169,-5.169,-5.169,-5.169,-5.169,-5.169,-5.169,-5.169,-5.169,-5.169,-5.169,-5.169,-5.169,-5.169,-5.169,-5.169,-5.169,-5.169,-5.169,-5.169,-5.169,-5.169,-5.169,-5.169,-5.169,-5.169,-5.1458,-5.0834,-5.0602,-5.0245,-4.962,-4.8871,-4.8425,-4.8425,-4.7836,-4.7408,-4.7247,-4.7247,-4.7158,-4.6998,-4.6998,-4.6998,-4.6998,-4.6998,-4.6998,-4.6998,-4.6998,-4.6998,-3.7831,-3.864,-3.9336,-4.0422,-4.1065,-4.1596,-4.215,0.0,-4.1745,-4.2341,-4.2015,-4.185,-4.24,-4.2448,-4.2697,-4.3572,0.0,-4.5251,-4.5846,-4.6845,-4.7381,-4.7043,0.0,0.0,-4.7241,-4.7088,-4.7088,-4.7178,-4.8657,-5.0228,-5.1796,-5.2173,-5.2168,-5.1907,-5.1907,-5.1858,-5.169,-5.169,-5.169,-5.169,-5.169,-5.169,-5.169,-5.169,-5.169,-5.169,-5.169,-5.169,0.0,-5.169,-5.169,-5.169,-5.169,-5.169,-5.169,-5.169,-5.169,-5.169,-5.169,-5.169,-5.169,-5.169,-5.169,-5.169,-5.169,-5.169,-5.169,-5.169,-5.169,-5.169,-5.169,-5.169,-5.169,-5.169,-5.169,-5.169,-5.169,-5.169,-5.169,-5.169,-5.169,-5.169,-5.169,-5.169,-5.169,-5.169,-5.169,-5.169,-5.169,-5.169,-5.1672,-5.1601,-5.0941,-5.0477,-5.0405,-4.9674,-4.921,-4.921,-4.9139,-4.88,-4.8104,-4.8068,-4.7729,-4.6998,-4.6998,-4.6998,-4.6998,-4.6998,-4.6998,-4.6998,-4.6998,-4.6998,-3.7131,-3.7953,-3.8917,-3.9829,-4.0478,-4.0929,-4.1296,0.0,-4.1959,-4.1856,-4.1917,-4.2044,-4.2287,-4.2287,-4.2555,0.0,0.0,0.0,-4.5695,-4.6677,-4.7223,-4.7043,-4.7133,0.0,0.0,0.0,-4.7418,-4.8504,-4.9149,-5.0253,-5.1866,-5.2005,-5.1956,-5.1808,-5.1808,-5.174,-5.169,-5.169,-5.169,-5.169,-5.169,-5.169,-5.169,-5.169,-5.169,-5.169,-5.169,-5.169,0.0,-5.169,-5.169,-5.169,-5.169,-5.169,-5.169,-5.169,-5.169,-5.169,-5.169,-5.169,-5.169,-5.169,-5.169,-5.169,-5.169,-5.169,-5.169,-5.169,-5.169,-5.169,-5.169,-5.169,-5.169,-5.169,-5.169,-5.169,-5.169,-5.169,-5.169,-5.169,-5.169,-5.169,-5.169,-5.169,-5.169,-5.169,-5.169,-5.169,-5.169,-5.169,-5.169,-5.169,-5.1405,-5.1226,-5.1226,-5.0477,-5.0031,-5.0031,-4.9585,-4.9192,-4.8871,-4.8871,-4.871,-4.8389,-4.8389,-4.8389,-4.8389,-4.8389,-4.8389,-4.8389,-4.8389,-4.8139,-3.6608,-3.7308,-3.8236,-3.9219,-3.994,-4.0447,0.0,0.0,-4.2145,-4.1622,-4.1917,-4.2287,-4.2287,-4.2287,-4.2483,0.0,0.0,-4.4864,-4.5374,-4.6445,-4.7133,-4.7043,0.0,-4.7133,0.0,-4.7043,-4.7686,-4.9334,-4.9442,-5.0158,-5.1768,-5.1858,-5.1808,-5.169,-5.169,-5.169,-5.169,-5.169,-5.169,-5.169,-5.169,-5.169,-5.169,-5.169,-5.169,-5.169,-5.169,-5.169,0.0,-5.169,-5.169,-5.169,-5.169,-5.169,-5.169,-5.169,-5.169,-5.169,-5.169,-5.169,-5.169,-5.169,-5.169,-5.169,-5.169,-5.169,-5.169,-5.169,-5.169,-5.169,-5.169,-5.169,-5.169,-5.169,-5.169,-5.169,-5.169,-5.169,-5.169,-5.169,-5.169,-5.169,-5.169,-5.169,-5.169,-5.169,-5.169,-5.169,-5.169,-5.169,-5.169,-5.169,-5.169,-5.169,-5.169,-5.1173,-5.0852,-5.0852,-5.0334,-4.9906,-4.9674,-4.9674,-4.9549,-4.9317,-4.9317,-4.9317,-4.9317,-4.9317,-4.9317,-4.9317,-4.9317,-4.9032,-3.638,-3.6705,-3.7121,-3.8789,-3.9831,-4.0393,0.0,0.0,-4.2145,-4.1622,-4.1917,-4.2287,-4.2287,-4.2287,-4.2287,-4.2305,0.0,0.0,-4.4624,-4.6087,-4.7133,0.0,0.0,-4.6998,-4.6998,-4.6998,-4.764,-4.921,-4.9317,0.0,-5.1619,-5.169,-5.169,-5.169,-5.169,-5.169,-5.169,-5.169,-5.169,-5.169,-5.169,-5.169,-5.169,-5.169,-5.169,-5.169,-5.169,-5.169,0.0,-5.169,-5.169,-5.169,-5.169,-5.169,-5.169,-5.169,-5.169,-5.169,-5.169,-5.169,-5.169,-5.169,-5.169,-5.169,-5.169,-5.169,-5.169,-5.169,-5.169,-5.169,-5.169,-5.169,-5.169,-5.169,-5.169,-5.169,-5.169,-5.169,-5.169,-5.169,-5.169,-5.169,-5.169,-5.169,-5.169,-5.169,-5.169,-5.169,-5.169,-5.169,-5.169,-5.169,-5.169,-5.169,-5.169,-5.169,-5.1672,-5.1672,-5.1672,-5.1315,-5.053,-5.0495,-5.012,-4.9335,-4.9317,-4.9317,-4.9317,-4.9317,-4.9317,-4.9317,-4.9317,-4.9317,-3.5739,-3.5926,-3.6276,-3.7586,-3.8771,-3.9676,-3.9815,0.0,-4.2145,-4.1622,-4.1917,-4.2287,-4.2287,-4.2287,-4.2287,-4.2287,-4.365,0.0,0.0,0.0,0.0,-4.6998,-4.6998,-4.6998,0.0,0.0,-4.7426,-4.8461,-4.9032,-4.9781,-5.0816,-5.1405,-5.169,-5.169,-5.169,-5.169,-5.169,-5.169,-5.169,-5.169,-5.169,-5.169,-5.169,-5.169,-5.169,-5.169,-5.169,-5.169,-5.169,-5.169,-5.169,-5.169,-5.169,-5.169,-5.169,-5.169,-5.169,-5.169,-5.169,-5.169,-5.169,-5.169,-5.169,-5.169,-5.169,-5.169,-5.169,-5.169,-5.169,-5.169,-5.169,-5.169,-5.169,-5.169,-5.169,-5.169,-5.169,-5.169,-5.169,-5.169,-5.169,-5.169,-5.169,-5.169,-5.169,-5.169,-5.169,-5.169,-5.169,-5.169,-5.169,-5.169,-5.1315,-5.1245,-5.164,-5.169,-5.169,-5.169,-5.169,-5.1583,-5.1333,-5.1315,-5.1191,-5.0959,-5.0941,-5.0941,-5.0941,-5.0941,-5.0941,-5.0923,-5.0388,-4.9906,0.0,-3.5616,-3.5824,-3.6646,-3.8111,0.0,0.0,-4.0822,-4.2145,-4.1622,-4.1917,-4.2287,-4.2287,-4.2287,-4.2287,-4.2287,-4.359,0.0,0.0,0.0,0.0,-4.6998,0.0,0.0,0.0,-4.6998,-4.7319,-4.8168,-4.8621,-4.9371,-5.0441,-5.0976,-5.1387,-5.169,-5.169,-5.169,-5.169,-5.169,-5.169,-5.169,-5.169,-5.169,-5.169,-5.169,-5.169,-5.169,-5.169,-5.169,0.0,-5.169,-5.169,-5.169,-5.169,-5.169,-5.169,-5.169,-5.169,-5.169,-5.169,-5.169,-5.169,-5.169,-5.169,-5.169,-5.169,-5.169,-5.169,-5.169,-5.169,-5.169,-5.169,-5.169,-5.169,-5.169,-5.169,-5.169,-5.169,-5.169,-5.169,-5.169,-5.169,-5.169,-5.169,-5.169,-5.169,-5.169,-5.169,-5.169,-5.169,-5.169,-5.164,-5.1367,-5.1017,-5.0857,-5.0982,-5.0982,-5.0982,-5.0982,-5.0982,-5.0982,-5.0982,-5.0982,-5.0982,-5.0982,-5.0982,-5.0982,-5.0982,-5.0982,-5.0982,-5.0982,-5.0488,-5.003,0.0,-3.5616,-3.5705,-3.6156,-3.7781,0.0,-3.8728,-4.0549,0.0,-4.1666,-4.1941,-4.2287,-4.2287,-4.2287,-4.2287,-4.2287,-4.359,0.0,0.0,-4.5998,0.0,0.0,-4.6998,0.0,-4.6998,-4.6998,-4.7301,-4.8032,-4.8157,-4.8817,-5.0263,-5.0441,-5.0834,-5.1583,-5.1672,-5.169,-5.169,-5.169,-5.169,-5.169,-5.169,-5.169,-5.169,-5.169,-5.169,0.0,-5.169,-5.169,-5.169,-5.169,-5.169,-5.169,-5.169,-5.169,-5.169,-5.169,-5.169,-5.169,-5.169,-5.169,-5.169,-5.169,-5.169,-5.169,-5.169,-5.169,-5.169,-5.169,-5.169,-5.169,-5.169,-5.169,-5.169,-5.169,-5.169,-5.169,-5.169,-5.169,-5.169,-5.169,-5.169,-5.169,-5.169,-5.169,-5.169,-5.169,-5.164,-5.164,-5.164,-5.1571,-5.1349,-5.0803,-5.0694,-5.0439,-4.9821,-4.9763,-4.9804,-4.9804,-4.9804,-4.9804,-4.9804,-4.9804,-4.9804,-4.9804,-4.9804,-4.9804,-4.9804,-4.9804,-4.9804,-4.9804,-4.9804,-4.9746,-3.5453,0.0,-3.5841,-3.6783,-3.8181,-3.941,0.0,0.0,-4.2287,-4.2145,-4.2187,-4.2287,-4.2287,-4.2287,-4.2287,-4.2287,0.0,-4.4624,-4.4624,0.0,0.0,-4.6998,-4.6998,-4.6998,-4.6998,-4.6998,-4.7069,-4.7265,-4.7836,-4.8336,-4.871,-4.9852,-5.0602,-5.078,-5.1369,-5.169,-5.169,-5.169,-5.169,-5.169,-5.169,-5.169,-5.169,-5.169,-5.169,-5.169,-5.169,-5.169,-5.169,-5.169,-5.169,-5.169,-5.169,-5.169,-5.169,-5.169,-5.169,-5.169,-5.169,-5.169,-5.169,-5.169,-5.169,-5.169,-5.169,-5.169,-5.169,-5.169,-5.169,-5.169,-5.169,-5.169,-5.169,-5.169,-5.169,-5.169,-5.169,-5.169,-5.169,-5.169,-5.169,-5.169,-5.169,-5.169,-5.169,-5.169,-5.1315,-5.1035,-5.1035,-5.0532,-5.0163,-5.005,-4.9588,-4.9308,-4.911,-4.9512,-4.9804,-4.9804,-4.9804,-4.9804,-4.9804,-4.9804,-4.9804,-4.9804,-4.9804,-4.9804,-4.9804,-4.9804,-4.9804,-4.9804,-4.9804,-4.9571,-3.5688,-3.5732,-3.5847,-3.6802,-3.8148,-3.9421,-3.994,0.0,0.0,-4.2287,0.0,-4.2287,-4.2287,-4.2287,-4.2287,-4.2287,-4.359,0.0,0.0,0.0,-4.6998,-4.6998,-4.6998,-4.6998,0.0,-4.6998,-4.6998,-4.6998,-4.739,-4.78,-4.8157,-4.8978,-4.9603,-4.9942,-5.0727,-5.1333,-5.169,-5.169,-5.169,-5.169,-5.169,-5.169,-5.169,-5.169,-5.169,-5.169,-5.169,-5.169,-5.169,-5.169,-5.169,-5.169,-5.169,-5.169,-5.169,-5.169,-5.169,-5.169,-5.169,-5.169,-5.169,-5.169,-5.169,-5.169,-5.169,-5.169,-5.169,-5.169,-5.169,-5.169,-5.169,-5.169,-5.169,-5.169,-5.169,-5.169,-5.169,-5.169,-5.169,-5.169,-5.169,-5.169,-5.169,-5.169,-5.1589,-5.1315,-5.1035,-5.0694,-5.0366,-4.9993,-4.9688,-4.9411,-4.911,-4.8776,-4.8497,-4.8793,-4.8961,-4.8961,-4.8961,-4.8961,-4.8961,-4.8961,-4.8961,-4.8961,-4.8961,-4.8961,-4.8961,-4.8961,-4.8961,-4.8961,-4.8961,-4.8793,-3.5977,-3.6019,-3.6044,-3.6899,-3.8235,-3.948,-3.9901,0.0,0.0,0.0,0.0,0.0,0.0,-4.2287,0.0,0.0,0.0,0.0,-4.6783,-4.6998,-4.6998,-4.6998,-4.6998,0.0,-4.6998,-4.6998,-4.6998,-4.6998,-4.6998,-4.7283,-4.7961,-4.8104,-4.8478,-4.9121,-4.9906,-5.0637,-5.1333,-5.1583,-5.169,-5.169,-5.169,-5.169,-5.169,-5.169,-5.169,-5.169,0.0,0.0,-5.169,-5.169,-5.169,-5.169,-5.169,-5.169,-5.169,-5.169,-5.169,-5.169,-5.169,-5.169,-5.169,-5.169,-5.169,-5.169,-5.169,-5.169,-5.169,-5.169,-5.169,-5.169,-5.169,-5.169,-5.169,-5.169,-5.169,-5.169,-5.169,-5.169,-5.169,-5.169,-5.169,-5.169,-5.169,-5.164,-5.1418,-5.0874,-5.0622,-5.031,-4.9763,-4.9588,-4.9351,-4.8838,-4.8776,-4.856,-4.8049,-4.8001,-4.8001,-4.8001,-4.8001,-4.8001,-4.8001,-4.8001,-4.8001,-4.8001,-4.8001,-4.8001,-4.8001,-4.8001,-4.8001,-4.8001,-4.8001,-4.8001,-3.5977,-3.6655,-3.7387,-3.8554,-3.9312,-4.005,-4.1025,0.0,0.0,0.0,0.0,0.0,0.0,-4.2287,-4.2519,0.0,0.0,-4.5945,0.0,0.0,-4.6998,-4.6998,0.0,-4.6998,-4.6998,-4.6998,-4.6998,-4.6998,-4.6998,-4.7033,-4.7158,-4.7818,-4.8229,-4.8354,-4.9103,-4.9549,-4.9692,-5.103,-5.169,-5.169,-5.169,-5.169,-5.169,-5.169,-5.169,-5.169,0.0,-5.169,-5.169,-5.169,-5.169,-5.169,-5.169,-5.169,-5.169,-5.169,-5.169,-5.169,-5.169,-5.169,-5.169,-5.169,-5.169,-5.169,-5.169,-5.169,-5.169,-5.169,-5.169,-5.169,-5.169,-5.169,-5.169,-5.169,-5.169,-5.169,-5.169,-5.169,-5.169,-5.169,-5.169,-5.169,-5.169,-5.1263,-5.0928,-5.0803,-4.9896,-4.9127,-4.9067,-4.8623,-4.8227,-4.8179,-4.8115,-4.8115,-4.8001,-4.8001,-4.8001,-4.8001,-4.8001,-4.8001,-4.8001,-4.8001,-4.8001,-4.8001,-4.8001,-4.8001,-4.8001,-4.8001,-4.8001,-4.8001,-4.8001,-4.8001,-3.5977,-3.6612,-3.7428,-3.9165,-4.0077,-4.0722,-4.1358,-4.1899,0.0,0.0,0.0,0.0,0.0,0.0,-4.268,-4.3911,0.0,-4.6088,-4.6873,-4.6998,-4.6998,0.0,0.0,-4.6998,-4.6998,-4.6998,-4.6998,-4.6998,-4.6998,-4.6998,-4.6998,-4.7337,-4.7533,-4.7533,-4.8282,-4.871,-4.871,-4.9834,-5.0405,-5.0405,-5.0405,-5.0405,-5.0405,-5.0405,-5.0405,-5.0405,0.0,-5.0405,-5.0405,-5.0405,-5.0405,-5.0405,-5.0405,-5.0405,-5.0459,-5.0887,-5.1333,-5.169,-5.169,-5.169,-5.169,-5.169,-5.169,-5.169,-5.169,-5.169,-5.169,-5.169,-5.169,-5.169,-5.169,-5.169,-5.169,-5.169,-5.169,-5.169,-5.169,-5.169,-5.169,-5.169,-5.169,-5.1589,-5.1245,-5.0964,-5.0567,-4.9913,-4.9248,-4.8776,-4.845,-4.8163,-4.8001,-4.8001,-4.8001,-4.8001,-4.8001,-4.8001,-4.8001,-4.8001,-4.8001,-4.8001,-4.8001,-4.8001,-4.8001,-4.8001,-4.8001,-4.8001,-4.8001,-4.8001,-4.8001,-4.8001,-4.8001,-4.8001,-3.6182,-3.671,-3.7479,-3.9651,-4.0566,-4.1085,-4.1576,-4.2002,-4.2287,0.0,0.0,0.0,0.0,-4.259,0.0,-4.4678,-4.557,-4.6302,-4.6908,-4.6998,-4.6998,-4.6998,-4.6998,-4.6998,-4.6998,-4.6998,-4.6998,-4.6998,-4.6998,-4.6998,-4.6998,-4.6998,-4.6998,-4.6998,-4.7586,-4.7907,-4.7907,-4.8478,-4.896,-4.9317,-4.9317,-4.9317,-4.9317,-4.9317,-4.9317,-4.9317,-4.9317,-4.9317,-4.9317,-4.9317,-4.9317,-4.9317,-4.9317,-4.9317,-4.9424,-5.0209,-5.0887,-5.144,-5.1619,-5.169,-5.169,-5.169,-5.169,-5.169,-5.169,-5.169,-5.169,-5.169,-5.169,-5.169,-5.169,-5.169,-5.169,-5.169,-5.169,-5.169,-5.169,-5.169,-5.169,-5.169,-5.1589,-5.1367,-5.0857,-5.0567,-5.0028,-4.9067,-4.8776,-4.8497,-4.8049,-4.8001,-4.8001,-4.8001,-4.8001,-4.8001,-4.8001,-4.8001,-4.8001,-4.8001,-4.8001,-4.8001,-4.8001,-4.8001,-4.8001,-4.8001,-4.8001,-4.8001,-4.8001,-4.8001,-4.8001,-4.8001,-4.8001,-4.8001,-3.6877,-3.7507,-3.8259,-4.0447,-4.0713,-4.0775,-4.1967,-4.2287,0.0,-4.2287,0.0,0.0,0.0,-4.3465,-4.4732,-4.557,-4.6391,-4.6926,-4.698,0.0,-4.6998,-4.6998,-4.6998,-4.6998,-4.6998,-4.6998,-4.6998,-4.6998,-4.6998,-4.6998,-4.6998,-4.6998,-4.6998,-4.6998,-4.7051,-4.7087,-4.7087,-4.7122,-4.789,-4.9317,-4.9317,-4.9317,-4.9317,-4.9317,-4.9317,-4.9317,-4.9317,-4.9317,-4.9317,-4.9317,-4.9317,-4.9317,-4.9317,-4.9317,-4.9424,-5.0209,-5.0548,-5.0691,-5.144,-5.169,-5.169,-5.169,-5.169,-5.169,-5.169,-5.169,-5.169,-5.169,-5.169,-5.169,-5.169,-5.169,-5.169,-5.169,-5.169,-5.169,-5.169,-5.169,-5.169,-5.169,-5.1245,-5.0857,-5.082,-4.9838,-4.9006,-4.8883,-4.845,-4.8066,-4.8001,-4.8001,-4.8001,-4.8001,-4.8001,-4.8001,-4.8001,-4.8001,-4.8001,-4.8001,-4.8001,-4.8001,-4.8001,-4.8001,-4.8001,-4.8001,-4.8001,-4.8001,-4.8001,-4.8001,-4.8001,-4.8001,-4.8001,-4.8001,-3.7033,-3.7833,-3.8681,-4.0618,-4.1102,0.0,0.0,-4.2287,-4.2287,-4.2287,-4.2287,0.0,0.0,0.0,-4.4874,-4.5677,-4.648,-4.6998,-4.6998,-4.6998,-4.6998,-4.6998,-4.6998,-4.6998,-4.6998,-4.6998,-4.6998,-4.6998,-4.6998,-4.6998,-4.6998,-4.6998,-4.6998,-4.6998,-4.6998,-4.6998,-4.6998,-4.6998,-4.7283,-4.7872,-4.7872,-4.7872,-4.7872,-4.7872,-4.7872,-4.7872,-4.7872,-4.7872,-4.7872,-4.7872,-4.7872,-4.7872,-4.7872,-4.8175,-4.8639,-4.8942,-4.9353,-4.9888,-5.0673,-5.0959,-5.103,-5.153,-5.169,-5.169,-5.169,-5.169,-5.169,-5.169,-5.169,-5.169,-5.169,-5.169,-5.169,-5.169,-5.169,-5.169,-5.169,-5.169,-5.1589,-5.1193,-5.0982,-5.0567,-4.9722,-4.9248,-4.8776,-4.8386,-4.8179,-4.8001,-4.8001,-4.8001,-4.8001,-4.8001,-4.8001,-4.8001,-4.8001,-4.8001,-4.8001,-4.8001,-4.8001,-4.8001,-4.8001,-4.8001,-4.8001,-4.8001,-4.8001,-4.8001,-4.8001,-4.8001,-4.8001,-4.8001,-4.8001,-4.8001,-3.7325,-3.8006,-3.8732,-4.0753,0.0,0.0,-4.1959,-4.2187,-4.2287,-4.2287,-4.2483,-4.2912,-4.3714,0.0,0.0,0.0,-4.6641,-4.6998,-4.6998,-4.6998,-4.6998,-4.6998,-4.6998,-4.6998,-4.6998,-4.6998,-4.6998,-4.6998,-4.6998,-4.6934,-4.6749,-4.6888,-4.6934,-4.6731,-4.6749,-4.6842,-4.6998,-4.6842,-4.6842,-4.6998,-4.6998,-4.6998,-4.6998,-4.6998,-4.6998,-4.6998,-4.6998,-4.6998,-4.6998,-4.6998,-4.6998,-4.6998,-4.6998,-4.7319,-4.7836,-4.8086,-4.8514,-4.9067,-4.9852,-5.0298,-5.0602,-5.1137,-5.1476,-5.169,-5.169,-5.169,-5.169,-5.169,-5.169,-5.164,-5.147,-5.1589,-5.169,-5.169,-5.169,-5.169,-5.169,-5.1521,-5.1297,-5.0857,-5.0457,-4.9913,-4.9067,-4.8714,-4.8513,-4.8049,-4.8001,-4.8001,-4.8001,-4.8001,-4.8001,-4.8001,-4.8001,-4.8001,-4.8001,-4.8001,-4.8001,-4.8001,-4.8001,-4.8001,-4.8001,-4.8001,-4.8001,-4.8001,-4.8001,-4.8001,-4.8001,-4.8001,-4.8001,-4.8001,-4.8001,-4.8001,-3.7933,-3.8237,-3.844,0.0,0.0,0.0,-4.1472,-4.1899,-4.2287,-4.2287,-4.2947,-4.3732,-4.4482,-4.5267,0.0,-4.6855,-4.6998,-4.6998,-4.6998,-4.6998,-4.6998,-4.698,-4.6998,-4.6998,-4.698,-4.6998,-4.6998,-4.6998,-4.6998,-4.6731,-4.6235,-4.6684,-4.6731,-4.6186,-4.6186,-4.6447,-4.698,-4.6447,-4.6447,-4.698,-4.698,-4.6998,-4.6998,-4.6998,-4.6998,-4.6998,-4.6998,-4.6998,-4.6998,-4.6998,-4.6998,-4.6998,-4.6998,-4.6998,-4.7087,-4.7872,-4.8175,-4.8264,-4.9032,-4.9817,-5.0477,-5.0495,-5.103,-5.169,-5.169,-5.169,-5.169,-5.169,-5.169,-5.1521,-5.0982,-5.1245,-5.169,-5.169,-5.169,-5.169,-5.169,-5.1193,-5.0803,-5.0803,-4.978,-4.8883,-4.8883,-4.8386,-4.8001,-4.8001,-4.8001,-4.8001,-4.8001,-4.8001,-4.8001,-4.8001,-4.8001,-4.8001,-4.8001,-4.8001,-4.8001,-4.8001,-4.8001,-4.8001,-4.8001,-4.8001,-4.8001,-4.8001,-4.8001,-4.8001,-4.8001,-4.8001,-4.8001,-4.8001,-4.8001,-4.8001,-3.8427,-3.921,0.0,-4.1182,0.0,0.0,0.0,-4.1899,0.0,0.0,-4.2947,-4.3732,-4.4482,-4.5267,0.0,-4.6855,-4.6998,-4.6998,-4.6998,-4.6998,-4.6842,-4.6495,-4.6795,-4.6842,-4.6477,-4.6795,-4.6998,-4.6998,-4.6637,-4.6381,-4.6186,-4.5953,-4.5734,-4.558,-4.558,-4.5631,-4.5767,-4.5631,-4.5631,-4.5767,-4.5767,-4.62,-4.6998,-4.6998,-4.6998,-4.6998,-4.6998,-4.6998,-4.6998,-4.6998,-4.6998,-4.6998,-4.6998,-4.6998,-4.7015,-4.7265,-4.7354,-4.7461,-4.8247,-4.8675,-4.896,-4.9495,-5.0209,-5.0869,-5.0869,-5.1244,-5.169,-5.169,-5.1418,-5.1035,-5.0874,-5.0605,-5.0331,-5.0331,-5.0331,-5.0331,-5.0331,-5.022,-4.9953,-4.9546,-4.9188,-4.8776,-4.8339,-4.8115,-4.8001,-4.8001,-4.8001,-4.8001,-4.8001,-4.8001,-4.8001,-4.8001,-4.8001,-4.8001,-4.8001,-4.8001,-4.8001,-4.8001,-4.8001,-4.8001,-4.8001,-4.8001,-4.8001,-4.8001,-4.8001,-4.8001,-4.8001,-4.8001,-4.8001,-4.8001,-4.8001,-4.8001,-3.8529,-3.935,0.0,-4.0718,-4.1047,-4.1248,-4.1445,0.0,0.0,0.0,-4.3179,-4.4089,-4.4535,-4.5517,0.0,-4.6908,-4.6998,-4.6998,-4.6998,-4.6998,-4.6795,-4.6284,-4.6495,-4.6542,-4.6235,-4.6495,-4.6684,-4.6684,-4.6381,-4.602,-4.5563,-4.5372,-4.5197,-4.5001,-4.5001,-4.5108,-4.5303,-4.5108,-4.5108,-4.5303,-4.5303,-4.5665,-4.6346,-4.6572,-4.6684,-4.6684,-4.6888,-4.6998,-4.6998,-4.6998,-4.6998,-4.6998,-4.6998,-4.6998,-4.6998,-4.6998,-4.6998,-4.7051,-4.7551,-4.7907,-4.8247,-4.871,-4.9406,-5.0084,-5.0405,-5.0834,-5.123,-5.1329,-5.1088,-5.0694,-5.0159,-4.978,-4.9512,-4.9746,-4.9804,-4.9804,-4.9804,-4.9629,-4.9351,-4.8944,-4.8731,-4.845,-4.8049,-4.8001,-4.8001,-4.8001,-4.8001,-4.8001,-4.8001,-4.8001,-4.8001,-4.8001,-4.8001,-4.8001,-4.8001,-4.8001,-4.8001,-4.8001,-4.8001,-4.8001,-4.8001,-4.8001,-4.8001,-4.8001,-4.8001,-4.8001,-4.8001,-4.8001,-4.8001,-4.8001,-4.8001,-4.8001,-3.8469,-3.8988,0.0,-3.9834,-4.04,0.0,-4.1338,-4.1445,-4.1596,-4.2192,0.0,-4.4599,-4.4609,-4.5918,-4.6934,-4.6998,-4.6934,-4.6934,-4.698,-4.6934,-4.6731,-4.6186,-4.6137,-4.6087,-4.602,-4.607,-4.6137,-4.6137,-4.607,-4.5597,-4.4558,-4.4892,-4.4892,-4.4446,-4.439,-4.4652,-4.5144,-4.4652,-4.4652,-4.5144,-4.5144,-4.5144,-4.5144,-4.5802,-4.6137,-4.6137,-4.6684,-4.6934,-4.6934,-4.698,-4.6998,-4.6998,-4.6998,-4.6998,-4.6998,-4.6998,-4.6998,-4.6998,-4.6998,-4.7461,-4.8068,-4.8068,-4.8538,-4.9239,-5.0018,-5.0236,-5.0282,-5.0453,-5.0537,-5.0279,-4.9086,-4.8832,-4.8944,-4.9529,-4.9646,-4.9646,-4.9646,-4.9188,-4.8838,-4.8838,-4.8403,-4.8001,-4.8001,-4.8001,-4.8001,-4.8001,-4.8001,-4.8001,-4.8001,-4.8001,-4.8001,-4.8001,-4.8001,-4.8001,-4.8001,-4.8001,-4.8001,-4.8001,-4.8001,-4.8001,-4.8001,-4.8001,-4.8001,-4.8001,-4.8001,-4.8001,-4.8001,-4.8001,-4.8001,-4.8001,-4.8001,-4.8001,-3.902,-3.9496,0.0,0.0,-4.04,-4.0849,-4.0943,-4.0943,-4.1238,-4.2334,-4.3651,-4.4654,-4.4894,-4.5698,-4.6495,-4.6934,-4.6637,-4.6542,-4.6934,-4.6637,-4.6168,-4.558,-4.5477,-4.532,-4.4927,-4.5284,-4.5477,-4.5477,-4.5125,-4.4763,-4.4502,-4.4162,-4.3889,-4.3789,-4.3789,-4.3848,-4.3989,-4.3831,-4.3831,-4.3989,-4.3989,-4.3989,-4.3989,-4.5054,-4.5477,-4.5528,-4.6119,-4.6381,-4.6381,-4.6842,-4.6998,-4.6998,-4.6998,-4.6998,-4.6998,-4.6998,-4.6998,-4.6998,-4.6998,-4.7105,-4.7247,-4.7247,-4.7494,-4.7773,-4.795,-4.8153,-4.8309,-4.8358,-4.8397,-4.8379,-4.8098,-4.8123,-4.8227,-4.8339,-4.8403,-4.8403,-4.8403,-4.8292,-4.8163,-4.8163,-4.8115,-4.8001,-4.8001,-4.8001,-4.8001,-4.8001,-4.8001,-4.8001,-4.8001,-4.8001,-4.8001,-4.8001,-4.8001,-4.8001,-4.8001,-4.8001,-4.8001,-4.8001,-4.8001,-4.8001,-4.8001,-4.8001,-4.8001,-4.8001,-4.8001,-4.8001,-4.8001,-4.8001,-4.8001,-4.8001,-4.8001,-4.8001,-3.9179,0.0,0.0,-3.9679,0.0,-4.04,-4.04,-4.0611,-4.1009,-4.1733,-4.3133,-4.4314,-4.4395,-4.5414,-4.6186,-4.62,-4.6168,-4.6186,-4.62,-4.6168,-4.587,-4.5018,-4.491,-4.4801,-4.4502,-4.4746,-4.491,-4.491,-4.4652,-4.439,-4.4064,-4.3789,-4.3628,-4.3628,-4.3628,-4.3628,-4.3628,-4.3628,-4.3628,-4.3628,-4.3628,-4.3628,-4.3611,-4.4524,-4.5054,-4.5303,-4.5631,-4.5751,-4.5802,-4.6052,-4.6363,-4.659,-4.6315,-4.6363,-4.6637,-4.6637,-4.6637,-4.6637,-4.6637,-4.6637,-4.659,-4.6266,-4.6265,-4.6429,-4.6795,-4.6985,-4.7113,-4.7197,-4.7248,-4.7216,-4.6932,-4.7145,-4.7471,-4.7471,-4.7736,-4.8001,-4.8001,-4.8001,-4.8001,-4.8001,-4.8001,-4.8001,-4.8001,-4.8001,-4.8001,-4.8001,-4.8001,-4.8001,-4.8001,-4.8001,-4.8001,-4.8001,-4.8001,-4.8001,-4.8001,-4.8001,-4.8001,-4.8001,-4.8001,-4.8001,-4.8001,-4.8001,-4.8001,-4.8001,-4.8001,-4.8001,-4.8001,-4.8001,-4.8001,-4.8001,-4.8001,-4.8001,-3.9106,0.0,-3.9272,-3.9272,-3.9627,0.0,-3.9919,-4.0319,-4.0734,-4.0866,-4.2521,-4.384,-4.3724,-4.5009,-4.5852,-4.5355,-4.5649,-4.5751,-4.5355,-4.5649,-4.5563,-4.4614,-4.439,-4.4333,-4.4333,-4.4333,-4.4333,-4.4333,-4.4333,-4.4121,-4.3628,-4.3628,-4.3628,-4.3628,-4.3628,-4.3628,-4.3628,-4.3628,-4.3628,-4.3628,-4.3628,-4.3628,-4.3628,-4.4121,-4.4597,-4.4984,-4.5108,-4.5161,-4.5161,-4.525,-4.558,-4.602,-4.5459,-4.558,-4.602,-4.602,-4.602,-4.602,-4.602,-4.602,-4.597,-4.5459,-4.5267,-4.5282,-4.5954,-4.6089,-4.6007,-4.6126,-4.6279,-4.6262,-4.5768,-4.6146,-4.6709,-4.6709,-4.7173,-4.7686,-4.7951,-4.8001,-4.8001,-4.8001,-4.8001,-4.8001,-4.8001,-4.8001,-4.8001,-4.8001,-4.8001,-4.8001,-4.8001,-4.8001,-4.8001,-4.8001,-4.8001,-4.8001,-4.8001,-4.8001,-4.8001,-4.8001,-4.8001,-4.8001,-4.8001,-4.8001,-4.8001,-4.8001,-4.8001,-4.8001,-4.8001,-4.8001,-4.8001,-4.8001,-4.8001,-4.8001,0.0,0.0,-3.9272,0.0,-3.9627,-3.9919,0.0,0.0,-4.0137,0.0,-4.2158,-4.3807,-4.3509,-4.4524,-4.5407,-4.5303,-4.4964,-4.4855,-4.5267,-4.4964,-4.4652,-4.4502,-4.4064,-4.373,-4.373,-4.373,-4.373,-4.373,-4.373,-4.3687,-4.3628,-4.3628,-4.3628,-4.3628,-4.3628,-4.3628,-4.3628,-4.3628,-4.3628,-4.3628,-4.3628,-4.3628,-4.3628,-4.3671,-4.3789,-4.3831,-4.439,-4.4614,-4.4652,-4.5108,-4.5372,-4.5407,-4.5303,-4.5355,-4.5425,-4.5425,-4.5425,-4.5425,-4.5425,-4.5425,-4.5425,-4.5303,-4.5018,-4.4614,-4.4716,-4.4428,-4.3997,-4.3996,-4.4461,-4.4942,-4.4898,-4.5384,-4.5947,-4.5947,-4.6013,-4.6444,-4.7719,-4.8001,-4.8001,-4.8001,-4.8001,-4.8001,-4.8001,-4.8001,-4.8001,-4.8001,-4.8001,-4.8001,-4.8001,-4.8001,-4.8001,-4.8001,-4.8001,-4.8001,-4.8001,-4.8001,-4.8001,-4.8001,-4.8001,-4.8001,-4.8001,-4.8001,-4.8001,-4.8001,-4.8001,-4.8001,-4.8001,-4.8001,-4.8001,-4.8001,-4.8001,-4.8001,-3.9272,-3.9272,-3.9272,0.0,-3.9627,-3.9868,-3.9415,-3.9679,-3.9919,-3.9644,-4.107,-4.2447,-4.2715,-4.3748,-4.454,-4.4401,-4.4429,-4.4446,-4.4356,-4.4429,-4.439,-4.4006,-4.3789,-4.3628,-4.3628,-4.3628,-4.3628,-4.3628,-4.3628,-4.3628,-4.3628,-4.3628,-4.3628,-4.3628,-4.3628,-4.3628,-4.3628,-4.3628,-4.3628,-4.3628,-4.3628,-4.3628,-4.3628,-4.3628,-4.3628,-4.3611,-4.3906,-4.4006,-4.4006,-4.4259,-4.4524,-4.4801,-4.4468,-4.4524,-4.4855,-4.4855,-4.4855,-4.4855,-4.4855,-4.4855,-4.4801,-4.4468,-4.4219,-4.4006,-4.4006,-4.3789,-4.3628,-4.3628,-4.3843,-4.4092,-4.4092,-4.4622,-4.5168,-4.5168,-4.5483,-4.5963,-4.6626,-4.709,-4.7504,-4.7918,-4.8001,-4.8001,-4.8001,-4.8001,-4.8001,-4.8001,-4.8001,-4.8001,-4.8001,-4.8001,-4.8001,-4.8001,-4.8001,-4.8001,-4.8001,-4.8001,-4.8001,-4.8001,-4.8001,-4.8001,-4.8001,-4.8001,-4.8001,-4.8001,-4.8001,-4.8001,-4.8001,-4.8001,-4.8001,-4.8001,-4.8001,-4.8001,0.0,0.0,-3.9272,-3.9272,-3.954,-3.9731,0.0,0.0,-3.9731,0.0,-4.0132,-4.1068,-4.1634,-4.294,-4.3861,-4.3614,-4.3948,-4.4121,-4.3671,-4.4006,-4.4121,-4.3671,-4.3628,-4.3628,-4.3628,-4.3628,-4.3628,-4.3628,-4.3628,-4.3628,-4.3628,-4.3628,-4.3628,-4.3628,-4.3628,-4.3628,-4.3628,-4.3628,-4.3628,-4.3628,-4.3628,-4.3628,-4.3628,-4.3628,-4.3628,-4.3628,-4.3628,-4.3628,-4.3628,-4.3628,-4.3848,-4.4236,-4.3789,-4.3906,-4.4276,-4.4276,-4.4276,-4.4276,-4.4276,-4.4276,-4.4179,-4.373,-4.3628,-4.3628,-4.3628,-4.3628,-4.3628,-4.3628,-4.3628,-4.3628,-4.3628,-4.4026,-4.4423,-4.4423,-4.4837,-4.5334,-4.5715,-4.6228,-4.6775,-4.7338,-4.7587,-4.7719,-4.7719,-4.7885,-4.8001,-4.8001,-4.8001,-4.8001,-4.8001,-4.8001,-4.8001,-4.8001,-4.8001,-4.8001,-4.8001,-4.8001,-4.8001,-4.8001,-4.8001,-4.8001,-4.8001,-4.8001,-4.8001,-4.8001,-4.8001,-4.8001,-4.8001,-4.8001,-4.8001,-4.8001,-4.8001,-4.8001,0.0,-3.9272,0.0,-3.9272,-3.9325,0.0,0.0,0.0,-3.9325,-3.9325,-3.9729,-4.0154,-4.0446,-4.2097,-4.3457,-4.3555,-4.3628,-4.3628,-4.3628,-4.3628,-4.3628,-4.3628,-4.3628,-4.3628,-4.3628,-4.3628,-4.3628,-4.3628,-4.3628,-4.3628,-4.3628,-4.3628,-4.3628,-4.3628,-4.3628,-4.3628,-4.3628,-4.3628,-4.3628,-4.3628,-4.3628,-4.3628,-4.3628,-4.3628,-4.3628,-4.3628,-4.3628,-4.3628,-4.3628,-4.3628,-4.3628,-4.3611,-4.3628,-4.3628,-4.3628,-4.3628,-4.3628,-4.3628,-4.3628,-4.3628,-4.3628,-4.3628,-4.3628,-4.3628,-4.3628,-4.3628,-4.3628,-4.3628,-4.3628,-4.3628,-4.3628,-4.3661,-4.3678,-4.3678,-4.3711,-4.4108,-4.55,-4.5814,-4.5864,-4.5897,-4.6477,-4.6957,-4.6957,-4.7537,-4.8001,-4.8001,-4.8001,-4.8001,-4.8001,-4.8001,-4.8001,-4.8001,-4.8001,-4.8001,-4.8001,-4.8001,-4.8001,-4.8001,-4.8001,-4.8001,-4.8001,-4.8001,-4.8001,-4.8001,-4.8001,-4.8001,-4.8001,-4.8001,-4.8001,-4.8001,-4.8001,-4.8001,0.0,0.0,0.0,-3.9272,-3.9272,-3.9272,-3.9272,-3.9272,-3.9272,-3.9272,-3.9415,-3.9721,-4.0287,-4.1238,-4.2139,-4.2775,-4.2916,-4.3081,-4.3562,-4.3628,-4.3628,-4.3628,-4.3628,-4.3628,-4.3628,-4.3628,-4.3628,-4.3628,-4.3628,-4.3628,-4.3628,-4.3628,-4.3628,-4.3628,-4.3628,-4.3628,-4.3628,-4.3628,-4.3628,-4.3628,-4.3628,-4.3628,-4.3628,-4.3628,-4.3628,-4.3628,-4.3628,-4.3628,-4.3628,-4.3628,-4.3628,-4.3628,-4.3628,-4.3628,-4.3628,-4.3628,-4.3628,-4.3628,-4.3628,-4.3628,-4.3628,-4.3628,-4.3628,-4.3628,-4.3628,-4.3628,-4.3628,-4.3628,-4.3628,-4.3628,-4.3628,-4.3628,-4.3628,-4.3628,-4.3628,-4.3761,-4.4291,-4.4754,-4.5218,-4.5698,-4.6013,-4.6179,-4.6179,-4.6411,-4.6742,-4.7222,-4.7289,-4.7454,-4.7934,-4.8001,-4.8001,-4.8001,-4.8001,-4.8001,-4.8001,-4.8001,-4.8001,-4.8001,-4.8001,-4.8001,-4.8001,-4.8001,-4.8001,-4.8001,-4.8001,-4.8001,-4.8001,-4.8001,-4.8001,-4.8001,-4.8001,-4.8001,-3.9272,0.0,0.0,0.0,-3.9272,-3.9272,-3.9272,-3.9272,-3.9272,-3.9272,-3.9272,-3.9421,-3.9918,-4.0291,-4.0849,-4.1962,-4.2353,-4.2684,-4.3181,-4.3462,-4.3628,-4.3628,-4.3628,-4.3628,-4.3628,-4.3628,-4.3628,-4.3628,-4.3628,0.0,-4.3628,-4.3628,-4.3628,-4.3628,-4.3628,-4.3628,-4.3628,-4.3628,-4.3628,-4.3628,-4.3628,-4.3628,-4.3628,-4.3628,-4.3628,-4.3628,-4.3628,-4.3628,-4.3628,-4.3628,-4.3628,-4.3628,-4.3628,-4.3628,-4.3628,-4.3628,-4.3628,-4.3628,-4.3628,-4.3628,-4.3628,-4.3628,-4.3628,-4.3628,-4.3628,-4.3628,-4.3628,-4.3628,-4.3628,-4.3628,-4.3628,-4.3628,-4.3628,-4.3628,-4.3628,-4.3628,-4.3628,-4.3992,-4.4473,-4.497,-4.5251,-4.5417,-4.5417,-4.5632,-4.5963,-4.646,-4.6742,-4.7073,-4.757,-4.7852,-4.8001,-4.8001,-4.8001,-4.8001,-4.8001,-4.8001,-4.8001,-4.8001,-4.8001,-4.8001,-4.8001,-4.8001,-4.8001,-4.8001,-4.8001,-4.8001,-4.8001,-4.8001,-4.8001,-4.8001,-4.8001,-4.8001,0.0,0.0,0.0,0.0,0.0,0.0,-3.9272,0.0,-3.9272,-3.9272,-3.9272,-3.9272,-3.9272,-3.9272,-3.9736,-4.1127,-4.1972,-4.2452,-4.2485,-4.3115,-4.3595,-4.3595,-4.3611,-4.3628,-4.3628,-4.3628,-4.3628,-4.3628,-4.3628,-4.3628,-4.3628,-4.3628,-4.3628,-4.3628,-4.3628,-4.3628,-4.3628,-4.3628,-4.3628,-4.3628,-4.3628,-4.3628,-4.3628,-4.3628,-4.3628,-4.3628,-4.3628,-4.3628,-4.3628,-4.3628,-4.3628,-4.3628,-4.3628,-4.3628,-4.3628,-4.3628,-4.3628,-4.3628,-4.3628,-4.3628,-4.3628,-4.3628,-4.3628,-4.3628,-4.3628,-4.3628,-4.3628,-4.3628,-4.3628,-4.3628,-4.3628,-4.3628,-4.3628,-4.3628,-4.3628,-4.3628,-4.3628,-4.3628,-4.3628,-4.3628,-4.4191,-4.4655,-4.4655,-4.5251,-4.5732,-4.5748,-4.6378,-4.6841,-4.6858,-4.7504,-4.7968,-4.7968,-4.7984,-4.8001,-4.8001,-4.8001,-4.8001,-4.8001,-4.8001,-4.8001,-4.8001,-4.8001,-4.8001,-4.8001,-4.8001,-4.8001,-4.8001,-4.8001,-4.8001,-4.8001,-4.8001,-4.8001,-3.9272,0.0,0.0,0.0,0.0,0.0,-3.9272,0.0,-3.9272,-3.9272,-3.9272,-3.9272,-3.9272,-3.9272,-3.9404,-3.9802,-4.0481,-4.1143,-4.1657,-4.2353,-4.2816,-4.2816,-4.3297,-4.3628,-4.3628,-4.3628,-4.3628,0.0,-4.3628,-4.3628,-4.3628,-4.3628,-4.3628,-4.3628,-4.3628,-4.3628,-4.3628,-4.3628,-4.3628,-4.3628,-4.3628,-4.3628,-4.3628,-4.3628,-4.3628,-4.3628,-4.3628,-4.3628,-4.3628,-4.3628,-4.3628,-4.3628,-4.3628,-4.3628,-4.3628,-4.3628,-4.3628,-4.3628,-4.3628,-4.3628,-4.3628,-4.3628,-4.3628,-4.3628,-4.3628,-4.3628,-4.3628,-4.3628,-4.3628,-4.3628,-4.3628,-4.3628,-4.3628,-4.3628,-4.3628,-4.3628,-4.3628,-4.3628,-4.3628,-4.3628,-4.3777,-4.391,-4.391,-4.4092,-4.4406,-4.4903,-4.5168,-4.5483,-4.603,-4.6742,-4.7206,-4.7206,-4.7686,-4.8001,-4.8001,-4.8001,-4.8001,-4.8001,-4.8001,-4.8001,-4.8001,-4.8001,-4.8001,-4.8001,-4.8001,-4.8001,-4.8001,-4.8001,-4.8001,-4.8001,-4.8001,-4.8001,-3.9272,-3.9272,-3.9272,-3.9272,0.0,0.0,-3.9272,-3.9272,-3.9272,0.0,-3.9272,-3.9272,-3.9272,-3.9272,-3.9272,-3.9272,-3.9636,-4.0166,-4.0878,-4.1607,-4.2054,-4.2054,-4.2435,-4.2816,-4.3131,-4.3164,-4.3297,-4.3611,-4.3628,-4.3628,-4.3628,-4.3628,-4.3628,-4.3628,-4.3628,-4.3628,-4.3628,-4.3628,-4.3628,-4.3628,-4.3628,-4.3628,-4.3628,-4.3628,-4.3628,-4.3628,-4.3628,-4.3628,-4.3628,-4.3628,-4.3628,-4.3628,-4.3628,-4.3628,-4.3628,-4.3628,-4.3628,-4.3628,-4.3628,-4.3628,-4.3628,-4.3628,-4.3628,-4.3628,-4.3628,-4.3628,-4.3628,-4.3628,-4.3628,-4.3628,-4.3628,-4.3628,-4.3628,-4.3628,-4.3628,-4.3628,-4.3628,-4.3628,-4.3628,-4.3628,-4.3628,-4.3628,-4.3628,-4.3628,-4.3761,-4.4175,-4.4489,-4.4854,-4.5284,-4.598,-4.6444,-4.6444,-4.7106,-4.7537,-4.7537,-4.7819,-4.8001,-4.8001,-4.8001,-4.8001,-4.8001,-4.8001,-4.8001,-4.8001,-4.7703,-4.7388,-4.7073,-4.7388,-4.7388,-4.7073,-4.7073,-4.7073,-3.9272,-3.9272,-3.9272,-3.9272,-3.9272,0.0,-3.9272,-3.9272,-3.9272,0.0,-3.9272,-3.9272,-3.9272,-3.9272,-3.9272,-3.9272,-3.9272,-3.9504,-4.0166,-4.0862,-4.1293,-4.1293,-4.1359,-4.1674,-4.2336,-4.2402,-4.27,-4.3446,-4.3578,-4.3628,-4.3628,-4.3628,-4.3628,-4.3628,-4.3628,-4.3628,-4.3628,-4.3628,-4.3628,-4.3628,-4.3628,-4.3628,-4.3628,-4.3628,-4.3628,-4.3628,-4.3628,-4.3628,-4.3628,-4.3628,-4.3628,-4.3628,-4.3628,-4.3628,-4.3628,-4.3628,-4.3628,-4.3628,-4.3628,-4.3628,-4.3628,-4.3628,-4.3628,-4.3628,-4.3628,-4.3628,-4.3628,-4.3628,-4.3628,-4.3628,-4.3628,-4.3628,-4.3628,-4.3628,-4.3628,-4.3628,-4.3628,-4.3628,-4.3628,-4.3628,-4.3628,-4.3628,-4.3628,-4.3628,-4.3628,-4.3628,-4.4158,-4.4572,-4.4572,-4.5218,-4.5665,-4.5665,-4.6328,-4.6808,-4.6891,-4.7504,-4.7918,-4.8001,-4.8001,-4.8001,-4.8001,-4.8001,-4.7968,-4.7885,-4.7156,-4.6411,-4.5665,-4.6411,-4.6444,-4.5798,-4.5798,-4.5798,-3.9272,-3.9272,-3.9272,-3.9272,-3.9272,0.0,-3.9272,-3.9272,-3.9272,0.0,-3.9272,-3.9272,-3.9272,-3.9272,-3.9272,-3.9272,-3.9272,-3.9322,-3.9471,-4.0117,-4.058,-4.058,-4.1077,-4.1475,-4.1624,-4.1624,-4.1939,-4.2684,-4.328,-4.3628,-4.3628,-4.3628,-4.3628,-4.3628,-4.3628,-4.3628,-4.3628,-4.3628,-4.3628,-4.3628,-4.3628,-4.3628,-4.3628,-4.3628,-4.3628,-4.3628,-4.3628,-4.3628,-4.3628,-4.3628,-4.3628,-4.3628,-4.3628,-4.3628,-4.3628,-4.3628,-4.3628,-4.3628,-4.3628,-4.3628,-4.3628,-4.3628,-4.3628,-4.3628,-4.3628,-4.3628,-4.3628,-4.3628,-4.3628,-4.3628,-4.3628,-4.3628,-4.3628,-4.3628,-4.3628,-4.3628,-4.3628,-4.3628,-4.3628,-4.3628,-4.3628,-4.3628,-4.3628,-4.3628,-4.3628,-4.3628,-4.3744,-4.3827,-4.3827,-4.4456,-4.4903,-4.4903,-4.5566,-4.6245,-4.6841,-4.7023,-4.7371,-4.7968,-4.8001,-4.8001,-4.8001,-4.8001,-4.7719,-4.7123,-4.6394,-4.5649,-4.4903,-4.5649,-4.593,-4.5798,-4.5798,-4.5798,-3.9272,-3.9272,-3.9272,-3.9272,-3.9272,0.0,0.0,-3.9272,-3.9272,-3.9272,-3.9272,-3.9272,-3.9272,-3.9272,-3.9272,-3.9272,-3.9272,-3.9272,-3.9272,-3.9587,-3.9835,-3.9835,-4.0133,-4.0498,-4.0862,-4.0895,-4.1359,-4.2435,-4.2866,-4.323,-4.3611,-4.3628,-4.3628,-4.3628,-4.3628,-4.3628,-4.3628,-4.3628,-4.3628,-4.3628,-4.3628,-4.3628,-4.3628,-4.3628,-4.3628,-4.3628,-4.3628,-4.3628,-4.3628,-4.3628,-4.3628,-4.3628,-4.3628,-4.3628,-4.3628,-4.3628,-4.3628,-4.3628,-4.3628,-4.3628,-4.3628,-4.3628,-4.3628,-4.3628,-4.3628,-4.3628,-4.3628,-4.3628,-4.3628,-4.3628,-4.3628,-4.3628,-4.3628,-4.3628,-4.3628,-4.3628,-4.3628,-4.3628,-4.3628,-4.3628,-4.3628,-4.3628,-4.3628,-4.3628,-4.3628,-4.3628,-4.3628,-4.3628,-4.3628,-4.3943,-4.4158,-4.4158,-4.4804,-4.5384,-4.5765,-4.6477,-4.7057,-4.7438,-4.7802,-4.8001,-4.8001,-4.8001,-4.7487,-4.6361,-4.5616,-4.4887,-4.4158,-4.4522,-4.4705,-4.4705,-4.4705,-4.4705,-3.9218,-3.9272,-3.9272,-3.9272,-3.9272,-3.9272,0.0,0.0,0.0,-3.9272,-3.9272,-3.9272,-3.9272,0.0,0.0,-3.909,0.0,0.0,0.0,-3.9189,0.0,-3.9272,-3.9272,-3.9504,-4.0117,-4.0299,-4.0862,-4.2021,-4.2237,-4.2634,-4.338,-4.3413,-4.3479,-4.3628,-4.3628,-4.3628,-4.3628,-4.3628,-4.3628,-4.3628,-4.3628,-4.3628,-4.3628,-4.3628,-4.3628,-4.3628,-4.3628,-4.3628,-4.3628,-4.3628,-4.3628,-4.3628,-4.3628,-4.3628,-4.3628,-4.3628,-4.3628,-4.3628,-4.3628,-4.3628,-4.3628,-4.3628,-4.3628,-4.3628,-4.3628,-4.3628,-4.3628,-4.3628,-4.3628,-4.3628,-4.3628,-4.3628,-4.3628,-4.3628,-4.3628,-4.3628,-4.3628,-4.3628,-4.3628,-4.3628,-4.3628,-4.3628,-4.3628,-4.3628,-4.3628,-4.3628,-4.3628,-4.3628,-4.3628,-4.3628,-4.3628,-4.3628,-4.4141,-4.4539,-4.4671,-4.5781,-4.6527,-4.6676,-4.7388,-4.7785,-4.7785,-4.7653,-4.6941,-4.5599,-4.4854,-4.4208,-4.3628,-4.3628,-4.3628,-4.3628,-4.3628,-4.3628,-3.9202,-3.9272,-3.9272,-3.9272,-3.9272,-3.9272,-3.9272,0.0,-3.9272,-3.9272,0.0,-3.9272,-3.9272,0.0,0.0,0.0,0.0,0.0,-3.8427,-3.8874,-3.9272,-3.9272,-3.9272,-3.9305,-3.9441,-4.0001,-4.0448,-4.0613,-4.1193,-4.1856,-4.2601,-4.2634,-4.2949,-4.3611,-4.3628,-4.3628,-4.3628,-4.3628,-4.3628,-4.3628,-4.3628,-4.3628,-4.3628,-4.3628,-4.3628,-4.3628,-4.3628,-4.3628,-4.3628,-4.3628,-4.3628,-4.3628,-4.3628,-4.3628,-4.3628,-4.3628,-4.3628,-4.3628,-4.3628,-4.3628,-4.3628,-4.3628,-4.3628,-4.3628,-4.3628,-4.3628,-4.3628,-4.3628,-4.3628,-4.3628,-4.3628,-4.3628,-4.3628,-4.3628,-4.3628,-4.3628,-4.3628,-4.3628,-4.3628,-4.3628,-4.3628,-4.3628,-4.3628,-4.3628,-4.3628,-4.3628,-4.3628,-4.3628,-4.3628,-4.3628,-4.3628,-4.3628,-4.3694,-4.3992,-4.4622,-4.4837,-4.5218,-4.5864,-4.6609,-4.7023,-4.7023,-4.6394,-4.5649,-4.4821,-4.4108,-4.3711,-4.3628,-4.3628,-4.3628,-4.3628,-4.3628,-4.3628,-3.904,-3.9094,-3.904,-3.9272,-3.9202,-3.9148,-3.9272,-3.9272,-3.9272,-3.9272,0.0,0.0,0.0,0.0,0.0,0.0,-3.9073,-3.9172,0.0,0.0,-3.9272,-3.9272,0.0,0.0,-3.9272,-3.9553,-3.9918,-4.0348,-4.0647,-4.1127,-4.1839,-4.2286,-4.2667,-4.2965,-4.3396,-4.3628,-4.3628,-4.3628,-4.3628,-4.3628,-4.3628,-4.3628,-4.3628,-4.3628,-4.3628,-4.3628,-4.3628,-4.3628,-4.3628,-4.3628,-4.3628,-4.3628,-4.3628,-4.3628,-4.3628,-4.3628,-4.3628,-4.3628,-4.3628,-4.3628,-4.3628,-4.3628,-4.3628,-4.3628,-4.3628,-4.3628,-4.3628,-4.3628,-4.3628,-4.3628,-4.3628,-4.3628,-4.3628,-4.3628,-4.3628,-4.3628,-4.3628,-4.3628,-4.3628,-4.3628,-4.3628,-4.3628,-4.3628,-4.3628,-4.3628,-4.3628,-4.3628,-4.3628,-4.3628,-4.3628,-4.3628,-4.3628,-4.3628,-4.3744,-4.4042,-4.444,-4.4821,-4.5135,-4.6245,-4.6709,-4.6278,-4.5947,-4.5433,-4.4705,-4.3992,-4.3628,-4.3628,-4.3628,-4.3628,-4.3628,-4.3628,-4.3628,-3.886,-3.886,-3.886,-3.9148,-3.9094,-3.9023,-3.9272,-3.9272,-3.9272,-3.9272,-3.9272,0.0,0.0,0.0,-3.9206,-3.9007,0.0,-3.9206,0.0,-3.9156,-3.9272,-3.9272,0.0,0.0,0.0,-3.9272,-3.9487,-4.0034,-4.0083,-4.0382,-4.1094,-4.164,-4.2104,-4.2502,-4.3048,-4.3429,-4.3628,-4.3628,-4.3628,-4.3628,-4.3628,-4.3628,-4.3628,-4.3628,-4.3628,-4.3628,-4.3628,-4.3628,-4.3628,-4.3628,-4.3628,-4.3628,-4.3628,-4.3628,-4.3628,-4.3628,-4.3628,-4.3628,-4.3628,-4.3628,-4.3628,-4.3628,-4.3628,-4.3628,-4.3628,-4.3628,-4.3628,-4.3628,-4.3628,-4.3628,-4.3628,-4.3628,-4.3628,-4.3628,-4.3628,-4.3628,-4.3628,-4.3628,-4.3628,-4.3628,-4.3628,-4.3628,-4.3628,-4.3628,-4.3628,-4.3628,-4.3628,-4.3628,-4.3628,-4.3628,-4.3628,-4.3628,-4.3628,-4.3628,-4.3628,-4.4092,-4.4473,-4.4671,-4.5881,-4.6361,-4.5814,-4.5798,-4.5433,-4.4705,-4.3992,-4.3628,-4.3628,-4.3628,-4.3628,-4.3628,-4.3628,-4.3628,-3.875,-3.8805,-3.886,-3.8969,-3.9023,-3.9023,-3.9272,-3.9272,-3.9272,-3.9272,-3.9272,-3.9272,-3.9272,-3.9272,-3.9056,-3.8361,-3.8825,0.0,0.0,-3.8841,-3.9272,-3.9272,-3.9272,0.0,0.0,-3.9272,-3.9288,-3.9305,-3.9358,-3.9636,-4.0365,-4.0431,-4.1077,-4.2485,-4.2535,-4.2899,-4.3611,-4.3628,-4.3628,-4.3628,-4.3628,-4.3628,-4.3628,-4.3628,-4.3628,-4.3628,-4.3628,-4.3628,-4.3628,-4.3628,-4.3628,-4.3628,-4.3628,-4.3628,-4.3628,-4.3628,-4.3628,-4.3628,-4.3628,-4.3628,-4.3628,-4.3628,-4.3628,-4.3628,-4.3628,-4.3628,-4.3628,-4.3628,-4.3628,-4.3628,-4.3628,-4.3628,-4.3628,-4.3628,-4.3628,-4.3628,-4.3628,-4.3628,-4.3628,-4.3628,-4.3628,-4.3628,-4.3628,-4.3628,-4.3628,-4.3628,-4.3628,-4.3628,-4.3628,-4.3628,-4.3628,-4.3628,-4.3628,-4.3628,-4.3628,-4.3645,-4.3959,-4.4638,-4.54,-4.5814,-4.5798,-4.5798,-4.5433,-4.4705,-4.3992,-4.3628,-4.3628,-4.3628,-4.3628,-4.3628,-4.3628,-4.3628,0.0,0.0,-3.86,-3.8805,0.0,-3.8914,-3.9094,-3.9202,-3.9272,-3.9272,-3.9272,-3.9272,-3.9272,-3.9272,-3.9206,-3.8957,-3.9123,-3.9189,0.0,-3.9123,-3.9272,-3.9272,-3.9272,-3.9272,0.0,0.0,-3.9272,-3.9272,-3.9272,-3.9388,-3.9636,-4.0117,-4.0613,-4.1094,-4.2021,-4.2634,-4.2899,-4.338,-4.3628,-4.3628,-4.3628,-4.3628,-4.3628,-4.3628,-4.3628,-4.3628,-4.3628,-4.3628,-4.3628,-4.3628,-4.3628,-4.3628,-4.3628,-4.3628,-4.3628,-4.3628,-4.3628,-4.3628,-4.3628,-4.3628,-4.3628,-4.3628,-4.3628,-4.3628,-4.3628,-4.3628,-4.3628,-4.3628,-4.3628,-4.3628,-4.3628,-4.3628,-4.3628,-4.3628,-4.3628,-4.3628,-4.3628,-4.3628,-4.3628,-4.3628,-4.3628,-4.3628,-4.3628,-4.3628,-4.3628,-4.3628,-4.3628,-4.3628,-4.3628,-4.3628,-4.3628,-4.3628,-4.3628,-4.3628,-4.3628,-4.3628,-4.3727,-4.3976,-4.5119,-4.5566,-4.5086,-4.5533,-4.5433,-4.4705,-4.3992,-4.3628,-4.3628,-4.3628,-4.3628,-4.3628,-4.3628,-4.3628,-3.852,-3.8464,0.0,-3.8655,-3.8711,0.0,-3.8914,-3.904,-3.9094,-3.9094,-3.9094,-3.9094,-3.9094,-3.9148,-3.9202,-3.9202,-3.9272,-3.9272,0.0,-3.9272,-3.9272,-3.9272,-3.9272,-3.9272,-3.9272,-3.9272,-3.9272,-3.9272,-3.9272,-3.9272,-3.9272,-3.9736,-4.0117,-4.0365,-4.1508,-4.2253,-4.2518,-4.3264,-4.3628,-4.3628,-4.3628,-4.3628,-4.3628,-4.3628,-4.3628,-4.3628,-4.3628,-4.3628,-4.3628,-4.3628,-4.3628,-4.3628,-4.3568,-4.3509,-4.3509,-4.3568,-4.3628,-4.3628,-4.3628,-4.3628,-4.3628,-4.3628,-4.3628,-4.3568,-4.3552,-4.3568,-4.3568,-4.3432,-4.3492,-4.3509,-4.3509,-4.3509,-4.3432,-4.3492,-4.3492,-4.3432,-4.3492,-4.3509,-4.3568,-4.3568,-4.3628,-4.3628,-4.3628,-4.3628,-4.3628,-4.3628,-4.3628,-4.3628,-4.3628,-4.3628,-4.3628,-4.3628,-4.3628,-4.3628,-4.3628,-4.3628,-4.3628,-4.3628,-4.4986,-4.5582,-4.5102,-4.5533,-4.5698,-4.5483,-4.4257,-4.3744,-4.3992,-4.3744,-4.3628,-4.3628,-4.3628,-4.3628]}]]